[[{"header":{"parameterUnit":"m.s-1","parameterCategory":1,"la1":30.6,"la2":29.2853,"lo1":-89.7004,"lo2":-87.6739,"dy":0.0162,"dx":0.0183,"nx":112,"ny":82,"refTime":"2024-07-02T00:00:00:Z","depth":0,"parameterNumber":2,"parameterNumberName":"U-component_of_WINDS"},"data":[0.0,0.0,0.0,0.0,0.0,0.0,0.0,0.0,0.0,0.0,0.0,0.0,0.0,0.0,0.0,0.0,0.0,0.0,0.0,0.0,0.0,0.0,0.0,0.0,0.0,0.0,0.0,0.0,0.0,0.0,0.0,0.0,0.0,0.0,0.0,0.0,0.0,0.0,0.0,0.0,0.0,0.0,0.0,0.0,0.0,0.0,0.0,0.0,0.0,0.0,0.0,0.0,0.0,0.0,0.0,0.0,0.0,0.0,0.0,0.0,0.0,0.0,0.0,0.0,0.0,0.0,0.0,0.0,0.0,0.0,0.0,0.0,0.0,0.0,0.0,0.0,0.0,0.0,0.0,0.0,0.0,0.0,0.0,0.0,0.0,0.0,0.0,0.0,0.0,0.0,-2.9065,-3.0712,-3.0926,-3.0807,-3.0385,-3.0192,-2.9167,-2.6867,0.0,0.0,0.0,0.0,0.0,0.0,0.0,0.0,0.0,0.0,0.0,0.0,0.0,0.0,0.0,0.0,0.0,0.0,0.0,0.0,0.0,0.0,0.0,0.0,0.0,0.0,0.0,0.0,0.0,0.0,0.0,0.0,0.0,0.0,0.0,0.0,0.0,0.0,0.0,0.0,0.0,0.0,0.0,0.0,0.0,0.0,0.0,0.0,0.0,0.0,0.0,0.0,0.0,0.0,0.0,0.0,0.0,0.0,0.0,0.0,0.0,0.0,0.0,0.0,0.0,0.0,0.0,0.0,0.0,0.0,0.0,0.0,0.0,0.0,0.0,0.0,0.0,0.0,0.0,0.0,0.0,0.0,0.0,0.0,0.0,0.0,0.0,0.0,0.0,0.0,0.0,0.0,0.0,0.0,0.0,0.0,0.0,0.0,0.0,0.0,0.0,0.0,0.0,0.0,-2.9072,-3.0137,-3.0167,-2.9939,-2.9582,-2.977,-2.8978,-2.6914,0.0,0.0,0.0,0.0,0.0,0.0,0.0,0.0,0.0,0.0,0.0,0.0,0.0,0.0,0.0,0.0,0.0,0.0,0.0,0.0,0.0,0.0,0.0,0.0,0.0,0.0,0.0,0.0,0.0,0.0,0.0,0.0,0.0,0.0,0.0,0.0,0.0,0.0,0.0,0.0,0.0,0.0,0.0,0.0,0.0,0.0,0.0,0.0,0.0,0.0,0.0,0.0,0.0,0.0,0.0,0.0,0.0,0.0,0.0,0.0,0.0,0.0,0.0,0.0,0.0,0.0,0.0,0.0,0.0,0.0,0.0,0.0,0.0,0.0,0.0,0.0,0.0,0.0,0.0,0.0,0.0,0.0,0.0,0.0,0.0,0.0,0.0,0.0,0.0,0.0,0.0,0.0,0.0,0.0,0.0,0.0,0.0,0.0,0.0,0.0,0.0,0.0,0.0,-2.9249,-3.004,-3.051,-3.0488,-3.0272,-2.9865,-2.9489,-2.8517,-2.6795,-2.6039,0.0,0.0,0.0,0.0,0.0,0.0,0.0,0.0,0.0,0.0,0.0,0.0,0.0,0.0,0.0,0.0,0.0,0.0,0.0,0.0,0.0,0.0,0.0,0.0,0.0,0.0,0.0,0.0,0.0,0.0,0.0,0.0,0.0,0.0,0.0,0.0,0.0,0.0,0.0,0.0,0.0,0.0,0.0,0.0,0.0,0.0,0.0,0.0,0.0,0.0,0.0,0.0,0.0,0.0,0.0,0.0,0.0,0.0,0.0,0.0,0.0,0.0,0.0,0.0,0.0,0.0,0.0,0.0,0.0,0.0,0.0,0.0,0.0,0.0,0.0,0.0,0.0,0.0,0.0,0.0,0.0,0.0,0.0,0.0,0.0,0.0,0.0,0.0,0.0,0.0,0.0,0.0,0.0,0.0,0.0,0.0,0.0,0.0,0.0,0.0,0.0,0.0,-2.9832,-3.0773,-3.0773,-3.0733,-3.0568,-3.013,-2.9162,-2.8008,-2.6632,-2.5511,0.0,0.0,0.0,0.0,0.0,0.0,0.0,0.0,0.0,0.0,0.0,0.0,0.0,0.0,0.0,0.0,0.0,0.0,0.0,0.0,0.0,0.0,0.0,0.0,0.0,0.0,0.0,0.0,0.0,0.0,0.0,0.0,0.0,0.0,0.0,0.0,0.0,0.0,0.0,0.0,0.0,0.0,0.0,0.0,0.0,0.0,0.0,0.0,0.0,0.0,0.0,0.0,0.0,0.0,0.0,0.0,0.0,0.0,0.0,0.0,0.0,0.0,0.0,0.0,0.0,0.0,0.0,0.0,0.0,0.0,0.0,0.0,0.0,0.0,0.0,0.0,0.0,0.0,0.0,0.0,0.0,0.0,0.0,0.0,0.0,0.0,0.0,0.0,0.0,0.0,0.0,0.0,0.0,0.0,0.0,0.0,0.0,0.0,0.0,0.0,0.0,0.0,-2.9591,-3.0468,-3.0351,-3.03,-3.013,-2.9853,-2.8666,-2.7541,-2.647,-2.5243,0.0,0.0,0.0,0.0,0.0,0.0,0.0,0.0,0.0,0.0,0.0,0.0,0.0,0.0,0.0,0.0,0.0,0.0,0.0,0.0,0.0,0.0,0.0,0.0,0.0,0.0,0.0,0.0,0.0,0.0,0.0,0.0,0.0,0.0,0.0,0.0,0.0,0.0,0.0,0.0,0.0,0.0,0.0,0.0,0.0,0.0,0.0,0.0,0.0,0.0,0.0,0.0,0.0,0.0,0.0,0.0,0.0,0.0,0.0,0.0,0.0,0.0,0.0,0.0,0.0,0.0,0.0,0.0,0.0,0.0,0.0,0.0,0.0,0.0,0.0,0.0,0.0,0.0,0.0,0.0,0.0,0.0,0.0,0.0,0.0,0.0,0.0,0.0,0.0,0.0,0.0,0.0,0.0,0.0,0.0,0.0,0.0,0.0,0.0,0.0,0.0,0.0,-2.8951,-2.987,-2.981,-2.9782,-2.9472,-2.8802,-2.775,-2.6723,-2.572,0.0,0.0,0.0,0.0,0.0,0.0,0.0,0.0,0.0,0.0,0.0,0.0,0.0,0.0,0.0,0.0,0.0,0.0,0.0,0.0,0.0,0.0,0.0,0.0,0.0,0.0,0.0,0.0,0.0,0.0,0.0,0.0,0.0,0.0,0.0,0.0,0.0,0.0,0.0,0.0,0.0,0.0,0.0,0.0,0.0,0.0,0.0,0.0,0.0,0.0,0.0,0.0,0.0,0.0,0.0,0.0,0.0,0.0,0.0,0.0,0.0,0.0,0.0,0.0,0.0,0.0,0.0,0.0,0.0,0.0,0.0,0.0,0.0,0.0,0.0,0.0,0.0,0.0,0.0,0.0,0.0,0.0,0.0,0.0,0.0,0.0,0.0,0.0,0.0,0.0,0.0,0.0,0.0,0.0,0.0,0.0,0.0,0.0,0.0,0.0,0.0,0.0,-2.7063,-2.837,-2.9227,-2.9182,-2.8992,-2.8645,-2.7947,-2.6816,-2.5839,-2.5074,0.0,0.0,0.0,0.0,0.0,0.0,0.0,0.0,0.0,0.0,0.0,0.0,0.0,0.0,0.0,0.0,0.0,0.0,0.0,0.0,0.0,0.0,0.0,0.0,0.0,0.0,0.0,0.0,0.0,0.0,0.0,0.0,0.0,0.0,0.0,0.0,0.0,0.0,0.0,0.0,0.0,0.0,0.0,0.0,0.0,0.0,0.0,0.0,0.0,0.0,0.0,0.0,0.0,0.0,0.0,0.0,0.0,0.0,0.0,0.0,0.0,0.0,0.0,0.0,0.0,0.0,0.0,0.0,0.0,0.0,0.0,0.0,0.0,0.0,0.0,0.0,0.0,0.0,0.0,0.0,0.0,0.0,0.0,0.0,0.0,0.0,0.0,0.0,0.0,0.0,0.0,0.0,0.0,0.0,0.0,0.0,0.0,0.0,0.0,0.0,0.0,0.0,-2.645,-2.7767,-2.8638,-2.8511,-2.7938,-2.755,-2.7365,-2.5909,-2.4895,0.0,0.0,0.0,0.0,0.0,0.0,0.0,0.0,0.0,0.0,0.0,0.0,0.0,0.0,0.0,0.0,0.0,0.0,0.0,0.0,0.0,0.0,0.0,0.0,0.0,0.0,0.0,0.0,0.0,0.0,0.0,0.0,0.0,0.0,0.0,0.0,0.0,0.0,0.0,0.0,0.0,0.0,0.0,0.0,0.0,0.0,0.0,0.0,0.0,0.0,0.0,0.0,0.0,0.0,0.0,0.0,0.0,0.0,0.0,0.0,0.0,0.0,0.0,0.0,0.0,0.0,0.0,0.0,0.0,0.0,0.0,0.0,0.0,0.0,0.0,0.0,0.0,0.0,0.0,0.0,0.0,0.0,0.0,0.0,0.0,0.0,0.0,0.0,0.0,0.0,0.0,0.0,0.0,0.0,0.0,0.0,0.0,0.0,0.0,0.0,0.0,0.0,0.0,-2.6077,-2.733,-2.7987,-2.7498,-2.7222,-2.6625,-2.5637,-2.4897,-2.4253,-2.3775,0.0,0.0,0.0,0.0,0.0,0.0,0.0,0.0,0.0,0.0,0.0,0.0,0.0,0.0,0.0,0.0,0.0,0.0,0.0,0.0,0.0,0.0,0.0,0.0,0.0,0.0,0.0,0.0,0.0,0.0,0.0,0.0,0.0,0.0,0.0,0.0,0.0,0.0,0.0,0.0,0.0,0.0,0.0,0.0,0.0,0.0,0.0,0.0,0.0,0.0,0.0,0.0,0.0,0.0,0.0,0.0,0.0,0.0,0.0,0.0,0.0,0.0,0.0,0.0,0.0,0.0,0.0,0.0,0.0,0.0,0.0,0.0,0.0,0.0,0.0,0.0,0.0,0.0,0.0,0.0,0.0,0.0,0.0,0.0,0.0,0.0,0.0,0.0,0.0,0.0,0.0,0.0,0.0,0.0,0.0,0.0,0.0,0.0,0.0,0.0,0.0,0.0,-2.5742,-2.6784,-2.7297,-2.6874,-2.6266,-2.5511,-2.4687,-2.4044,-2.3526,-2.2993,0.0,0.0,0.0,0.0,0.0,0.0,0.0,0.0,0.0,0.0,0.0,0.0,0.0,0.0,0.0,0.0,0.0,0.0,0.0,0.0,0.0,0.0,0.0,0.0,0.0,0.0,0.0,0.0,0.0,0.0,0.0,0.0,0.0,0.0,0.0,0.0,0.0,0.0,0.0,0.0,0.0,0.0,0.0,0.0,0.0,0.0,0.0,0.0,0.0,0.0,0.0,0.0,0.0,0.0,0.0,0.0,0.0,0.0,0.0,0.0,0.0,0.0,0.0,0.0,0.0,0.0,0.0,0.0,0.0,0.0,0.0,0.0,0.0,0.0,0.0,0.0,0.0,0.0,0.0,0.0,0.0,0.0,0.0,0.0,0.0,0.0,0.0,0.0,0.0,0.0,0.0,0.0,0.0,0.0,0.0,0.0,0.0,0.0,0.0,0.0,0.0,0.0,-2.5388,-2.6093,-2.6467,-2.6374,-2.522,-2.4325,-2.4131,-2.3289,-2.2644,-2.2309,0.0,0.0,0.0,0.0,0.0,0.0,0.0,0.0,0.0,0.0,0.0,0.0,0.0,0.0,0.0,0.0,0.0,0.0,0.0,0.0,0.0,0.0,0.0,0.0,0.0,0.0,0.0,0.0,0.0,0.0,0.0,0.0,0.0,0.0,0.0,0.0,0.0,0.0,0.0,0.0,0.0,0.0,0.0,0.0,0.0,0.0,0.0,0.0,0.0,0.0,0.0,0.0,0.0,0.0,0.0,0.0,0.0,0.0,0.0,0.0,-2.8544,-2.8493,0.0,0.0,0.0,0.0,0.0,0.0,0.0,0.0,0.0,0.0,0.0,0.0,0.0,0.0,0.0,0.0,0.0,0.0,0.0,0.0,0.0,0.0,0.0,0.0,0.0,0.0,0.0,0.0,0.0,0.0,0.0,0.0,0.0,0.0,0.0,0.0,0.0,0.0,0.0,0.0,-2.464,-2.528,-2.5379,-2.4687,-2.4195,-2.3603,-2.2873,-2.2228,-2.1792,-2.162,-2.1246,0.0,0.0,0.0,0.0,0.0,0.0,0.0,0.0,0.0,0.0,0.0,0.0,0.0,0.0,0.0,0.0,0.0,0.0,0.0,0.0,0.0,0.0,0.0,0.0,0.0,0.0,0.0,0.0,0.0,0.0,0.0,0.0,0.0,0.0,0.0,0.0,0.0,0.0,0.0,0.0,0.0,0.0,0.0,0.0,0.0,0.0,0.0,0.0,0.0,0.0,0.0,0.0,0.0,0.0,0.0,0.0,0.0,0.0,0.0,-2.947,-2.9245,0.0,0.0,0.0,0.0,0.0,0.0,0.0,0.0,0.0,0.0,0.0,0.0,0.0,0.0,0.0,0.0,0.0,0.0,0.0,0.0,0.0,0.0,0.0,0.0,0.0,0.0,0.0,0.0,0.0,0.0,0.0,0.0,0.0,0.0,0.0,0.0,0.0,0.0,0.0,0.0,-2.4631,-2.464,-2.4429,-2.3985,-2.3349,-2.2752,-2.2235,-2.1727,-2.1302,-2.1124,-2.0799,0.0,0.0,0.0,0.0,0.0,0.0,0.0,0.0,0.0,0.0,0.0,0.0,0.0,0.0,0.0,0.0,0.0,0.0,0.0,0.0,0.0,0.0,0.0,0.0,0.0,0.0,0.0,0.0,0.0,0.0,0.0,0.0,0.0,0.0,0.0,0.0,0.0,0.0,0.0,0.0,0.0,0.0,0.0,0.0,0.0,0.0,0.0,0.0,0.0,0.0,0.0,0.0,0.0,-3.097,-3.0637,-3.0561,-3.0561,-3.0615,-3.0653,-2.9972,-2.9663,-2.9661,-2.9377,0.0,0.0,0.0,0.0,0.0,0.0,0.0,0.0,0.0,0.0,0.0,0.0,0.0,0.0,0.0,0.0,0.0,0.0,0.0,0.0,0.0,0.0,-2.5512,-2.5631,-2.5585,-2.5654,-2.5994,0.0,0.0,0.0,0.0,0.0,0.0,0.0,0.0,0.0,0.0,0.0,-2.4636,-2.4038,-2.3507,-2.332,-2.2526,-2.1955,-2.1757,-2.1322,-2.0908,-2.0669,-2.0425,-1.9925,0.0,0.0,0.0,0.0,0.0,0.0,0.0,0.0,0.0,0.0,0.0,0.0,0.0,0.0,0.0,0.0,0.0,0.0,0.0,0.0,0.0,0.0,0.0,0.0,0.0,0.0,0.0,0.0,0.0,0.0,0.0,0.0,-2.4209,-2.5232,0.0,0.0,0.0,0.0,0.0,0.0,0.0,0.0,0.0,0.0,0.0,0.0,0.0,-3.1681,-3.3131,-3.3025,-3.3017,-3.3119,-3.3017,-3.2628,-3.2026,-3.2026,-3.1962,-3.184,-3.164,0.0,-3.1793,-3.0878,0.0,0.0,0.0,0.0,0.0,0.0,0.0,0.0,0.0,0.0,0.0,0.0,0.0,0.0,0.0,0.0,0.0,0.0,0.0,0.0,0.0,0.0,-2.5457,-2.6069,-2.6576,-2.6952,-2.7006,-2.6393,-2.5898,-2.5973,-2.5933,-2.5667,0.0,0.0,0.0,0.0,0.0,0.0,-2.3461,-2.3243,-2.2808,-2.1799,-2.1467,-2.1189,-2.0808,-2.0488,-2.027,-2.013,-1.9977,-1.9554,-1.8875,-1.8842,0.0,0.0,0.0,0.0,0.0,0.0,0.0,0.0,0.0,0.0,0.0,0.0,0.0,0.0,0.0,0.0,0.0,0.0,0.0,0.0,0.0,0.0,0.0,0.0,0.0,0.0,0.0,0.0,0.0,-2.5005,-2.6248,-2.7251,-2.7842,-2.8346,0.0,0.0,0.0,0.0,0.0,0.0,0.0,0.0,0.0,-3.2718,-3.2587,-3.2991,-3.41,-3.4058,-3.4235,-3.4641,-3.4218,-3.3846,-3.3508,-3.3043,-3.2732,-3.2638,-3.2752,-3.2845,-3.2734,-3.1973,-3.1457,-3.114,0.0,0.0,0.0,0.0,-2.8618,-2.8336,-2.8144,-2.7777,-2.7403,-2.7118,0.0,0.0,0.0,0.0,0.0,0.0,0.0,-2.4869,-2.5342,-2.539,-2.5446,-2.5727,-2.5911,-2.6189,-2.7029,-2.6763,-2.6553,-2.7187,-2.6938,-2.6477,-2.5856,-2.5336,0.0,0.0,0.0,-2.3835,-2.3675,-2.2852,-2.2133,-2.1595,-2.1077,-2.0657,-2.0499,-2.0218,-2.0055,-1.9977,-1.9809,-1.95,-1.9137,-1.9008,-1.8553,0.0,0.0,0.0,0.0,0.0,0.0,0.0,0.0,0.0,0.0,0.0,0.0,0.0,0.0,0.0,0.0,0.0,0.0,0.0,0.0,0.0,0.0,0.0,0.0,0.0,0.0,0.0,0.0,-2.6675,-2.7875,-2.9088,-2.9814,-3.0274,0.0,0.0,0.0,0.0,0.0,0.0,-3.2595,-3.2331,-3.2718,-3.3936,-3.3761,-3.4032,-3.4776,-3.4749,-3.5036,-3.5577,-3.4975,-3.456,-3.4358,-3.3671,-3.3245,-3.3145,-3.3343,-3.3339,-3.3193,-3.264,-3.2206,-3.1887,-3.1484,-3.1011,-3.0469,-3.0299,-3.0,-2.9625,-2.9348,-2.8955,-2.8382,-2.8017,-2.7245,-2.6397,-2.6486,0.0,0.0,0.0,0.0,-2.4984,-2.5242,-2.5186,-2.5063,-2.5063,-2.5043,-2.5347,-2.6584,-2.6816,-2.706,-2.7959,-2.7695,-2.7159,-2.6538,-2.5809,0.0,-2.5106,-2.4258,-2.3689,-2.3797,-2.2776,-2.1917,-2.1556,-2.089,-2.0468,-2.0271,-2.0053,-1.9911,-1.9886,-1.9666,-1.9405,-1.9247,-1.8946,-1.8478,-1.7827,0.0,0.0,0.0,0.0,0.0,0.0,0.0,0.0,0.0,0.0,0.0,0.0,0.0,0.0,0.0,0.0,0.0,0.0,0.0,0.0,0.0,0.0,0.0,0.0,0.0,0.0,0.0,0.0,0.0,-2.992,-3.0243,0.0,0.0,0.0,0.0,-3.2126,-3.3347,-3.4046,-3.3938,-3.3722,-3.3936,-3.4644,-3.4498,-3.4793,-3.5554,-3.5453,-3.5458,-3.5492,-3.5211,-3.4688,-3.4022,-3.3852,-3.3634,-3.3352,-3.3113,-3.3123,-3.3235,-3.2644,-3.2257,-3.1903,-3.082,-3.0195,-2.9894,-2.9627,-2.9773,-2.9999,-2.945,-2.8964,-2.8531,-2.8043,-2.7155,-2.6193,-2.6193,-2.6214,0.0,0.0,-2.5627,-2.5071,-2.5097,-2.4642,-2.4176,-2.4176,-2.4623,-2.5153,-2.5743,-2.6306,-2.7006,-2.792,-2.8077,-2.7856,-2.7161,0.0,-2.5966,-2.559,-2.4905,-2.412,-2.3191,-2.2979,-2.2433,-2.1088,-2.0923,-2.0579,-1.9888,-1.9701,-1.9645,-1.9614,-1.9364,-1.91,-1.8851,-1.8506,-1.8104,-1.7545,-1.7633,0.0,0.0,0.0,0.0,0.0,0.0,0.0,0.0,0.0,0.0,0.0,0.0,0.0,0.0,0.0,0.0,0.0,0.0,0.0,0.0,0.0,0.0,0.0,0.0,0.0,0.0,0.0,0.0,-3.1305,-3.1916,0.0,-3.2791,-3.335,-3.3628,-3.3462,-3.3809,-3.4203,-3.4603,-3.4472,-3.4644,-3.5409,-3.525,-3.5296,-3.552,-3.5337,-3.5198,-3.5088,-3.4947,-3.4671,-3.4312,-3.4072,-3.3876,-3.3678,-3.3227,-3.2956,-3.2803,-3.2354,-3.2153,-3.2067,-3.1564,-3.1197,-3.0889,-3.0565,-3.0367,-3.0174,-2.9693,-2.908,-2.8515,-2.7733,-2.721,-2.6857,-2.6426,-2.6424,-2.6382,-2.589,-2.5579,-2.527,-2.4783,-2.449,-2.4185,-2.387,-2.3901,-2.415,-2.4826,-2.5344,-2.591,-2.6724,-2.7351,-2.7533,-2.692,-2.6591,-2.6069,-2.5148,-2.4706,-2.4116,-2.3354,-2.2854,-2.238,-2.1845,-2.1375,-2.0876,-2.0318,-1.9998,-1.9703,-1.934,-1.8893,-1.8518,-1.8387,-1.7776,-1.7346,-1.7032,-1.6909,-1.6797,0.0,0.0,0.0,0.0,0.0,0.0,0.0,0.0,0.0,0.0,0.0,0.0,0.0,0.0,0.0,0.0,0.0,0.0,0.0,0.0,0.0,0.0,0.0,0.0,0.0,-3.0128,-3.1548,-3.2605,-3.3217,-3.372,-3.4125,-3.4402,-3.4461,-3.4301,-3.4435,-3.4728,-3.5181,-3.5086,-3.5237,-3.5684,-3.5537,-3.54,-3.5291,-3.4994,-3.4739,-3.4643,-3.4333,-3.4134,-3.4068,-3.3764,-3.361,-3.3455,-3.3018,-3.2641,-3.2398,-3.1966,-3.1796,-3.1796,-3.1682,-3.1452,-3.1146,-3.0718,-3.0297,-2.9884,-2.9198,-2.8573,-2.7987,-2.7323,-2.7066,-2.6934,-2.6563,-2.6501,-2.6464,-2.596,-2.5717,-2.5371,-2.4709,-2.4429,-2.4149,-2.3577,-2.339,-2.3482,-2.4162,-2.4519,-2.5001,-2.5815,-2.6747,-2.7206,-2.6817,-2.6583,-2.6091,-2.4974,-2.4542,-2.4063,-2.3356,-2.2795,-2.2431,-2.2152,-2.1665,-2.12,-2.0673,-2.0265,-1.9832,-1.9234,-1.8588,-1.8123,-1.7722,-1.7112,-1.6684,-1.6524,-1.6382,-1.6547,-1.7111,0.0,0.0,0.0,0.0,0.0,0.0,0.0,0.0,0.0,0.0,0.0,0.0,0.0,0.0,0.0,0.0,0.0,0.0,0.0,0.0,0.0,0.0,0.0,-3.1542,-3.1688,-3.2328,-3.3864,-3.4054,-3.4031,-3.3962,-3.4614,-3.4959,-3.4763,-3.5382,-3.5728,-3.5622,-3.5622,-3.5594,-3.5492,-3.5354,-3.5152,-3.4899,-3.4497,-3.4201,-3.405,-3.3455,-3.3193,-3.3193,-3.2911,-3.2695,-3.2602,-3.2437,-3.2247,-3.194,-3.161,-3.1248,-3.097,-3.097,-3.0792,-3.0478,-2.9964,-2.9518,-2.9052,-2.8038,-2.7391,-2.6921,-2.6756,-2.6564,-2.6508,-2.6521,-2.6533,-2.6533,-2.6533,-2.605,-2.5498,-2.4958,-2.4418,-2.3879,-2.3276,-2.3078,-2.3288,-2.3853,-2.3991,-2.4305,-2.5347,-2.6295,-2.693,-2.6943,-2.647,-2.5841,-2.5212,-2.4582,0.0,-2.3017,-2.287,-2.2577,-2.1874,-2.1774,-2.151,-2.0831,-2.0461,-1.9935,-1.9169,-1.8508,-1.7838,-1.7076,-1.6555,-1.6212,-1.5914,-1.6178,-1.6789,-1.7668,0.0,0.0,0.0,0.0,0.0,0.0,0.0,0.0,0.0,0.0,0.0,0.0,0.0,0.0,0.0,0.0,0.0,0.0,0.0,0.0,0.0,-2.9857,-3.0855,-3.1252,-3.2366,-3.3528,-3.4521,-3.4641,-3.4822,-3.5241,-3.5436,-3.5511,-3.5362,-3.5565,-3.5622,-3.5622,-3.5622,-3.5594,-3.5492,-3.5198,-3.4899,-3.4594,-3.4,-3.3575,-3.3319,-3.2964,-3.2711,-3.2602,-3.2437,-3.2342,-3.2287,-3.1879,-3.1724,-3.161,-3.1161,-3.0807,-3.0493,-3.0493,-3.0038,-2.9383,-2.8717,-2.781,-2.6774,-2.6205,-2.5833,-2.5637,-2.5832,-2.5892,-2.5912,-2.6395,-2.6533,-2.6533,-2.6533,-2.6352,-2.6,-2.5059,-2.4707,-2.4343,-2.3315,-2.3078,-2.3175,-2.3339,-2.3567,-2.3879,-2.4178,-2.4868,-2.5636,-2.6526,-2.6408,-2.584,-2.4909,-2.4347,-2.3715,-2.2676,-2.2433,-2.231,-2.2115,-2.1862,-2.1509,-2.0894,-2.0325,-1.9742,-1.9166,-1.842,-1.7885,-1.7687,-1.7093,-1.6675,-1.6491,-1.6671,-1.6914,0.0,0.0,0.0,0.0,0.0,0.0,0.0,0.0,0.0,0.0,0.0,0.0,0.0,0.0,0.0,0.0,0.0,0.0,0.0,0.0,0.0,0.0,-3.0445,-3.1407,-3.2024,-3.3161,-3.4262,-3.506,-3.5171,-3.5341,-3.5677,-3.5728,-3.5667,-3.5622,-3.5622,-3.5577,-3.5549,-3.5549,-3.5412,-3.5198,-3.4851,-3.4448,-3.4,-3.3419,-3.298,-3.2641,-3.2398,-3.2247,-3.2135,-3.1981,-3.1868,-3.1796,-3.1437,-3.1263,-3.1087,-3.0613,-3.0047,-2.9562,0.0,0.0,0.0,0.0,-2.6387,-2.5497,-2.5307,-2.5116,-2.4987,-2.5172,-2.5423,-2.5661,-2.6,-2.6264,-2.6533,-2.6533,-2.6533,-2.6201,-2.5043,-2.4703,-2.4416,-2.3096,-2.2836,-2.2775,-2.2726,-2.2911,-2.3131,-2.3276,-2.3632,0.0,-2.5281,-2.5644,-2.544,-2.4278,-2.3941,-2.3328,-2.2013,-2.1779,-2.1722,-2.1533,-2.1342,-2.1092,-2.0744,-2.0187,0.0,0.0,0.0,-1.778,-1.7409,-1.7034,0.0,0.0,0.0,0.0,0.0,0.0,0.0,0.0,-2.0304,-2.0715,0.0,0.0,0.0,0.0,0.0,0.0,0.0,0.0,0.0,0.0,0.0,0.0,0.0,0.0,0.0,0.0,-3.0814,-3.2445,-3.3159,-3.3802,-3.4477,-3.5273,-3.5414,-3.5504,-3.5504,-3.5571,-3.5577,-3.5577,-3.5577,-3.5549,-3.5446,-3.5446,0.0,0.0,0.0,-3.3899,-3.324,-3.278,-3.2453,-3.2135,-3.1883,-3.1784,-3.1727,-3.1597,-3.1409,-3.1219,-3.1029,-3.0732,-3.0447,-2.986,-2.9007,-2.8102,-2.8256,-2.7939,-2.7193,-2.5861,-2.5165,-2.4862,-2.4862,0.0,0.0,-2.4643,-2.4968,-2.5369,-2.5494,-2.5882,-2.6308,-2.6371,-2.6346,-2.599,-2.4834,-2.4459,-2.402,-2.2663,-2.2359,-2.2297,-2.2185,-2.2123,-2.2181,-2.2484,-2.2486,-2.2763,-2.3489,-2.4434,-2.467,-2.3595,-2.3306,-2.2649,-2.1168,-2.0944,-2.0823,-2.0544,-2.0468,0.0,-2.0325,-1.9921,-1.9413,-1.8774,-1.8206,-1.7646,-1.6894,-1.6875,-1.7061,-1.7451,-1.7451,-1.7703,-1.8269,-1.8755,-1.9124,-1.9514,-2.0576,-2.0824,0.0,0.0,0.0,0.0,0.0,0.0,0.0,0.0,0.0,0.0,0.0,0.0,0.0,0.0,0.0,-2.9684,-3.1092,-3.2162,-3.2524,-3.3048,-3.3667,-3.441,-3.4621,-3.4709,-3.4709,-3.5267,-3.5594,-3.552,-3.5537,-3.5429,-3.5198,-3.5088,-3.4804,-3.4399,-3.4,-3.3523,-3.2911,-3.2492,-3.215,-3.1898,-3.1655,0.0,-3.1539,-3.1409,-3.1219,-3.1029,-3.0613,-3.0251,-2.9889,-2.8781,-2.7312,-2.5674,-2.5842,-2.5554,-2.5013,-2.4154,-2.3707,-2.3525,-2.3525,-2.3452,-2.3466,-2.3804,-2.3952,-2.4201,-2.4737,-2.5025,0.0,-2.5472,-2.5232,-2.4828,-2.4038,-2.3477,-2.2867,-2.2169,-2.1877,-2.1753,-2.169,-2.1514,-2.136,-2.1377,-2.1334,-2.133,-2.1498,-2.248,-2.3202,-2.2897,-2.2066,-2.1138,-2.0391,-2.0063,-1.9863,-1.9828,-1.9645,-1.953,-1.9498,-1.9193,-1.89,-1.8818,-1.8409,-1.8111,-1.7764,-1.7764,-1.7803,-1.7881,-1.7891,-1.793,-1.8076,-1.885,-1.9232,-1.9397,-2.0216,-2.0629,0.0,0.0,0.0,0.0,0.0,0.0,0.0,0.0,0.0,0.0,0.0,-2.404,-2.5379,0.0,-2.7742,-2.9176,-3.0186,-3.0986,-3.1517,-3.1823,-3.2311,-3.3222,-3.3495,-3.3717,-3.4102,-3.4471,-3.4827,-3.5165,-3.5152,-3.4994,-3.4691,-3.4546,-3.4234,-3.3646,-3.3403,-3.298,-3.2398,-3.215,-3.1883,-3.167,-3.1539,-3.1467,-3.1409,-3.1219,-3.097,-3.0613,-3.0144,-2.9468,-2.8643,-2.6999,-2.5678,-2.458,-2.4369,-2.4159,-2.3892,-2.3432,-2.3198,-2.3078,-2.3017,-2.3017,-2.3007,-2.3047,-2.318,-2.3423,-2.37,-2.3917,-2.4046,-2.4241,-2.4133,-2.3756,-2.3022,-2.2615,-2.2092,-2.1238,-2.0921,-2.0794,-2.0613,-2.0495,-2.0302,-2.0215,-2.0129,-2.0157,-2.0311,-2.0617,-2.0902,-2.1375,-2.0909,-2.0275,-1.9519,-1.9297,-1.9147,-1.9094,-1.8944,-1.893,-1.889,-1.8704,-1.8539,-1.8414,-1.8269,-1.8076,-1.8008,-1.8008,-1.8008,-1.8008,-1.8008,-1.8008,-1.8008,-1.8652,-1.9072,-1.9297,-1.995,-2.0416,0.0,0.0,0.0,0.0,0.0,0.0,0.0,-1.9776,-2.0982,-2.2263,-2.3404,-2.4354,-2.5121,-2.6199,-2.7267,-2.83,-2.9103,-2.979,-3.0344,-3.0432,-3.0764,-3.157,-3.2114,-3.2718,-3.3462,-3.3644,-3.3994,-3.469,-3.4643,-3.4448,-3.4084,-3.3984,-3.3594,-3.2895,-3.2734,-3.2437,-3.194,-3.1826,-3.1655,-3.1467,-3.1424,-3.1292,-3.1161,-3.0911,-3.0613,-3.0129,-2.94,-2.8304,-2.6934,-2.5301,-2.4372,-2.3925,-2.3508,-2.3283,-2.3283,-2.3138,-2.3078,-2.3078,-2.2969,-2.2848,-2.2787,-2.2347,-2.2438,-2.2671,-2.2433,-2.2566,-2.2861,-2.2887,-2.2773,-2.2532,-2.1875,-2.1561,-2.1194,-2.0194,-1.9901,-1.9846,-1.9539,-1.9473,-1.9407,-1.9233,-1.9125,-1.9173,-1.9472,-1.9024,-1.8941,-1.9815,-1.9813,-1.9504,-1.8809,-1.8662,-1.8564,-1.8388,-1.8407,-1.8377,-1.8414,-1.8279,-1.8134,-1.8008,-1.8008,-1.8008,-1.8008,-1.8008,-1.8008,-1.8008,-1.8008,-1.8008,-1.8008,-1.8428,-1.8818,-1.918,-1.9678,-2.0146,-0.8212,-1.0555,-1.2995,-1.4625,-1.6208,-1.7734,0.0,-2.0373,-2.1703,-2.2515,-2.3563,-2.4486,-2.512,-2.6231,-2.7293,-2.7896,-2.8896,-2.9493,-2.924,-2.9427,-2.9461,-2.9171,-3.0513,-3.1736,-3.2413,-3.3036,-3.363,-3.4136,-3.4201,-3.3933,-3.3335,-3.323,-3.2895,-3.2492,-3.2342,-3.2135,-3.1841,-3.1625,-3.1437,-3.1351,-3.0999,-3.0881,-3.0821,-3.0372,-3.0021,-2.9574,-2.8003,-2.639,-2.4813,-2.4425,-2.3837,-2.3226,-2.3055,-2.2969,-2.2969,-2.3078,-2.3078,-2.3078,-2.2969,-2.28,-2.2616,-2.1889,-2.1675,-2.1499,-2.1218,-2.1118,-2.1184,-2.1337,-2.1015,-2.0611,-2.049,-2.0034,-1.9571,-1.9441,-1.932,-1.9198,-1.9131,-1.9008,-1.8854,-1.887,-1.8633,-1.8432,-1.8429,-1.8267,-1.8419,-1.9453,-1.8962,-1.8446,-1.8368,-1.8193,-1.8095,-1.8095,-1.8086,-1.8076,-1.8076,-1.8008,-1.8008,-1.8008,-1.8008,-1.8008,-1.8008,-1.8008,-1.8008,-1.8008,-1.8008,-1.8008,-1.8008,-1.8428,-1.8662,-1.873,-1.9541,-2.0146,-0.8157,-1.0275,-1.222,-1.3838,-1.5566,-1.7186,-1.8449,-1.9957,-2.1296,-2.2198,-2.3175,-2.4073,-2.4694,-2.5702,-2.6603,-2.7128,-2.7906,-2.8426,-2.8293,-2.8549,-2.8639,-2.8556,-2.9234,-3.0098,-3.0988,-3.163,-3.2237,-3.2854,-3.3061,-3.3071,-3.2765,-3.2602,-3.2398,-3.2038,-3.1996,-3.1826,-3.1539,-3.1321,-3.1087,-3.0866,-3.0628,-3.0387,-3.0068,-2.9808,-2.9053,-2.799,-2.6311,-2.5071,-2.43,-2.3786,-2.3399,-2.3078,-2.2969,-2.2848,-2.28,-2.2726,-2.2714,-2.2665,-2.2347,-2.2099,-2.1839,-2.1123,-2.0741,-2.0388,-2.0062,-1.9927,-1.9846,-1.9912,-1.976,-1.9546,-1.9479,-1.9199,-1.8988,-1.8787,-1.8664,-1.8607,-1.8472,-1.8405,-1.8337,-1.8307,-1.8192,-1.8124,-1.8133,-1.8037,-1.8164,-1.8553,-1.832,-1.8115,-1.8115,-1.8027,-1.8008,-1.8008,-1.8008,-1.8008,-1.8008,-1.8008,-1.8008,-1.8008,-1.8008,-1.794,-1.7862,-1.7862,-1.7716,-1.752,-1.752,-1.7451,-1.7392,-1.7622,-1.7891,-1.8147,-1.8976,-1.9645,-0.788,-0.9674,-1.1207,-1.2848,-1.4653,-1.6366,-1.7651,-1.9072,-2.0445,-2.1305,-2.2369,-2.3255,-2.3997,-2.4925,-2.5825,-2.651,-2.7115,-2.7488,-2.774,-2.794,-2.8088,-2.825,-2.8396,-2.8852,-2.9876,-3.055,-3.1174,-3.181,-3.2214,-3.2398,-3.2247,-3.215,-3.1996,-3.1727,-3.1727,-3.1597,-3.1278,-3.1043,-3.0747,-3.0447,-3.0068,-2.9685,-2.9296,-2.8815,-2.7755,-2.6264,-2.4993,-2.4236,-2.3862,-2.3301,-2.3017,-2.3017,-2.2714,-2.2531,-2.2347,-2.1963,-2.2025,-2.2211,-2.1714,-2.1388,-2.1135,-2.0431,-1.9977,-1.9573,-1.9177,-1.8988,-1.8875,-1.8808,-1.8808,-1.8741,-1.8607,-1.8607,-1.8539,-1.8269,-1.8212,-1.8212,-1.8008,-1.8008,-1.8008,-1.8008,-1.8008,-1.8008,-1.8008,-1.8008,-1.8008,-1.8008,-1.8008,-1.8008,-1.8008,-1.794,-1.794,-1.794,-1.7872,-1.7872,-1.7872,-1.7872,-1.7872,-1.7803,-1.7803,-1.7657,-1.751,-1.7432,-1.7295,-1.7028,-1.695,-1.689,-1.6751,-1.689,-1.7162,-1.7639,-1.8356,-1.8928,-0.6731,-0.8492,-1.0221,-1.1768,-1.3717,-1.5529,-1.6687,-1.7969,-1.9059,-1.9924,-2.0984,-2.2043,-2.2967,-2.4023,-2.5119,-2.6283,-2.6817,-2.7144,-2.7524,-2.7625,-2.774,-2.7955,-2.802,-2.8377,-2.935,-3.0165,-3.083,-3.1389,-3.1919,-3.2094,-3.1841,-3.1784,-3.1727,-3.1539,-3.1539,-3.1409,-3.1278,-3.0866,-3.0447,-3.0129,-2.9233,-2.8739,-2.8454,-2.7324,-2.5946,-2.4561,-2.4338,-2.3824,-2.3103,-2.2969,-2.2909,-2.2848,-2.2199,-2.1815,-2.1553,-2.0741,-2.106,-2.1815,-2.1313,-2.1019,-2.0775,-1.9933,-1.9452,-1.9177,-1.8529,-1.8337,-1.8269,-1.8076,-1.8008,-1.8008,-1.8008,-1.8008,-1.8008,-1.8008,-1.8008,-1.8008,-1.8008,-1.8008,-1.8008,-1.8008,-1.8008,-1.8008,-1.8008,-1.8008,-1.8008,-1.8008,-1.8008,-1.8008,-1.8008,-1.7862,-1.7706,-1.7706,-1.7588,-1.7539,-1.7539,-1.7539,-1.7461,-1.7235,-1.7235,-1.7107,-1.6908,-1.6751,-1.6603,-1.6603,-1.6446,-1.6306,-1.6306,-1.6306,-1.666,-1.7234,-1.7622,-1.817,-0.5356,-0.6929,-0.8417,-0.9911,-1.1542,-1.3197,-1.4656,-1.6038,-1.7344,-1.8583,-1.9864,-2.1086,-2.2209,-2.3385,-2.4586,-2.5918,-2.6606,-2.7107,-2.7437,-2.7524,-2.7675,-2.784,-2.8233,-2.8697,-2.9093,-2.977,-3.0479,-3.1097,-3.149,-3.1712,-3.1597,-3.1597,-3.1597,-3.1482,-3.1409,-3.1234,-3.0999,-3.0372,-2.961,-2.8697,-2.7355,-2.6665,-2.6525,-2.5508,-2.4794,-2.43,-2.3687,-2.3301,-2.3078,-2.2969,-2.2848,-2.2678,-2.2013,-2.1502,-2.1187,-2.0291,-2.0161,-2.0302,-2.002,-1.9835,-1.9594,-1.9075,-1.8741,-1.8596,-1.8202,-1.8076,-1.8076,-1.8008,-1.8008,-1.8008,-1.8008,-1.8008,-1.8008,-1.8008,-1.8008,-1.8008,-1.8008,-1.8008,-1.8008,-1.8008,-1.8008,-1.8008,-1.8008,-1.8008,-1.8008,-1.8008,-1.8008,-1.8008,-1.8008,-1.7784,-1.7647,-1.7588,-1.7382,-1.7245,-1.7116,-1.7116,-1.7047,-1.6811,-1.6811,-1.6603,-1.6193,-1.6114,-1.5824,-1.5313,-1.5242,-1.5037,-1.4832,-1.5037,-1.5361,-1.5814,-1.6788,-1.7395,-0.3812,-0.5284,-0.6842,-0.8143,-0.9626,-1.1226,-1.2739,-1.4127,-1.5515,-1.7026,-1.8427,-1.9819,-2.1412,-2.2678,-2.4025,-2.5617,-2.6433,-2.6974,-2.735,-2.7539,-2.7625,-2.779,-2.8378,-2.8927,-2.934,-2.991,-3.0416,-3.084,-3.1264,-3.1482,-3.1482,-3.1467,-3.1409,-3.1409,-3.1234,-3.0881,-3.0308,-2.9679,-2.8622,-2.7153,-2.5968,-2.5255,-2.4987,-2.4367,-2.4026,-2.375,-2.3288,-2.3017,-2.3017,-2.2653,-2.2469,-2.2223,-2.1376,-2.0869,-2.0495,-1.9649,-1.9264,-1.9131,-1.9121,-1.9054,-1.8942,-1.8549,-1.8337,-1.8269,-1.8076,-1.8008,-1.8008,-1.8008,-1.8008,-1.8008,-1.8008,-1.8008,-1.8008,-1.8008,-1.8008,-1.8008,-1.8008,-1.8008,-1.8008,-1.792,-1.791,-1.7833,-1.7736,-1.7638,-1.7608,-1.7627,-1.7608,-1.7666,-1.7862,-1.7647,-1.7442,-1.7176,-1.6968,-1.6691,-1.6412,-1.6412,-1.6263,-1.5886,-1.5886,-1.5683,-1.5196,-1.5117,-1.4832,-1.4322,-1.4258,-1.4122,-1.392,-1.4122,-1.4498,-1.5031,-1.5783,-1.6464,-0.2169,-0.3739,-0.5372,-0.6341,-0.7926,-0.9588,-1.1071,-1.2332,-1.3633,-1.5216,-1.6701,-1.8391,-2.0487,-2.1927,-2.3454,-2.5494,-2.619,-2.6736,-2.7299,-2.7539,-2.7675,-2.779,-2.8378,-2.9146,-2.9932,-3.0422,-3.0689,-3.0689,-3.1207,-3.1467,-3.1422,-3.1291,-3.1218,-3.1188,-3.0837,-3.0249,-2.9333,-2.8651,-2.7373,-2.5534,-2.5179,-2.4634,-2.3954,-2.3954,-2.3653,-2.3078,-2.2969,-2.2848,-2.2787,-2.2137,-2.1753,-2.1491,-2.0484,-1.9857,-1.9473,-1.8741,-1.8414,-1.8337,-1.8674,-1.8741,-1.8674,-1.8405,-1.8269,-1.8269,-1.8076,-1.8008,-1.8008,-1.8008,-1.8008,-1.8008,-1.8008,-1.794,-1.794,-1.794,-1.794,-1.794,-1.793,-1.793,-1.791,-1.7736,-1.7677,-1.7522,-1.7232,-1.6973,-1.6857,-1.6833,-1.6866,-1.7038,-1.7569,-1.7373,-1.7028,-1.6603,-1.6263,-1.5921,-1.5497,-1.5426,-1.5204,-1.4601,-1.4609,-1.4402,-1.4057,-1.3833,-1.376,-1.376,-1.3557,-1.3419,-1.3419,-1.3419,-1.3895,-1.4754,-1.4754,-1.5264,-0.1339,-0.224,-0.3205,-0.4539,-0.5958,-0.7489,-0.9202,-1.076,-1.2428,-1.4326,-1.5846,-1.7513,-1.9784,-2.1319,-2.2828,-2.4689,-2.5851,-2.663,-2.7041,-2.7503,-2.774,-2.779,-2.8581,-2.9352,-2.9932,-3.0669,-3.0995,-3.0815,-3.1207,-3.13,-3.0791,-3.0607,-3.0342,-2.9907,-2.9388,-2.8843,-2.8382,-2.6731,-2.5472,-2.4529,-2.3938,-2.3489,-2.3351,-2.3351,-2.3215,-2.2969,-2.28,-2.2616,-2.2309,-2.1776,-2.1325,-2.1019,-2.0053,-1.9584,-1.9309,-1.8596,-1.8337,-1.8269,-1.8212,-1.8212,-1.8212,-1.8076,-1.8076,-1.8076,-1.8008,-1.8008,-1.794,-1.7784,-1.7784,-1.7716,-1.7666,-1.7608,-1.7608,-1.7608,-1.7491,-1.7366,-1.7396,-1.729,-1.7194,-1.7116,-1.6963,-1.6794,-1.6536,-1.6492,-1.6456,-1.6482,-1.6464,-1.6603,-1.7038,-1.676,-1.6403,-1.6044,-1.563,-1.5275,-1.4856,-1.4856,-1.4633,-1.4266,-1.4266,-1.3985,-1.3484,-1.3411,-1.3185,-1.2893,-1.2893,-1.2753,-1.2599,-1.2753,-1.3133,-1.381,-1.4216,-1.4721,-0.0727,-0.1509,-0.2287,-0.334,-0.4659,-0.6184,-0.7888,-0.967,-1.1524,-1.3593,-1.5168,-1.6963,-1.9529,-2.0981,-2.2522,-2.4592,-2.5728,-2.6578,-2.7093,-2.7604,-2.7955,-2.8054,-2.8817,-2.9469,-2.9817,-3.0477,-3.0823,-3.0578,-3.094,-3.0863,-3.0133,-2.9882,-2.9592,-2.9167,-2.8595,-2.7839,-2.692,-2.5322,-2.427,-2.3834,-2.3349,-2.3078,-2.3078,-2.3017,-2.2969,-2.2787,-2.2469,-2.2161,-2.1788,-2.1135,-2.0624,-2.0259,-1.9396,-1.8998,-1.8787,-1.8337,-1.8144,-1.8144,-1.8008,-1.794,-1.7862,-1.794,-1.8008,-1.8008,-1.8008,-1.8008,-1.794,-1.7784,-1.7706,-1.7647,-1.7451,-1.7392,-1.7323,-1.7176,-1.7051,-1.6917,-1.6821,-1.6738,-1.6565,-1.6477,-1.6059,-1.5671,-1.5563,-1.54,-1.5325,-1.533,-1.5321,-1.5401,-1.5621,-1.5842,-1.5771,-1.5196,-1.4911,-1.4489,-1.4065,-1.3992,-1.384,-1.347,-1.347,-1.3258,-1.282,-1.2826,-1.2673,-1.2452,-1.2452,-1.2378,-1.2305,-1.2378,-1.2763,-1.3351,-1.3673,-1.4086,-0.0336,-0.1288,-0.2125,-0.2738,-0.3953,-0.5473,-0.7135,-0.8924,-1.09,-1.3126,-1.4777,-1.6686,-1.9471,-2.0913,-2.2454,-2.4803,-2.5892,-2.6669,-2.7335,-2.7806,-2.8201,-2.8444,-2.9117,-2.9588,-2.9795,-3.0258,-3.0448,-3.0228,-3.0464,-3.0301,-2.9529,-2.9198,-2.888,-2.8557,-2.794,-2.6882,-2.5308,-2.436,-2.3641,-2.3343,-2.3198,-2.3078,-2.3078,-2.2909,-2.2787,-2.2555,-2.2013,-2.1577,-2.1135,-2.0355,-1.9781,-1.9407,-1.8741,-1.8414,-1.8269,-1.8076,-1.8008,-1.8008,-1.8008,-1.7862,-1.7706,-1.793,-1.794,-1.794,-1.794,-1.794,-1.7872,-1.7647,-1.7579,-1.7432,-1.7166,-1.7028,-1.689,-1.6524,-1.6383,-1.6321,-1.6104,-1.6016,-1.5878,-1.5638,-1.4969,-1.4479,-1.446,-1.4244,-1.403,-1.3992,-1.3985,-1.3985,-1.3985,-1.4713,-1.4991,-1.4274,-1.4057,-1.3768,-1.3193,-1.3193,-1.2973,-1.2599,-1.2599,-1.2526,-1.2305,-1.2305,-1.2305,-1.2305,-1.2305,-1.2305,-1.2305,-1.2305,-1.2612,-1.3213,-1.3213,-1.3527,-0.0056,-0.1176,-0.2181,-0.2627,-0.3788,-0.525,-0.7061,-0.8976,-1.095,-1.3339,-1.5109,-1.6973,-1.9529,-2.1126,-2.2758,-2.4776,-2.6133,-2.7137,-2.764,-2.822,-2.8653,-2.8779,-2.9277,-2.9763,-3.0322,-3.056,-3.0434,-2.9853,-2.9678,-2.9419,-2.8966,-2.8689,-2.7905,-2.6614,-2.5869,-2.5135,-2.4334,-2.3798,-2.339,-2.3138,-2.3138,-2.3017,-2.2909,-2.28,-2.2482,-2.2013,-2.1439,-2.0869,-2.0291,-1.9704,-1.9253,-1.8875,-1.8472,-1.8337,-1.8269,-1.8076,-1.8008,-1.8008,-1.8008,-1.7862,-1.7706,-1.7716,-1.7657,-1.7608,-1.7608,-1.7461,-1.7314,-1.7107,-1.683,-1.6473,-1.6342,-1.6061,-1.5762,-1.5694,-1.5337,-1.4965,-1.4927,-1.4684,-1.4426,-1.4187,-1.4005,-1.3917,-1.3704,-1.3674,-1.3572,-1.3564,-1.3564,-1.3564,-1.3411,-1.3768,-1.3985,-1.371,-1.3484,-1.3266,-1.2973,-1.2973,-1.2826,-1.2599,-1.2599,-1.2526,-1.2305,-1.2305,-1.2305,-1.2305,-1.2305,-1.2305,-1.2305,-1.2305,-1.2612,-1.3213,-1.3213,-1.3527,-0.0448,-0.1511,-0.2519,-0.2963,-0.4067,-0.5448,-0.7089,-0.9087,-1.1275,-1.3518,-1.5499,-1.7567,-1.9781,-2.1617,-2.3377,-2.5135,-2.6586,-2.7715,-2.8286,-2.8748,-2.915,-2.9467,-2.9853,-3.0217,-3.056,-3.0477,-3.0209,-2.9704,-2.92,-2.8728,-2.8308,-2.778,-2.7002,-2.5907,-2.523,-2.4607,-2.3982,-2.3582,-2.3271,-2.3078,-2.3017,-2.2909,-2.28,-2.2408,-2.2013,-2.1439,-2.0869,-2.0226,-1.9639,-1.9121,-1.8731,-1.8539,-1.8279,-1.8066,-1.7988,-1.7852,-1.7803,-1.7745,-1.7794,-1.7647,-1.7442,-1.7442,-1.7314,-1.7185,-1.7038,-1.6881,-1.6673,-1.6551,-1.6342,-1.6132,-1.57,-1.5488,-1.5259,-1.4838,-1.4419,-1.4024,-1.4014,-1.3803,-1.3601,-1.3542,-1.33,-1.3103,-1.3082,-1.2914,-1.29,-1.29,-1.29,-1.2826,-1.2746,-1.2886,-1.3032,-1.3046,-1.2973,-1.2826,-1.2599,-1.2599,-1.2526,-1.2452,-1.2452,-1.2378,-1.2305,-1.2305,-1.2305,-1.2305,-1.2305,-1.2305,-1.2305,-1.2305,-1.2532,-1.2973,-1.3133,-1.344,-0.1062,-0.2014,-0.2912,-0.3413,-0.4512,-0.5863,-0.7394,-0.959,-1.1936,-1.3988,-1.6219,-1.8379,-2.0398,-2.2293,-2.4077,-2.5815,-2.7179,-2.8326,-2.9118,-2.9524,-2.9876,-3.0293,-3.0518,-3.0757,-3.0814,-3.0568,-3.0172,-2.9705,-2.8889,-2.8204,-2.774,-2.7049,-2.6418,-2.5784,-2.5118,-2.4447,-2.3891,-2.3522,-2.3271,-2.3078,-2.2969,-2.2787,-2.2555,-2.2025,-2.1439,-2.0869,-2.0226,-1.9639,-1.911,-1.8674,-1.8347,-1.8202,-1.7998,-1.7794,-1.7647,-1.7638,-1.752,-1.7392,-1.751,-1.7304,-1.7028,-1.6959,-1.683,-1.6691,-1.6473,-1.6175,-1.5877,-1.5833,-1.57,-1.5488,-1.5054,-1.484,-1.4609,-1.3917,-1.3526,-1.3331,-1.3271,-1.3138,-1.2977,-1.2977,-1.2728,-1.2553,-1.2553,-1.2385,-1.2305,-1.2305,-1.2305,-1.2305,-1.2305,-1.2305,-1.2378,-1.2526,-1.2526,-1.2452,-1.2305,-1.2305,-1.2305,-1.2305,-1.2305,-1.2305,-1.2305,-1.2305,-1.2305,-1.2305,-1.2305,-1.2305,-1.2305,-1.2305,-1.2452,-1.2829,-1.3066,-1.3367,-0.1621,-0.2404,-0.3186,-0.3799,-0.5054,-0.6613,-0.8428,-1.0739,-1.3086,-1.5324,-1.744,-1.9488,-2.1581,-2.3039,-2.4713,-2.6949,-2.8069,-2.9004,-3.0086,-3.0575,-3.0818,-3.0988,-3.1184,-3.13,-3.1257,-3.1038,-3.0675,-3.0011,-2.8904,-2.7989,-2.7452,-2.6959,-2.6472,-2.5893,-2.4978,-2.4305,-2.3891,-2.339,-2.3138,-2.3078,-2.2969,-2.2678,-2.2247,-2.1714,-2.0996,-2.0161,-1.9628,-1.9054,-1.8539,-1.8405,-1.8212,-1.8008,-1.7784,-1.7657,-1.747,-1.7314,-1.7107,-1.6978,-1.6978,-1.683,-1.6603,-1.6272,-1.6202,-1.6132,-1.5903,-1.5321,-1.4744,-1.4744,-1.4394,-1.3977,-1.3977,-1.368,-1.3295,-1.2809,-1.2705,-1.2613,-1.2466,-1.2385,-1.2385,-1.2385,-1.2378,-1.2305,-1.2305,-1.2305,-1.2305,-1.2305,-1.2305,-1.2305,-1.2305,-1.2305,-1.2305,-1.2305,-1.2305,-1.2298,-1.2305,-1.2305,-1.2305,-1.2305,-1.2305,-1.2305,-1.2305,-1.2305,-1.2305,-1.2305,-1.2305,-1.2305,-1.2305,-1.2305,-1.2452,-1.2829,-1.3066,-1.3367,-0.2954,-0.3569,-0.4239,-0.4901,-0.6086,-0.754,-0.9267,-1.1798,-1.433,-1.6429,-1.8685,-2.0811,-2.2441,-2.4118,-2.5848,-2.7614,-2.8817,-2.9872,-3.1014,-3.1756,-3.2067,-3.1858,-3.2314,-3.2435,-3.1802,-3.1393,-3.0723,-2.9572,-2.8451,-2.7527,-2.6827,-2.6309,-2.5569,-2.456,-2.3743,-2.3139,-2.2716,-2.2318,-2.2251,-2.2471,-2.2233,-2.1983,-2.1726,-2.1071,-2.0355,-1.9573,-1.9054,-1.8664,-1.8347,-1.8212,-1.8076,-1.8008,-1.7784,-1.7442,-1.7116,-1.6811,-1.6394,-1.6061,-1.6193,-1.6123,-1.5912,-1.578,-1.5497,-1.5133,-1.4982,-1.4553,-1.4057,-1.3985,-1.3768,-1.3557,-1.3477,-1.3171,-1.2778,-1.2656,-1.2485,-1.2385,-1.2305,-1.2305,-1.2305,-1.2305,-1.2305,-1.2305,-1.2305,-1.2305,-1.2305,-1.2305,-1.2305,-1.2305,-1.2305,-1.2305,-1.2305,-1.2305,-1.2305,-1.2305,-1.2305,-1.2305,-1.2305,-1.2305,-1.2305,-1.2305,-1.2305,-1.2305,-1.2305,-1.2305,-1.2305,-1.2305,-1.2305,-1.2305,-1.2452,-1.2829,-1.3066,-1.3367,-0.4385,-0.4995,-0.5546,-0.6347,-0.7505,-0.8971,-1.0855,-1.341,-1.5986,-1.8034,-2.034,-2.2359,-2.3663,-2.5417,-2.7156,-2.8586,-2.978,-3.1046,-3.2388,-3.3107,-3.3369,-3.3006,-3.3434,-3.3334,-3.2318,-3.1565,-3.0583,-2.9106,-2.8136,-2.7087,-2.5908,-2.5296,-2.4568,-2.3616,-2.2924,-2.2348,-2.1898,-2.1648,-2.1625,-2.1853,-2.1504,-2.1224,-2.1031,-2.0336,-1.9706,-1.9121,-1.8674,-1.8347,-1.8212,-1.8076,-1.794,-1.7862,-1.7647,-1.7166,-1.6551,-1.6105,-1.5621,-1.5141,-1.5267,-1.5204,-1.507,-1.4991,-1.4633,-1.4209,-1.3985,-1.3702,-1.3492,-1.3273,-1.3193,-1.3119,-1.2973,-1.2732,-1.2498,-1.2538,-1.2418,-1.2305,-1.2305,-1.2305,-1.2305,-1.2305,-1.2305,-1.2305,-1.2305,-1.2305,-1.2305,-1.2305,-1.2305,-1.2305,-1.2305,-1.2305,-1.2305,-1.2305,-1.2305,-1.2305,-1.2305,-1.2305,-1.2305,-1.2305,-1.2305,-1.2305,-1.2305,-1.2305,-1.2305,-1.2305,-1.2305,-1.2305,-1.2305,-1.2305,-1.2452,-1.2829,-1.3066,-1.3414,-0.5901,-0.6489,-0.718,-0.8063,-0.9284,-1.0956,-1.3479,-1.5841,-1.8118,-2.0481,-2.2466,-2.4116,-2.5255,-2.6909,-2.8548,-2.9955,-3.1195,-3.2586,-3.4327,-3.4615,-3.4663,-3.4575,-3.44,-3.3862,-3.2805,-3.1568,-3.0261,-2.8881,-2.805,-2.6719,-2.4717,-2.3941,-2.356,-2.3575,-2.2924,-2.2348,-2.1898,-2.1648,-2.1437,-2.1281,-2.0815,-2.05,-2.0266,-1.95,-1.9008,-1.8808,-1.8472,-1.8202,-1.8008,-1.8008,-1.7862,-1.7638,-1.7373,-1.6742,-1.5974,-1.5417,-1.484,-1.4266,-1.4129,-1.4129,-1.4057,-1.3905,-1.3695,-1.3419,-1.3046,-1.29,-1.29,-1.2673,-1.2452,-1.2305,-1.2305,-1.2305,-1.2305,-1.2305,-1.2305,-1.2305,-1.2305,-1.2305,-1.2305,-1.2305,-1.2305,-1.2305,-1.2305,-1.2305,-1.2305,-1.2305,-1.2305,-1.2305,-1.2305,-1.2305,-1.2305,-1.2305,-1.2305,-1.2305,-1.2305,-1.2305,-1.2305,-1.2305,-1.2305,-1.2305,-1.2305,-1.2305,-1.2305,-1.2305,-1.2305,-1.2305,-1.2305,-1.2305,-1.2452,-1.2829,-1.3066,-1.3527,-0.8651,-0.9183,-0.9806,-1.0689,-1.191,-1.3485,-1.579,-1.7987,-2.0133,-2.225,-2.4087,-2.5565,-2.6485,-2.7957,-2.9464,-3.0677,-3.2281,-3.3776,-3.4977,-3.6085,-3.6362,-3.5254,-3.4131,-3.314,-3.242,-3.149,-3.0382,-2.8958,-2.7751,-2.6346,-2.4672,-2.3458,-2.2616,-2.2114,-2.1515,-2.1017,-2.0614,-2.0351,-2.0271,-2.0391,-1.9865,-1.9437,-1.916,-1.8795,-1.839,-1.7965,-1.8073,-1.7998,-1.7784,-1.7784,-1.7647,-1.7304,-1.6959,-1.6333,-1.5559,-1.4848,-1.4201,-1.3702,-1.3557,-1.3484,-1.3484,-1.3411,-1.3339,-1.3193,-1.2826,-1.2673,-1.2673,-1.2452,-1.2378,-1.2305,-1.2305,-1.2305,-1.2305,-1.2305,-1.2305,-1.2305,-1.2305,-1.2305,-1.2305,-1.2305,-1.2305,-1.2305,-1.2305,-1.2305,-1.2305,-1.2305,-1.2305,-1.2305,-1.2305,-1.2305,-1.2305,-1.2305,-1.2305,-1.2305,-1.2305,-1.2305,-1.2305,-1.2305,-1.2305,-1.2305,-1.2305,-1.2305,-1.2305,-1.2305,-1.2305,-1.2305,-1.2305,-1.2305,-1.2565,-1.3073,-1.3367,-1.3714,-1.1766,-1.2082,-1.2719,-1.359,-1.4696,-1.6119,-1.8152,-2.0194,-2.2196,-2.3967,-2.5646,-2.6996,-2.7652,-2.9232,-3.0701,-3.1504,-3.3455,-3.5202,-3.6136,-3.7042,-3.7093,-3.5609,-3.4138,-3.2978,-3.2385,-3.1364,-3.0146,-2.8739,-2.7301,-2.5843,-2.4282,-2.3183,-2.2189,-2.1251,-2.0809,-2.0372,-1.9926,-1.9668,-1.9527,-1.9558,-1.8931,-1.8509,-1.8306,-1.7987,-1.7734,-1.7625,-1.7637,-1.7649,0.0,-1.7442,-1.7157,-1.6682,-1.6333,-1.57,-1.4919,-1.4209,-1.3622,-1.3119,-1.29,-1.2893,-1.2893,-1.2893,-1.2893,-1.2826,-1.2526,-1.2526,-1.2452,-1.2305,-1.2305,-1.2305,-1.2305,-1.2305,-1.2305,-1.2305,-1.2305,-1.2305,-1.2305,-1.2305,-1.2305,-1.2305,-1.2305,-1.2305,-1.2305,-1.2305,-1.2305,-1.2305,-1.2305,-1.2305,-1.2305,-1.2305,-1.2305,-1.2305,-1.2305,-1.2305,-1.2305,-1.2305,-1.2305,-1.2305,-1.2305,-1.2305,-1.2305,-1.2305,-1.2305,-1.2305,-1.2305,-1.2305,-1.2305,-1.2412,-1.2665,-1.3046,-1.3454,-1.3741,0.0,-1.5138,-1.5894,-1.6678,-1.7608,-1.8823,-2.0609,-2.2443,0.0,-2.5527,-2.7102,-2.8354,-2.8787,-3.0611,-3.2147,-3.2454,-3.4666,-3.664,-3.7494,-3.7505,-3.6956,-3.5698,-3.4397,-3.3346,-3.2527,-3.115,-2.9729,-2.8257,-2.684,-2.53,-2.3668,-2.3009,-2.2175,-2.1042,-2.0759,-2.0359,-1.9798,-1.9512,-1.9158,-1.8744,-1.8127,-1.7756,-1.7562,-1.7015,-1.7082,-1.75,-1.7203,-1.7274,-1.747,-1.7047,-1.6473,-1.5903,-1.5568,-1.4856,-1.3992,-1.3637,-1.3119,-1.2599,-1.2378,-1.2305,-1.2305,-1.2305,-1.2305,-1.2305,-1.2305,-1.2305,-1.2305,-1.2305,-1.2305,-1.2305,-1.2305,-1.2305,-1.2305,-1.2305,-1.2305,-1.2305,-1.2305,-1.2305,-1.2305,-1.2305,-1.2305,-1.2305,-1.2305,-1.2305,-1.2305,-1.2305,-1.2305,-1.2305,-1.2305,-1.2305,-1.2305,-1.2305,-1.2305,-1.2305,-1.2305,-1.2305,-1.2305,-1.2305,-1.2305,-1.2305,-1.2305,-1.2305,-1.2305,-1.2305,-1.2305,-1.2305,-1.2305,-1.2579,-1.2802,-1.2835,-1.332,-1.3512,-2.0067,0.0,-1.8691,-1.9428,-2.0194,-2.1154,0.0,-2.4217,-2.5689,-2.6832,-2.8172,-2.9457,-3.037,-3.1626,-3.2781,-3.3563,-3.5345,-3.6685,-3.6901,-3.6823,-3.6514,-3.596,-3.475,-3.3493,-3.2241,-3.121,-2.9796,-2.7805,-2.6691,-2.5368,-2.3767,-2.3054,-2.2175,-2.1042,-2.0759,-2.0308,-1.9656,-1.9303,-1.8881,-1.8398,-1.7623,-1.7019,-1.6634,-1.6456,-1.6614,-1.6894,-1.7021,-1.713,-1.7245,-1.6673,-1.6035,-1.5338,-1.4768,-1.4209,-1.3564,-1.3193,-1.2826,-1.2599,-1.2378,-1.2305,-1.2305,-1.2305,-1.2305,-1.2305,-1.2305,-1.2305,-1.2305,-1.2305,-1.2305,-1.2305,-1.2305,-1.2305,-1.2305,-1.2305,-1.2305,-1.2305,-1.2305,-1.2305,-1.2305,-1.2305,-1.2305,-1.2305,-1.2305,-1.2305,-1.2305,-1.2305,-1.2305,-1.2305,-1.2305,-1.2305,-1.2305,-1.2305,-1.2305,-1.2305,-1.2305,-1.2305,-1.2305,-1.2305,-1.2305,-1.2305,-1.2305,-1.2305,-1.2305,-1.2305,-1.2305,-1.2305,-1.2305,-1.2371,-1.2525,-1.2829,-1.297,-1.3086,-2.3063,-2.2412,-2.1648,-2.2158,-2.3033,-2.4034,-2.4887,-2.6109,-2.7249,-2.7904,0.0,-3.0176,-3.1181,-3.2224,-3.3238,-3.4129,-3.5756,-3.6867,-3.6798,-3.6683,-3.6201,-3.5134,-3.4229,-3.3117,-3.1692,-3.0526,-2.9245,-2.7666,-2.6531,-2.5282,-2.3794,-2.3172,-2.2253,-2.1042,-2.0759,-2.0207,-1.9396,-1.9093,-1.856,-1.7897,-1.7245,-1.6627,-1.6124,-1.6028,-1.6197,-1.6445,-1.6629,-1.6647,-1.6624,-1.6105,-1.5409,-1.4625,-1.4129,-1.3557,-1.3046,-1.2826,-1.2673,-1.2452,-1.2305,-1.2305,-1.2305,-1.2305,-1.2305,-1.2305,-1.2305,-1.2305,-1.2305,-1.2305,-1.2305,-1.2305,-1.2305,-1.2305,-1.2305,-1.2305,-1.2305,-1.2305,-1.2305,-1.2305,-1.2305,-1.2305,-1.2305,-1.2305,-1.2305,-1.2305,-1.2305,-1.2305,-1.2305,-1.2305,-1.2305,-1.2305,-1.2305,-1.2305,-1.2305,-1.2305,-1.2305,-1.2305,-1.2305,-1.2305,-1.2305,-1.2305,-1.2305,-1.2305,-1.2305,-1.2305,-1.2305,-1.2305,-1.2305,-1.2305,-1.2385,-1.2545,-1.2761,-1.2916,-2.4864,-2.4817,-2.4562,-2.4901,-2.5777,-2.6615,-2.6971,0.0,0.0,0.0,0.0,-3.0829,-3.1775,-3.2757,-3.3706,-3.4574,-3.5944,-3.6864,-3.6723,-3.6504,-3.5724,-3.4018,-3.3374,-3.2467,-3.1002,-2.9715,-2.8565,-2.7554,-2.6363,-2.5121,-2.3822,-2.326,-2.2331,-2.1042,-2.0709,-2.0105,-1.9186,-1.8893,-1.8356,-1.7468,-1.6976,-1.64,-1.5816,-1.5662,-1.5792,-1.5962,-1.6027,-1.6011,-1.5909,-1.5496,-1.4807,-1.3985,-1.3564,-1.3046,-1.2526,-1.2526,-1.2452,-1.2305,-1.2305,-1.2305,-1.2305,-1.2305,-1.2305,-1.2305,-1.2305,-1.2305,-1.2305,-1.2305,-1.2305,-1.2305,-1.2305,-1.2305,-1.2305,-1.2305,-1.2305,-1.2305,-1.2305,-1.2305,-1.2305,-1.2305,-1.2305,-1.2305,-1.2305,-1.2305,-1.2305,-1.2305,-1.2305,-1.2305,-1.2305,-1.2305,-1.2305,-1.2305,-1.2305,-1.2305,-1.2305,-1.2305,-1.2305,-1.2305,-1.2305,-1.2305,-1.2305,-1.2305,-1.2305,-1.2305,-1.2305,-1.2305,-1.2305,-1.2305,-1.2305,-1.2311,-1.2559,-1.2755,-2.5612,-2.6483,-2.715,-2.7584,-2.743,-2.7403,-2.8351,-2.8798,0.0,0.0,0.0,-3.1942,-3.2878,-3.3819,-3.4729,-3.5548,-3.5866,-3.5962,-3.5902,-3.5179,-3.4488,-3.4025,-3.3009,-3.18,-3.0391,-2.9638,-2.8581,-2.7045,-2.617,-2.516,-2.3906,-2.3172,-2.2221,-2.1042,-2.051,-1.9862,-1.904,-1.8774,-1.8182,-1.7245,-1.6637,-1.6056,-1.5468,-1.5323,-1.5377,-1.5515,-1.5352,-1.5414,-1.5536,-1.4863,-1.43,-1.376,-1.3185,-1.2753,-1.2378,-1.2378,-1.2305,-1.2305,-1.2305,-1.2305,-1.2305,-1.2305,-1.2305,-1.2305,-1.2305,-1.2305,-1.2305,-1.2305,-1.2305,-1.2305,-1.2305,-1.2305,-1.2305,-1.2305,-1.2305,-1.2305,-1.2305,-1.2305,-1.2305,-1.2305,-1.2305,-1.2305,-1.2305,-1.2305,-1.2305,-1.2305,-1.2305,-1.2305,-1.2305,-1.2305,-1.2305,-1.2305,-1.2305,-1.2305,-1.2305,-1.2305,-1.2305,-1.2305,-1.2305,-1.2305,-1.2305,-1.2305,-1.2305,-1.2305,-1.2305,-1.2305,-1.2305,-1.2305,-1.2305,-1.2305,-1.2351,-1.2371,-2.6612,-2.7382,-2.8148,-2.9775,-2.9941,-2.9934,-3.0902,-3.1214,-3.134,0.0,-3.2127,-3.2989,-3.3893,-3.441,-3.4956,-3.5767,-3.5833,-3.5616,-3.5078,-3.4558,-3.3846,-3.2742,-3.1912,-3.0918,-2.9628,-2.8951,-2.8088,-2.6839,-2.5758,-2.4601,-2.3375,-2.2276,-2.1271,-2.0417,-1.992,-1.9369,-1.8774,-1.8398,-1.7799,-1.6976,-1.6467,-1.5894,-1.5313,-1.5205,-1.5134,-1.5014,-1.493,-1.4905,-1.4781,-1.4304,-1.3823,-1.3404,-1.2893,-1.2526,-1.2305,-1.2305,-1.2305,-1.2305,-1.2305,-1.2305,-1.2305,-1.2305,-1.2305,-1.2305,-1.2305,-1.2305,-1.2305,-1.2305,-1.2305,-1.2305,-1.2305,-1.2305,-1.2305,-1.2305,-1.2305,-1.2305,-1.2305,-1.2305,-1.2305,-1.2305,-1.2305,-1.2305,-1.2305,-1.2305,-1.2305,-1.2305,-1.2305,-1.2305,-1.2305,-1.2305,-1.2305,-1.2305,-1.2305,-1.2305,-1.2305,-1.2305,-1.2305,-1.2305,-1.2305,-1.2305,-1.2305,-1.2305,-1.2305,-1.2305,-1.2305,-1.2305,-1.2305,-1.2305,-1.2305,-1.2305,-1.2305,-1.2305,-2.7364,-2.7929,-2.8605,-3.1216,-3.1815,-3.1979,-3.2861,-3.3137,-3.3239,-3.3312,-3.3532,-3.3908,-3.458,-3.4853,-3.5174,-3.5788,-3.5651,-3.5212,-3.4487,-3.3913,-3.3031,-3.157,-3.0875,-3.0091,-2.9052,-2.835,-2.7543,-2.6533,-2.5309,-2.3968,-2.2596,-2.1372,-2.0354,-1.968,-1.9262,-1.8794,-1.8372,-1.7895,-1.7346,-1.6761,-1.6285,-1.571,-1.5088,-1.497,-1.4725,-1.4369,-1.4373,-1.4225,-1.3893,-1.3635,-1.3349,-1.302,-1.2718,-1.2452,-1.2305,-1.2305,-1.2305,-1.2305,-1.2305,-1.2305,-1.2305,-1.2305,-1.2305,-1.2305,-1.2305,-1.2305,-1.2305,-1.2305,-1.2305,-1.2305,-1.2305,-1.2305,-1.2305,-1.2305,-1.2305,-1.2305,-1.2305,-1.2305,-1.2305,-1.2305,-1.2305,-1.2305,-1.2305,-1.2305,-1.2305,-1.2305,-1.2305,-1.2305,-1.2305,-1.2305,-1.2305,-1.2305,-1.2305,-1.2305,-1.2305,-1.2305,-1.2305,-1.2305,-1.2305,-1.2305,-1.2305,-1.2305,-1.2305,-1.2305,-1.2305,-1.2305,-1.2305,-1.2305,-1.2305,-1.2305,-1.2305,-1.2305,-2.7595,-2.814,-2.8816,-3.1426,-3.1974,-3.2105,-3.299,-3.3237,-3.3306,-3.3383,-3.4049,-3.4625,-3.4685,-3.5318,-3.5806,-3.5801,-3.5072,-3.4468,-3.4328,-3.28,-3.1607,-3.1412,-3.0332,-2.9375,-2.886,-2.8246,-2.7291,-2.5802,-2.4788,-2.349,-2.1774,-2.0849,-1.9927,-1.9009,-1.8706,-1.8244,-1.7572,-1.7224,-1.6899,-1.6637,-1.6161,-1.5526,-1.4715,-1.4428,-1.3941,-1.339,-1.3189,-1.2978,-1.276,-1.2751,-1.2677,-1.2579,-1.257,-1.2452,-1.2305,-1.2305,-1.2305,-1.2305,-1.2305,-1.2305,-1.2305,-1.2305,-1.2305,-1.2305,-1.2305,-1.2305,-1.2305,-1.2305,-1.2305,-1.2305,-1.2305,-1.2305,-1.2305,-1.2305,-1.2305,-1.2305,-1.2305,-1.2305,-1.2305,-1.2305,-1.2305,-1.2305,-1.2305,-1.2305,-1.2305,-1.2305,-1.2305,-1.2305,-1.2305,-1.2305,-1.2305,-1.2305,-1.2305,-1.2305,-1.2305,-1.2305,-1.2305,-1.2305,-1.2305,-1.2305,-1.2305,-1.2305,-1.2305,-1.2305,-1.2305,-1.2305,-1.2305,-1.2305,-1.2305,-1.2305,-1.2305,-1.2305,-2.7824,-2.8583,-2.9383,-3.0908,-3.1659,-3.2244,-3.3132,-3.3349,-3.337,-3.3383,-3.4096,-3.4704,-3.4702,-3.4471,-3.4257,-3.4185,-3.3846,-3.3383,-3.2764,-3.1962,-3.1197,-3.0532,-2.9777,-2.9172,-2.8772,-2.7594,-2.6437,-2.5475,-2.3645,-2.2077,-2.0929,-1.9658,-1.8725,-1.8125,-1.7641,-1.725,-1.7002,-1.6656,-1.6287,-1.6019,-1.5642,-1.5118,-1.4359,-1.4189,-1.37,-1.3094,-1.292,-1.2688,-1.2375,-1.2167,-1.2073,-1.204,-1.2138,-1.2103,-1.2051,-1.2238,-1.2305,-1.2305,-1.2305,-1.2305,-1.2305,-1.2305,-1.2305,-1.2305,-1.2305,-1.2305,-1.2305,-1.2305,-1.2305,-1.2305,-1.2305,-1.2305,-1.2305,-1.2305,-1.2305,-1.2305,-1.2305,-1.2305,-1.2305,-1.2305,-1.2305,-1.2305,-1.2305,-1.2305,-1.2305,-1.2305,-1.2305,-1.2305,-1.2305,-1.2305,-1.2305,-1.2305,-1.2305,-1.2305,-1.2305,-1.2305,-1.2305,-1.2305,-1.2305,-1.2305,-1.2305,-1.2305,-1.2305,-1.2305,-1.2305,-1.2305,-1.2305,-1.2305,-1.2305,-1.2305,-1.2305,-1.2305,-2.832,-2.9081,-2.9736,-3.0616,-3.1282,-3.1887,-3.2465,-3.3012,-3.3406,-3.3393,-3.3865,-3.4295,-3.4285,-3.374,-3.3273,-3.3184,-3.289,-3.2461,-3.1756,-3.1268,-3.0708,-2.9948,-2.9231,-2.8651,-2.8288,-2.6737,-2.539,-2.4494,-2.2577,-2.0971,-1.9903,-1.8661,-1.7744,-1.7194,-1.6727,-1.639,-1.6242,-1.5923,-1.5619,-1.5313,-1.4883,-1.4469,-1.407,-1.37,-1.3216,-1.2613,-1.2428,-1.2125,-1.1832,-1.1602,-1.1556,-1.1587,-1.172,-1.179,-1.1897,-1.2091,-1.2225,-1.2305,-1.2305,-1.2305,-1.2305,-1.2305,-1.2305,-1.2305,-1.2305,-1.2305,-1.2305,-1.2305,-1.2305,-1.2305,-1.2305,-1.2305,-1.2305,-1.2305,-1.2305,-1.2305,-1.2305,-1.2305,-1.2305,-1.2305,-1.2305,-1.2305,-1.2305,-1.2305,-1.2305,-1.2305,-1.2305,-1.2305,-1.2305,-1.2305,-1.2305,-1.2305,-1.2224,-1.2224,-1.2224,-1.215,-1.215,-1.2224,-1.2224,-1.2224,-1.2305,-1.2305,-1.2305,-1.2305,-1.2305,-1.2305,-1.2305,-1.2305,-1.2305,-1.2305,-1.2305,-1.2305,-2.9129,-2.9606,-2.9824,-3.0684,-3.0898,-3.0898,-3.0898,-3.2187,-3.3378,-3.3397,-3.3379,-3.3378,-3.3383,-3.3328,-3.3225,-3.3098,-3.2358,-3.1733,-3.1603,-3.0739,-3.0007,-2.9806,-2.8669,-2.7739,-2.732,-2.5752,-2.419,-2.2699,-2.1607,-2.0288,-1.8679,-1.7894,-1.7102,-1.6244,-1.6054,-1.5744,-1.5289,-1.5117,-1.482,-1.4469,-1.3803,-1.358,-1.3769,-1.2911,-1.2236,-1.1802,-1.1428,-1.1122,-1.0828,-1.1122,-1.1289,-1.1416,-1.1423,-1.1603,-1.1864,-1.187,-1.2051,-1.2305,-1.2305,-1.2305,-1.2305,-1.2305,-1.2305,-1.2305,-1.2305,-1.2305,-1.2305,-1.2305,-1.2305,-1.2305,-1.2305,-1.2305,-1.2305,-1.2305,-1.2305,-1.2305,-1.2305,-1.2305,-1.2305,-1.2305,-1.2305,-1.2305,-1.2305,-1.2305,-1.2305,-1.2305,-1.2305,-1.2305,-1.2305,-1.2305,-1.2305,-1.2305,-1.215,-1.2003,-1.2003,-1.1855,-1.1781,-1.2003,-1.2003,-1.2077,-1.2298,-1.2305,-1.2305,-1.2305,-1.2305,-1.2305,-1.2305,-1.2305,-1.2305,-1.2305,-1.2305,-1.2305,-2.929,-3.0057,-3.0586,-3.084,-3.0898,-3.0898,-3.0898,-3.1289,-3.1816,-3.2422,-3.207,-3.1814,-3.2387,-3.1932,-3.1446,-3.1363,-3.1101,-3.0821,-3.0636,-3.0285,-2.9715,-2.8838,-2.8155,-2.7342,-2.6283,-2.4656,-2.3268,-2.2329,-2.0685,-1.924,-1.8185,-1.7353,-1.6539,-1.5668,-1.5211,-1.4729,-1.4338,-1.4145,-1.3858,-1.3575,-1.3314,-1.3078,-1.285,-1.2428,-1.1934,-1.1428,-1.1365,-1.1122,-1.0814,-1.0776,-1.0799,-1.0835,-1.1042,-1.1303,-1.1583,-1.179,-1.2051,-1.2305,-1.2305,-1.2305,-1.2305,-1.2305,-1.2305,-1.2305,-1.2305,-1.2305,-1.2305,-1.2305,-1.2305,-1.2305,-1.2305,-1.2305,-1.2305,-1.2305,-1.2305,-1.2305,-1.2305,-1.2305,-1.2305,-1.2305,-1.2305,-1.2305,-1.2305,-1.2305,-1.2305,-1.2305,-1.2305,-1.2305,-1.2305,-1.2305,-1.2305,-1.2305,-1.215,-1.2003,-1.2003,-1.1855,-1.1706,-1.1781,-1.1781,-1.1929,-1.2298,-1.2305,-1.2305,-1.2305,-1.2305,-1.2305,-1.2305,-1.2305,-1.2305,-1.2305,-1.2305,-1.2305,-2.9835,-3.0486,-3.0898,-3.0898,-3.0898,-3.0898,-3.0898,-3.0898,-3.0957,-3.1133,-3.0741,-3.0425,-3.0526,-3.0088,-2.9794,-3.0028,-2.9999,-2.9994,-3.0095,-2.9684,-2.9074,-2.824,-2.7166,-2.6116,-2.5049,-2.3409,-2.2048,-2.1268,-1.9728,-1.843,-1.7531,-1.6714,-1.5864,-1.4983,-1.4318,-1.3796,-1.3365,-1.3083,-1.2888,-1.2655,-1.2482,-1.2228,-1.1802,-1.1809,-1.1553,-1.1115,-1.1059,-1.0933,-1.0681,-1.0618,-1.0624,-1.0645,-1.0755,-1.0995,-1.1289,-1.1583,-1.1877,-1.2144,-1.2265,-1.2305,-1.2305,-1.2305,-1.2305,-1.2305,-1.2305,-1.2305,-1.2305,-1.2305,-1.2305,-1.2305,-1.2305,-1.2305,-1.2305,-1.2305,-1.2305,-1.2305,-1.2305,-1.2305,-1.2305,-1.2305,-1.2305,-1.2305,-1.2305,-1.2305,-1.2305,-1.2305,-1.2305,-1.2305,-1.2305,-1.2305,-1.2305,-1.2305,-1.2077,-1.1855,-1.1855,-1.1632,-1.1484,-1.1558,-1.1558,-1.1706,-1.2077,-1.2077,-1.2077,-1.2077,-1.2077,-1.2077,-1.215,-1.2077,-1.2077,-1.215,-1.2003,-1.1929,-3.0552,-3.0857,-3.0898,-3.0898,-3.0898,-3.0876,-3.0796,-3.0779,-3.0547,-2.9765,-2.9549,-2.9212,-2.8369,-2.8201,-2.8421,-2.9063,-2.9061,-2.9173,-2.9698,-2.8915,-2.811,-2.7701,-2.5891,-2.4402,-2.37,-2.2119,-2.075,-1.9803,-1.8797,-1.776,-1.6773,-1.5928,-1.5096,-1.4247,-1.3494,-1.286,-1.2477,-1.2061,-1.1769,-1.1685,-1.1546,-1.1219,-1.0744,-1.1122,-1.1059,-1.0744,-1.0618,-1.0561,-1.0624,-1.0624,-1.0624,-1.0624,-1.0624,-1.0735,-1.1022,-1.1289,-1.159,-1.1904,-1.2171,-1.2278,-1.2305,-1.2305,-1.2305,-1.2305,-1.2305,-1.2305,-1.2305,-1.2305,-1.2305,-1.2305,-1.2305,-1.2305,-1.2305,-1.2305,-1.2305,-1.2305,-1.2305,-1.2305,-1.2305,-1.2305,-1.2305,-1.2305,-1.2305,-1.2305,-1.2305,-1.2305,-1.2305,-1.2305,-1.2305,-1.2305,-1.2305,-1.2305,-1.1955,-1.1738,-1.1706,-1.1434,-1.1285,-1.1409,-1.1409,-1.1484,-1.1632,-1.1706,-1.1706,-1.1706,-1.1706,-1.1781,-1.2003,-1.1781,-1.1781,-1.1929,-1.1558,-1.1409,-3.055,-3.0855,-3.0898,-3.0898,-3.0853,-3.063,-2.9966,-2.9793,-2.9758,-2.9629,-2.906,-2.8502,-2.8239,-2.8165,-2.8171,-2.8263,-2.8163,-2.807,-2.8037,-2.7606,-2.6916,-2.5897,-2.4959,-2.3831,-2.2451,-2.1336,-2.0289,-1.9229,-1.8207,-1.7164,-1.6164,-1.5151,-1.4215,-1.3447,-1.2579,-1.1837,-1.137,-1.1059,-1.0806,-1.0632,-1.0668,-1.0581,-1.0428,-1.0618,-1.0618,-1.0428,-1.0364,-1.0434,-1.0624,-1.0624,-1.0624,-1.0624,-1.0624,-1.0735,-1.1002,-1.1062,-1.1416,-1.1877,-1.1944,-1.2111,-1.2305,-1.2305,-1.2305,-1.2305,-1.2305,-1.2305,-1.2305,-1.2305,-1.2305,-1.2305,-1.2305,-1.2305,-1.2305,-1.2305,-1.2305,-1.2305,-1.2305,-1.2305,-1.2305,-1.2305,-1.2305,-1.2305,-1.2305,-1.2305,-1.2305,-1.2305,-1.2305,-1.2305,-1.2305,-1.2305,-1.2305,-1.2305,-1.23,-1.2194,-1.1948,-1.1923,-1.1809,-1.1422,-1.1409,-1.1335,-1.126,-1.1558,-1.1706,-1.1706,-1.1706,-1.1706,-1.1781,-1.1706,-1.1632,-1.1558,-1.1409,-1.1335,-3.0674,-3.0829,-3.0858,-3.0857,-3.0515,-3.0055,-2.9601,-2.8856,-2.8259,-2.8337,-2.7987,-2.752,-2.7036,-2.6907,-2.697,-2.7275,-2.7193,-2.7121,-2.7282,-2.6615,-2.5812,-2.491,-2.3929,-2.2781,-2.1516,-2.0572,-1.9596,-1.8493,-1.7464,-1.6434,-1.5386,-1.4354,-1.3426,-1.2657,-1.1625,-1.0889,-1.0328,-0.9929,-0.9625,-0.9389,-0.9609,-0.9773,-0.9913,-1.0174,-1.0308,-1.0301,-1.0301,-1.0428,-1.0624,-1.0624,-1.0624,-1.0624,-1.0624,-1.0719,-1.0802,-1.0942,-1.1189,-1.147,-1.161,-1.1774,-1.1883,-1.1883,-1.197,-1.2131,-1.2131,-1.2218,-1.2305,-1.2305,-1.2305,-1.2305,-1.2305,-1.2305,-1.2305,-1.2305,-1.2305,-1.2305,-1.2305,-1.2305,-1.2305,-1.2305,-1.2231,-1.2157,-1.2157,-1.2003,-1.1855,-1.1706,-1.1706,-1.1706,-1.1706,-1.1706,-1.1757,-1.1904,-1.1903,-1.1914,-1.1966,-1.1948,-1.1895,-1.1825,-1.1612,-1.1462,-1.1468,-1.1409,-1.1409,-1.1409,-1.1409,-1.1484,-1.1558,-1.1484,-1.1335,-1.126,-1.1037,-1.0887,-3.0743,-3.0801,-3.08,-3.0796,-3.014,-2.9461,-2.9312,-2.8037,-2.6877,-2.6788,-2.6777,-2.6522,-2.5753,-2.5531,-2.5677,-2.6275,-2.6197,-2.6171,-2.6583,-2.5634,-2.4686,-2.4158,-2.2882,-2.1681,-2.0701,-1.9788,-1.8783,-1.7693,-1.6672,-1.5632,-1.456,-1.3532,-1.2609,-1.1814,-1.0813,-1.0012,-0.9458,-0.8862,-0.8509,-0.8273,-0.8598,-0.8962,-0.9261,-0.9591,-0.9939,-1.0244,-1.0244,-1.0364,-1.0624,-1.0624,-1.0624,-1.0624,-1.0624,-1.0624,-1.0651,-1.0828,-1.0949,-1.1029,-1.1269,-1.1383,-1.1411,-1.1411,-1.1597,-1.188,-1.1905,-1.2057,-1.2305,-1.2305,-1.2305,-1.2305,-1.2305,-1.2305,-1.2298,-1.2224,-1.2231,-1.2224,-1.2298,-1.2305,-1.2231,-1.2231,-1.2003,-1.1855,-1.1781,-1.1484,-1.1186,-1.1037,-1.1037,-1.1037,-1.1037,-1.1004,-1.1117,-1.1343,-1.13,-1.1417,-1.1742,-1.1721,-1.1813,-1.2092,-1.1721,-1.1582,-1.1695,-1.131,-1.101,-1.0962,-1.1111,-1.126,-1.1409,-1.126,-1.1111,-1.1037,-1.0663,-1.0368,-3.0555,-3.0796,-3.08,-3.0798,-3.014,-2.9299,-2.8544,-2.7605,-2.6695,-2.6023,-2.5879,-2.5828,-2.5628,-2.5493,-2.544,-2.5476,-2.5196,-2.494,-2.4785,-2.4168,-2.3508,-2.2892,-2.2,-2.1022,-2.0032,-1.9082,-1.8039,-1.6841,-1.5884,-1.4858,-1.3805,-1.2745,-1.1814,-1.0965,-1.0167,-0.9406,-0.8725,-0.8127,-0.7778,-0.7604,-0.7768,-0.8023,-0.8381,-0.8703,-0.9325,-1.0047,-1.0047,-1.0244,-1.0624,-1.0624,-1.0624,-1.0624,-1.0624,-1.0624,-1.0624,-1.0665,-1.0775,-1.1002,-1.1035,-1.1195,-1.1391,-1.1391,-1.166,-1.1883,-1.1912,-1.2057,-1.2305,-1.2305,-1.2305,-1.2305,-1.2305,-1.2305,-1.2224,-1.2077,-1.2003,-1.2077,-1.2224,-1.2157,-1.2003,-1.2003,-1.1632,-1.1186,-1.0962,-1.0738,-1.0588,-1.0588,-1.0588,-1.0588,-1.0588,-1.0696,-1.0844,-1.0878,-1.1278,-1.1466,-1.1203,-1.163,-1.1747,-1.137,-1.1404,-1.1368,-1.108,-1.0956,-1.0829,-1.0594,-1.1111,-1.1335,-1.1409,-1.1335,-1.1186,-1.0812,-1.0588,-1.0368,-3.0475,-3.0778,-3.0792,-3.08,-3.0132,-2.9277,-2.8405,-2.7534,-2.6659,-2.587,-2.5703,-2.5676,-2.5601,-2.5499,-2.5357,-2.5214,-2.4891,-2.4465,-2.4008,-2.3378,-2.2667,-2.1928,-2.1083,-2.0169,-1.9178,-1.8207,-1.7164,-1.5903,-1.4926,-1.382,-1.2638,-1.1706,-1.0864,-1.0064,-0.9183,-0.8448,-0.7877,-0.7176,-0.6754,-0.6578,-0.6731,-0.7067,-0.7643,-0.8209,-0.8976,-0.9862,-0.9989,-1.0238,-1.0624,-1.0624,-1.0624,-1.0624,-1.0624,-1.0624,-1.0624,-1.0624,-1.0641,-1.0755,-1.0755,-1.0835,-1.0942,-1.0942,-1.122,-1.1586,-1.1637,-1.1964,-1.2305,-1.2305,-1.2305,-1.2305,-1.2305,-1.2305,-1.2231,-1.2077,-1.2003,-1.1929,-1.1855,-1.1706,-1.1558,-1.1111,-1.0663,-1.0288,-0.9685,-0.9533,-0.9377,-0.9221,-0.9254,-0.9256,-0.9256,-0.9444,-0.9541,-0.9745,-0.9932,-1.0144,-1.0427,-1.0603,-1.0958,-1.1277,-1.0979,-1.0795,-1.08,-1.0426,-1.0164,-1.0148,-1.0663,-1.0887,-1.0887,-1.0887,-1.0738,-1.0438,-1.0293,-1.0067,-3.0147,-3.0546,-3.0762,-3.0765,-3.0136,-2.9332,-2.8682,-2.7696,-2.6754,-2.6148,-2.5859,-2.5676,-2.5616,-2.5486,-2.533,-2.5111,-2.4681,-2.4155,-2.3476,-2.2656,-2.1809,-2.0862,-1.9955,-1.9075,-1.8115,-1.7151,-1.6083,-1.4846,-1.3856,-1.2783,-1.1516,-1.0771,-0.9961,-0.9152,-0.8343,-0.7706,-0.7128,-0.6372,-0.5848,-0.5648,-0.577,-0.6213,-0.6875,-0.7521,-0.8443,-0.9509,-0.9831,-1.0238,-1.0624,-1.0624,-1.0624,-1.0624,-1.0624,-1.0624,-1.0624,-1.0624,-1.0624,-1.0624,-1.0624,-1.0624,-1.0624,-1.0624,-1.092,-1.1343,-1.1348,-1.1739,-1.2178,-1.2271,-1.2305,-1.2305,-1.2305,-1.2305,-1.2224,-1.2003,-1.1929,-1.1781,-1.1335,-1.1186,-1.0887,-1.0062,-0.969,-0.9311,-0.8623,-0.8394,-0.8336,-0.8077,-0.8051,-0.8158,-0.8205,-0.8298,-0.8467,-0.8687,-0.8743,-0.9004,-0.9497,-0.9593,-0.9941,-1.0631,-1.0223,-1.0006,-1.0141,-0.9652,-0.9355,-0.9463,-0.9755,-1.0062,-1.0443,-1.0443,-1.0293,-1.0067,-0.9846,-0.962,-2.935,-3.0024,-3.072,-3.072,-3.0094,-2.9488,-2.9432,-2.8164,-2.699,-2.6933,-2.6287,-2.5689,-2.56,-2.5492,-2.5312,-2.5056,-2.4514,-2.3835,-2.2953,-2.1877,-2.0766,-1.9652,-1.8564,-1.7611,-1.6777,-1.5724,-1.4699,-1.3684,-1.2764,-1.1765,-1.0517,-0.9961,-0.9302,-0.8474,-0.7871,-0.7224,-0.6642,-0.5782,-0.5187,-0.4967,-0.5081,-0.545,-0.5966,-0.6606,-0.749,-0.8612,-0.9611,-1.0238,-1.0624,-1.0624,-1.0624,-1.0624,-1.0624,-1.0624,-1.0624,-1.0624,-1.0624,-1.0624,-1.0624,-1.0624,-1.0624,-1.0624,-1.0792,-1.1036,-1.1312,-1.1637,-1.1986,-1.2198,-1.2305,-1.2305,-1.2305,-1.2305,-1.2224,-1.1781,-1.1706,-1.1558,-1.0962,-1.0513,-0.9986,-0.9226,-0.878,-0.8322,-0.7936,-0.771,-0.7618,-0.7715,-0.7748,-0.7813,-0.7893,-0.8074,-0.8191,-0.8199,-0.8434,-0.8623,-0.8636,-0.8807,-0.8978,-0.9065,-0.9139,-0.9136,-0.8837,-0.8733,-0.8546,-0.8165,-0.8232,-0.8917,-1.0218,-1.0218,-0.9992,-0.962,-0.9397,-0.9089,-2.8105,-2.8994,-2.9741,-2.9737,-2.9964,-3.0061,-2.9553,-2.899,-2.8453,-2.7883,-2.7073,-2.6445,-2.6384,-2.5834,-2.5264,-2.481,-2.4022,-2.3017,-2.1762,-2.0289,-1.8796,-1.7433,-1.6325,-1.5362,-1.4485,-1.3647,-1.2733,-1.1782,-1.1073,-1.0238,-0.9287,-0.8771,-0.819,-0.7568,-0.6966,-0.6308,-0.5496,-0.5124,-0.4853,-0.4794,-0.4901,-0.5211,-0.572,-0.6464,-0.7239,-0.8055,-0.9138,-0.9938,-1.0434,-1.0561,-1.0624,-1.0624,-1.0624,-1.0624,-1.0624,-1.0624,-1.0624,-1.0624,-1.0624,-1.0624,-1.0624,-1.0624,-1.0759,-1.1028,-1.1322,-1.1616,-1.1962,-1.2211,-1.2305,-1.2305,-1.2305,-1.2305,-1.2224,-1.1929,-1.1632,-1.1186,-1.0738,-0.9986,-0.9231,-0.8551,-0.8097,-0.7633,-0.7096,-0.6945,-0.6891,-0.6798,-0.698,-0.7047,-0.7102,-0.7336,-0.7498,-0.7498,-0.7548,-0.7669,-0.7852,-0.794,-0.8113,-0.846,-0.8372,-0.8303,-0.8028,-0.7934,-0.7769,-0.7488,-0.7557,-0.7936,-0.8841,-0.8841,-0.877,-0.8618,-0.8394,-0.8246,-2.7014,-2.79,-2.872,-2.9022,-2.9599,-3.0035,-2.9797,-2.9557,-2.9238,-2.8656,-2.7819,-2.7128,-2.702,-2.6252,-2.5336,-2.4418,-2.3492,-2.2262,-2.0543,-1.8724,-1.6939,-1.5189,-1.3895,-1.2785,-1.187,-1.1233,-1.0539,-0.987,-0.9386,-0.8849,-0.8196,-0.7877,-0.7396,-0.6756,-0.6213,-0.5614,-0.4956,-0.4849,-0.4798,-0.4853,-0.4956,-0.5285,-0.5677,-0.6411,-0.7074,-0.7666,-0.8709,-0.9497,-1.0171,-1.0458,-1.0624,-1.0624,-1.0624,-1.0624,-1.0624,-1.0624,-1.0624,-1.0624,-1.0624,-1.0561,-1.0498,-1.0498,-1.056,-1.0719,-1.1106,-1.1355,-1.152,-1.1898,-1.1929,-1.1929,-1.1929,-1.1929,-1.1855,-1.1781,-1.1409,-1.0887,-1.0513,-0.969,-0.8932,-0.8255,-0.7718,-0.7253,-0.6718,-0.6563,-0.6525,-0.6472,-0.6576,-0.6736,-0.6837,-0.7017,-0.7139,-0.7139,-0.7139,-0.7143,-0.7323,-0.7326,-0.7499,-0.7845,-0.7625,-0.7479,-0.7371,-0.723,-0.7075,-0.6883,-0.6876,-0.7103,-0.7476,-0.7783,-0.7859,-0.7783,-0.7633,-0.7557,0.0,0.0,0.0,-2.8581,-2.8952,-2.9291,-3.016,-2.9767,-2.922,-2.9214,-2.8405,-2.7631,-2.7415,-2.6645,-2.5478,-2.3783,-2.2865,-2.1584,-1.9342,-1.7326,-1.5269,-1.3036,-1.1308,-0.9973,-0.8957,-0.852,-0.8189,-0.7905,-0.7829,-0.7641,-0.7283,-0.7235,-0.6858,-0.6,-0.5572,-0.5242,-0.5124,-0.4956,-0.4956,-0.5124,-0.5285,-0.55,-0.5882,-0.6372,-0.6924,-0.7537,-0.8279,-0.9106,-0.9877,-1.0358,-1.0618,-1.0624,-1.0624,-1.0624,-1.0624,-1.0624,-1.0624,-1.0624,-1.0624,-1.0498,-1.0301,-1.0301,-1.018,-1.0097,-1.0714,-1.0748,-1.0728,-1.1261,-1.126,-1.1111,-1.1111,-1.1111,-1.1111,-1.1335,-1.1111,-1.0663,-1.0293,-0.9695,-0.9094,-0.8255,-0.7642,-0.7103,-0.6641,-0.6412,-0.6359,-0.6644,-0.6695,-0.6803,-0.7092,-0.7136,-0.7139,-0.7139,-0.7139,-0.7139,-0.7139,-0.7136,-0.7132,-0.7132,-0.7,-0.6854,-0.6702,-0.6552,-0.6407,-0.6264,-0.6338,-0.6338,-0.6338,-0.7099,-0.733,-0.7184,-0.7184,-0.6949,-2.5523,0.0,0.0,0.0,0.0,0.0,-2.8946,-2.9306,-2.9563,-2.9511,-2.8502,-2.7481,-2.6988,-2.547,-2.3704,-2.1875,-2.134,-2.031,-1.78,-1.507,-1.3006,-1.191,-1.01,-0.8142,-0.6182,-0.5962,-0.5905,-0.5754,-0.5817,-0.5919,-0.6091,-0.6263,-0.6218,-0.5845,-0.5521,-0.5242,-0.5124,-0.5069,-0.523,-0.5614,-0.5723,-0.6159,-0.6756,-0.702,-0.7376,-0.7829,-0.8472,-0.8939,-0.9304,-0.9973,-1.0367,-1.0624,-1.0624,-1.0624,-1.0624,-1.0624,-1.0624,-1.0624,-1.0624,-1.0498,-1.0301,-1.0301,-1.0187,-1.0151,-1.0361,-1.0459,-1.0467,-1.0718,-1.0738,-1.0663,-1.0663,-1.0738,-1.0887,-1.0962,-1.0738,-1.0519,-1.0293,-0.9695,-0.9094,-0.8255,-0.7642,-0.7103,-0.6641,-0.6412,-0.6288,-0.6369,-0.6563,-0.6729,-0.681,-0.7007,-0.7139,-0.7139,-0.7139,-0.7139,-0.7139,-0.7048,-0.6987,-0.6987,-0.6848,-0.6695,-0.6542,-0.6495,-0.6407,-0.6264,-0.6338,-0.6338,-0.6338,-0.649,-0.6567,-0.6567,-0.6567,-0.649,-2.5576,-2.5685,-2.5811,-2.589,0.0,0.0,-2.753,-2.8091,-2.8577,-2.8407,-2.7764,-2.6965,-2.6196,-2.4553,-2.2681,-2.0651,-1.9469,-1.8092,-1.5914,-1.3299,-1.122,-1.0175,-0.8224,-0.6096,-0.3772,-0.3652,-0.3736,-0.3862,-0.4276,-0.4741,-0.534,-0.5614,-0.5782,-0.59,-0.5572,-0.5458,-0.5454,-0.5399,-0.5668,-0.6154,-0.6376,-0.6756,-0.7348,-0.7563,-0.7777,-0.8055,-0.854,-0.8844,-0.9056,-0.9497,-1.0,-1.0388,-1.0577,-1.0624,-1.0624,-1.0624,-1.0624,-1.0624,-1.0624,-1.0428,-1.0174,-1.0174,-1.0043,-0.9916,-1.0042,-0.9947,-0.9907,-0.9846,-0.9679,-0.9528,-0.9685,-0.9836,-0.9986,-1.0132,-1.0056,-0.9906,-0.976,-0.9387,-0.8861,-0.8331,-0.7718,-0.718,-0.6791,-0.649,-0.6302,-0.6427,-0.659,-0.6746,-0.6868,-0.7034,-0.7139,-0.7139,-0.7139,-0.7115,-0.7058,-0.6976,-0.6902,-0.6837,-0.6692,-0.6566,-0.6474,-0.6417,-0.6346,-0.6342,-0.6338,-0.6338,-0.6338,-0.6338,-0.6338,-0.6338,-0.6338,-0.6338,-2.5958,-2.6009,-2.6015,-2.6026,-2.6131,0.0,-2.6159,-2.6591,-2.6932,-2.6639,-2.6435,-2.6012,-2.5045,-2.3621,-2.1856,-1.9736,-1.7429,-1.5437,-1.3988,-1.1813,-0.9786,-0.8267,-0.6042,-0.3851,-0.1804,-0.1735,-0.1976,-0.2348,-0.3111,-0.3989,-0.4938,-0.5238,-0.5559,-0.6055,-0.5841,-0.5841,-0.6055,-0.5941,-0.6154,-0.6696,-0.7025,-0.7402,-0.783,-0.8103,-0.8275,-0.8275,-0.8527,-0.8784,-0.8984,-0.9121,-0.9528,-1.014,-1.0408,-1.0598,-1.0624,-1.0624,-1.0624,-1.0624,-1.0624,-1.0364,-1.0047,-0.9983,-0.9872,-0.9688,-0.9638,-0.9471,-0.9216,-0.9025,-0.8542,-0.8161,-0.847,-0.8623,-0.8699,-0.9074,-0.9145,-0.9069,-0.8922,-0.8699,-0.8475,-0.8327,-0.7868,-0.733,-0.6942,-0.6563,-0.6349,-0.6614,-0.6678,-0.6797,-0.7058,-0.7119,-0.7139,-0.7139,-0.7126,-0.7065,-0.6939,-0.6898,-0.682,-0.6681,-0.6532,-0.6451,-0.6451,-0.6329,-0.6338,-0.6338,-0.6338,-0.6338,-0.6338,-0.6338,-0.6338,-0.6338,-0.6338,-0.6338,-2.5922,-2.538,-2.4833,-2.489,-2.5369,0.0,-2.5791,-2.6148,-2.6328,-2.5899,-2.5118,-2.4163,-2.3071,-2.1481,-1.9697,-1.7664,-1.5602,-1.3812,-1.2449,-1.0034,-0.8116,-0.726,-0.4498,-0.2046,-0.053,-0.0908,-0.1279,-0.134,-0.2547,-0.3627,-0.4407,-0.5139,-0.5782,-0.6327,-0.6273,-0.6327,-0.6539,-0.6539,-0.675,-0.7182,-0.7456,-0.7883,-0.8415,-0.8468,-0.8586,-0.8699,-0.8752,-0.8785,-0.8858,-0.909,-0.9528,-1.0127,-1.018,-1.0347,-1.0624,-1.0624,-1.0624,-1.0624,-1.0624,-1.0428,-1.0238,-1.0047,-1.006,-1.0059,-0.9625,-0.9518,-0.9417,-0.8694,-0.8169,-0.7859,-0.7936,-0.8012,-0.8012,-0.8089,-0.8084,-0.8089,-0.8012,-0.7859,-0.7714,-0.7488,-0.7334,-0.7176,-0.6942,-0.6563,-0.6281,-0.6339,-0.6549,-0.6722,-0.678,-0.6993,-0.7139,-0.7139,-0.7037,-0.6959,-0.6929,-0.6702,-0.6549,-0.6519,-0.6383,-0.6302,-0.6302,-0.6352,-0.6338,-0.6338,-0.6338,-0.6338,-0.6338,-0.6338,-0.6338,-0.6338,-0.6338,-0.6338,-2.6066,-2.5746,-2.5326,-2.4874,-2.4945,0.0,0.0,-2.4484,-2.4484,-2.3927,-2.3179,-2.2173,-2.0797,-1.9232,-1.7542,-1.5679,-1.3856,-1.2098,-1.0594,-0.87,-0.7149,-0.6218,-0.3704,-0.1462,0.0069,-0.0068,-0.0532,-0.1097,-0.2442,-0.3517,-0.4161,-0.5065,-0.5939,-0.6712,-0.681,-0.702,-0.7391,-0.7391,-0.7605,-0.7931,-0.8143,-0.8514,-0.8995,-0.8995,-0.9047,-0.9113,-0.9113,-0.9008,-0.8917,-0.9065,-0.9334,-0.9706,-1.0,-1.0294,-1.0624,-1.0624,-1.0624,-1.0624,-1.0624,-1.0498,-1.0308,-1.0174,-1.0296,-1.0327,-0.9846,-0.9545,-0.916,-0.8551,-0.8016,-0.7633,-0.7557,-0.7403,-0.7322,-0.7322,-0.7322,-0.7322,-0.7322,-0.7249,-0.7173,-0.7099,-0.6949,-0.6872,-0.6791,-0.6486,-0.6285,-0.6356,-0.6491,-0.6644,-0.6797,-0.6943,-0.7061,-0.7132,-0.7014,-0.6898,-0.682,-0.6603,-0.6441,-0.6373,-0.6298,-0.6338,-0.6338,-0.6338,-0.6338,-0.6338,-0.6338,-0.6338,-0.6338,-0.6338,-0.6338,-0.6338,-0.6338,-0.6338,-2.598,-2.5964,-2.5815,-2.4958,-2.458,-2.4163,0.0,0.0,0.0,-2.1975,-2.1315,-2.0381,-1.8858,-1.7358,-1.5827,-1.411,-1.2431,-1.076,-0.9203,-0.7859,-0.649,-0.5107,-0.3262,-0.1444,-0.0,-0.0,-0.0484,-0.1512,-0.2733,-0.3796,-0.4476,-0.5463,-0.644,-0.7475,-0.758,-0.7865,-0.8396,-0.8343,-0.8508,-0.8778,-0.8935,-0.9197,-0.951,-0.951,-0.951,-0.951,-0.9465,-0.9361,-0.9106,-0.9113,-0.9132,-0.9292,-0.9826,-1.0214,-1.0481,-1.0604,-1.0624,-1.0624,-1.0624,-1.0498,-1.0364,-1.0308,-1.0428,-1.0547,-1.0253,-0.9717,-0.9155,-0.878,-0.8174,-0.7638,-0.7407,-0.7176,-0.6942,-0.6865,-0.6865,-0.6865,-0.6791,-0.6788,-0.6788,-0.6788,-0.6637,-0.6563,-0.6563,-0.6412,-0.6298,-0.6413,-0.6454,-0.6563,-0.681,-0.6868,-0.6929,-0.7044,-0.6926,-0.679,-0.6668,-0.6519,-0.6383,-0.6345,-0.6338,-0.6338,-0.6338,-0.6338,-0.6338,-0.6338,-0.6338,-0.6338,-0.6338,-0.6338,-0.6338,-0.6338,-0.6338,-0.6338,-2.4997,-2.4799,-2.4567,-2.4287,-2.3994,-2.3697,-2.3255,0.0,-2.2006,-2.1349,0.0,-1.915,-1.795,0.0,0.0,-1.3515,-1.2045,-1.0525,-0.9134,-0.7797,-0.6173,-0.3985,-0.2649,-0.1672,-0.1161,-0.1743,-0.2439,-0.2991,-0.3854,-0.4847,-0.6063,-0.6993,-0.7902,-0.8912,-0.8838,-0.9026,-0.9406,-0.9302,-0.9354,-0.951,-0.9607,-0.9762,-0.9909,-0.9909,-0.9909,-0.9917,-0.9814,-0.9666,-0.951,-0.9413,-0.9386,-0.9376,-0.9657,-0.9913,-1.02,-1.0461,-1.0624,-1.0624,-1.0624,-1.0561,-1.0561,-1.0371,-1.0428,-1.0584,-1.0604,-1.0369,-0.9992,-0.9544,-0.8937,-0.8174,-0.7863,-0.7484,-0.7103,-0.6714,-0.6641,-0.6563,-0.6412,-0.6338,-0.6338,-0.6338,-0.6335,-0.6412,-0.6563,-0.6412,-0.6345,-0.6281,-0.639,-0.6485,-0.6519,-0.6644,-0.6732,-0.6749,-0.6614,-0.6519,-0.6502,-0.6366,-0.6278,-0.6264,-0.6338,-0.6338,-0.6338,-0.6338,-0.6338,-0.6338,-0.6338,-0.6338,-0.6338,-0.6338,-0.6338,-0.6338,-0.6338,-0.6338,-2.4328,-2.412,-2.3937,-2.3565,-2.3304,-2.2995,-2.2512,-2.1799,-2.1051,-2.0357,0.0,0.0,0.0,0.0,0.0,0.0,-1.1686,-1.0293,-0.9294,-0.8308,-0.697,-0.4894,-0.3647,-0.2893,-0.2529,-0.3597,-0.4267,-0.4199,-0.6367,-0.7846,-0.8264,-0.9022,-0.9833,-1.0632,-1.0651,-1.0753,-1.0872,-1.0813,-1.0762,-1.0669,-1.0712,-1.0779,-1.0846,-1.0846,-1.0846,-1.0744,-1.0694,-1.0446,-1.0035,-0.9932,-0.9702,-0.9535,-0.9639,-0.988,-1.0154,-1.0448,-1.0624,-1.0624,-1.0624,-1.0624,-1.0588,-1.069,-1.0712,-1.0721,-1.1089,-1.0942,-1.0625,-1.0404,-0.9911,-0.9306,-0.8699,-0.8169,-0.7791,-0.7253,-0.7022,-0.6872,-0.6567,-0.649,-0.6412,-0.6338,-0.6338,-0.6338,-0.6412,-0.6335,-0.6338,-0.6338,-0.6312,-0.638,-0.6461,-0.6529,-0.6603,-0.6692,-0.6563,-0.6471,-0.6471,-0.6342,-0.6338,-0.6338,-0.6338,-0.6338,-0.6338,-0.6338,-0.6338,-0.6338,-0.6338,-0.6338,-0.6338,-0.6338,-0.6338,-0.6338,-0.6338,-0.6338,-2.3696,-2.3523,-2.3334,-2.277,-2.2452,-2.2156,-2.1589,-2.0858,-2.0156,-1.9579,-1.8525,0.0,0.0,0.0,-1.3841,-1.2924,0.0,-1.0424,-0.9613,-0.8926,-0.7867,-0.6044,-0.5023,-0.4309,-0.4096,-0.5444,-0.6309,-0.6213,-0.9091,-1.0857,-1.0996,-1.1721,-1.2394,-1.2936,-1.2809,-1.2729,-1.2664,-1.2442,-1.2199,-1.1913,-1.1864,-1.1832,-1.1859,-1.1859,-1.181,-1.171,-1.161,-1.1301,-1.0838,-1.06,-1.0241,-0.9799,-0.9872,-0.9945,-1.0147,-1.0389,-1.0488,-1.0624,-1.0624,-1.0624,-1.0658,-1.0808,-1.0863,-1.0883,-1.1381,-1.1378,-1.1134,-1.1039,-1.0738,-1.0288,-0.9533,-0.9079,-0.8627,-0.8016,-0.7638,-0.7411,-0.6949,-0.6791,-0.6637,-0.6412,-0.6338,-0.6338,-0.6338,-0.6338,-0.6338,-0.6338,-0.6338,-0.6298,-0.6403,-0.6413,-0.6458,-0.6569,-0.6481,-0.6413,-0.6413,-0.6322,-0.6338,-0.6338,-0.6338,-0.6338,-0.6338,-0.6338,-0.6338,-0.6338,-0.6338,-0.6338,-0.6338,-0.6338,-0.6338,-0.6338,-0.6338,-0.6338,-2.3068,-2.274,-2.2374,-2.1793,-2.1458,-2.1118,-2.0709,-2.0105,-1.9512,-1.9093,-1.8061,-1.6982,-1.6245,-1.5144,-1.4042,-1.2915,-1.1952,0.0,0.0,-0.9549,-0.8632,-0.6936,-0.6279,-0.5905,-0.5905,-0.7237,-0.8522,-0.9582,-1.1696,-1.3415,-1.4452,-1.5196,-1.57,-1.6031,-1.5261,-1.4817,-1.4909,-1.4079,-1.349,-1.316,-1.3016,-1.2861,-1.2764,-1.2764,-1.2764,-1.2716,-1.2472,-1.2218,-1.1913,-1.146,-1.0897,-1.0352,-1.031,-1.0212,-1.0126,-1.014,-1.0314,-1.0624,-1.0624,-1.0624,-1.0624,-1.0631,-1.0762,-1.1049,-1.1349,-1.1497,-1.1566,-1.163,-1.1409,-1.0962,-1.0293,-0.9992,-0.9614,-0.8851,-0.8475,-0.8174,-0.7638,-0.7173,-0.6865,-0.6637,-0.6412,-0.6338,-0.6338,-0.6338,-0.6338,-0.6338,-0.6338,-0.6342,-0.6268,-0.6268,-0.6271,-0.6274,-0.6271,-0.6268,-0.6268,-0.6342,-0.6338,-0.6338,-0.6338,-0.6338,-0.6338,-0.6338,-0.6338,-0.6338,-0.6338,-0.6338,-0.6338,-0.6338,-0.6338,-0.6338,-0.6338,-0.6338,-2.2015,-2.1435,-2.0913,-2.059,-2.046,-2.0373,-2.0244,-1.9759,-1.9239,-1.8827,-1.7799,-1.681,-1.6315,-1.5309,-1.4297,-1.37,-1.2901,-1.2016,0.0,-1.0287,-0.9663,-0.9088,-0.8382,-0.811,-0.8513,-0.9835,-1.139,-1.2952,-1.4819,-1.6501,-1.7889,-1.8429,-1.8637,-1.8376,-1.7627,-1.702,-1.6645,-1.5745,-1.5016,-1.4503,-1.4329,-1.4061,-1.3732,-1.3732,-1.3647,-1.3467,-1.3372,-1.3112,-1.2764,-1.2335,-1.1792,-1.1158,-1.0677,-1.0371,-1.0234,-1.023,-1.0362,-1.0624,-1.0624,-1.0624,-1.0624,-1.0624,-1.0692,-1.0762,-1.1049,-1.1275,-1.1497,-1.1572,-1.164,-1.1558,-1.1111,-1.0812,-1.0513,-0.9836,-0.9463,-0.9013,-0.825,-0.7787,-0.7403,-0.7026,-0.6718,-0.6486,-0.6486,-0.6412,-0.6338,-0.6338,-0.6338,-0.6338,-0.6338,-0.6338,-0.6338,-0.6338,-0.6338,-0.6338,-0.6338,-0.6338,-0.6338,-0.6338,-0.6338,-0.6338,-0.6338,-0.6338,-0.6338,-0.6338,-0.6338,-0.6338,-0.6338,-0.6338,-0.6338,-0.6338,-0.6338,-0.6338,-2.1022,-2.042,-1.9905,-1.9628,-1.9486,-1.9451,-1.9623,-1.9228,-1.8799,-1.862,-1.7634,-1.6694,-1.6353,-1.5491,-1.4687,-1.4204,-1.3662,-1.2848,0.0,-1.1009,-1.0701,-1.0743,-1.0205,-1.0071,-1.0659,-1.2345,-1.4187,-1.6198,-1.8062,-1.9773,-2.1325,-2.1641,-2.1609,-2.123,-2.0065,-1.9182,-1.8731,-1.7489,-1.6579,-1.5966,-1.562,-1.5242,-1.488,-1.4755,-1.4593,-1.4455,-1.4326,-1.4071,-1.3684,-1.3236,-1.2618,-1.194,-1.1301,-1.0869,-1.0623,-1.0414,-1.0451,-1.0681,-1.0624,-1.0624,-1.0624,-1.0624,-1.0624,-1.0678,-1.0909,-1.1122,-1.1288,-1.1616,-1.186,-1.1879,-1.1681,-1.1484,-1.126,-1.0738,-1.0293,-0.9841,-0.916,-0.8623,-0.8089,-0.7714,-0.733,-0.6945,-0.6872,-0.6721,-0.657,-0.6338,-0.6338,-0.6338,-0.6338,-0.6338,-0.6338,-0.6338,-0.6338,-0.6338,-0.6338,-0.6338,-0.6338,-0.6338,-0.6338,-0.6338,-0.6338,-0.6338,-0.6338,-0.6338,-0.6338,-0.6338,-0.6338,-0.6338,-0.6338,-0.6338,-0.6338,-0.6338]},{"header":{"parameterUnit":"m.s-1","parameterCategory":1,"la1":30.6,"la2":29.2853,"lo1":-89.7004,"lo2":-87.6739,"dy":0.0162,"dx":0.0183,"nx":112,"ny":82,"refTime":"2024-07-02T00:00:00:Z","depth":0,"parameterNumber":3,"parameterNumberName":"V-component_of_WINDS"},"data":[0.0,0.0,0.0,0.0,0.0,0.0,0.0,0.0,0.0,0.0,0.0,0.0,0.0,0.0,0.0,0.0,0.0,0.0,0.0,0.0,0.0,0.0,0.0,0.0,0.0,0.0,0.0,0.0,0.0,0.0,0.0,0.0,0.0,0.0,0.0,0.0,0.0,0.0,0.0,0.0,0.0,0.0,0.0,0.0,0.0,0.0,0.0,0.0,0.0,0.0,0.0,0.0,0.0,0.0,0.0,0.0,0.0,0.0,0.0,0.0,0.0,0.0,0.0,0.0,0.0,0.0,0.0,0.0,0.0,0.0,0.0,0.0,0.0,0.0,0.0,0.0,0.0,0.0,0.0,0.0,0.0,0.0,0.0,0.0,0.0,0.0,0.0,0.0,0.0,0.0,-1.7724,-1.8091,-1.8035,-1.8237,-1.8895,-1.942,-1.9766,-1.9971,0.0,0.0,0.0,0.0,0.0,0.0,0.0,0.0,0.0,0.0,0.0,0.0,0.0,0.0,0.0,0.0,0.0,0.0,0.0,0.0,0.0,0.0,0.0,0.0,0.0,0.0,0.0,0.0,0.0,0.0,0.0,0.0,0.0,0.0,0.0,0.0,0.0,0.0,0.0,0.0,0.0,0.0,0.0,0.0,0.0,0.0,0.0,0.0,0.0,0.0,0.0,0.0,0.0,0.0,0.0,0.0,0.0,0.0,0.0,0.0,0.0,0.0,0.0,0.0,0.0,0.0,0.0,0.0,0.0,0.0,0.0,0.0,0.0,0.0,0.0,0.0,0.0,0.0,0.0,0.0,0.0,0.0,0.0,0.0,0.0,0.0,0.0,0.0,0.0,0.0,0.0,0.0,0.0,0.0,0.0,0.0,0.0,0.0,0.0,0.0,0.0,0.0,0.0,0.0,-1.7296,-1.7488,-1.7593,-1.7901,-1.8485,-1.9425,-2.0009,-2.0006,0.0,0.0,0.0,0.0,0.0,0.0,0.0,0.0,0.0,0.0,0.0,0.0,0.0,0.0,0.0,0.0,0.0,0.0,0.0,0.0,0.0,0.0,0.0,0.0,0.0,0.0,0.0,0.0,0.0,0.0,0.0,0.0,0.0,0.0,0.0,0.0,0.0,0.0,0.0,0.0,0.0,0.0,0.0,0.0,0.0,0.0,0.0,0.0,0.0,0.0,0.0,0.0,0.0,0.0,0.0,0.0,0.0,0.0,0.0,0.0,0.0,0.0,0.0,0.0,0.0,0.0,0.0,0.0,0.0,0.0,0.0,0.0,0.0,0.0,0.0,0.0,0.0,0.0,0.0,0.0,0.0,0.0,0.0,0.0,0.0,0.0,0.0,0.0,0.0,0.0,0.0,0.0,0.0,0.0,0.0,0.0,0.0,0.0,0.0,0.0,0.0,0.0,0.0,-1.7836,-1.7961,-1.7972,-1.8048,-1.837,-1.9026,-1.9426,-1.9783,-2.01,-2.0253,0.0,0.0,0.0,0.0,0.0,0.0,0.0,0.0,0.0,0.0,0.0,0.0,0.0,0.0,0.0,0.0,0.0,0.0,0.0,0.0,0.0,0.0,0.0,0.0,0.0,0.0,0.0,0.0,0.0,0.0,0.0,0.0,0.0,0.0,0.0,0.0,0.0,0.0,0.0,0.0,0.0,0.0,0.0,0.0,0.0,0.0,0.0,0.0,0.0,0.0,0.0,0.0,0.0,0.0,0.0,0.0,0.0,0.0,0.0,0.0,0.0,0.0,0.0,0.0,0.0,0.0,0.0,0.0,0.0,0.0,0.0,0.0,0.0,0.0,0.0,0.0,0.0,0.0,0.0,0.0,0.0,0.0,0.0,0.0,0.0,0.0,0.0,0.0,0.0,0.0,0.0,0.0,0.0,0.0,0.0,0.0,0.0,0.0,0.0,0.0,0.0,0.0,-1.8192,-1.8674,-1.8674,-1.8741,-1.9008,-1.966,-1.967,-1.9794,-2.0251,-2.0292,0.0,0.0,0.0,0.0,0.0,0.0,0.0,0.0,0.0,0.0,0.0,0.0,0.0,0.0,0.0,0.0,0.0,0.0,0.0,0.0,0.0,0.0,0.0,0.0,0.0,0.0,0.0,0.0,0.0,0.0,0.0,0.0,0.0,0.0,0.0,0.0,0.0,0.0,0.0,0.0,0.0,0.0,0.0,0.0,0.0,0.0,0.0,0.0,0.0,0.0,0.0,0.0,0.0,0.0,0.0,0.0,0.0,0.0,0.0,0.0,0.0,0.0,0.0,0.0,0.0,0.0,0.0,0.0,0.0,0.0,0.0,0.0,0.0,0.0,0.0,0.0,0.0,0.0,0.0,0.0,0.0,0.0,0.0,0.0,0.0,0.0,0.0,0.0,0.0,0.0,0.0,0.0,0.0,0.0,0.0,0.0,0.0,0.0,0.0,0.0,0.0,0.0,-1.8581,-1.9131,-1.9243,-1.9396,-1.966,-2.0042,-2.0353,-2.0472,-2.0495,-2.0625,0.0,0.0,0.0,0.0,0.0,0.0,0.0,0.0,0.0,0.0,0.0,0.0,0.0,0.0,0.0,0.0,0.0,0.0,0.0,0.0,0.0,0.0,0.0,0.0,0.0,0.0,0.0,0.0,0.0,0.0,0.0,0.0,0.0,0.0,0.0,0.0,0.0,0.0,0.0,0.0,0.0,0.0,0.0,0.0,0.0,0.0,0.0,0.0,0.0,0.0,0.0,0.0,0.0,0.0,0.0,0.0,0.0,0.0,0.0,0.0,0.0,0.0,0.0,0.0,0.0,0.0,0.0,0.0,0.0,0.0,0.0,0.0,0.0,0.0,0.0,0.0,0.0,0.0,0.0,0.0,0.0,0.0,0.0,0.0,0.0,0.0,0.0,0.0,0.0,0.0,0.0,0.0,0.0,0.0,0.0,0.0,0.0,0.0,0.0,0.0,0.0,0.0,-1.9528,-2.0053,-2.0107,-2.0183,-2.0256,-2.0261,-2.0254,-2.0229,-2.0185,0.0,0.0,0.0,0.0,0.0,0.0,0.0,0.0,0.0,0.0,0.0,0.0,0.0,0.0,0.0,0.0,0.0,0.0,0.0,0.0,0.0,0.0,0.0,0.0,0.0,0.0,0.0,0.0,0.0,0.0,0.0,0.0,0.0,0.0,0.0,0.0,0.0,0.0,0.0,0.0,0.0,0.0,0.0,0.0,0.0,0.0,0.0,0.0,0.0,0.0,0.0,0.0,0.0,0.0,0.0,0.0,0.0,0.0,0.0,0.0,0.0,0.0,0.0,0.0,0.0,0.0,0.0,0.0,0.0,0.0,0.0,0.0,0.0,0.0,0.0,0.0,0.0,0.0,0.0,0.0,0.0,0.0,0.0,0.0,0.0,0.0,0.0,0.0,0.0,0.0,0.0,0.0,0.0,0.0,0.0,0.0,0.0,0.0,0.0,0.0,0.0,0.0,-1.9572,-2.033,-2.0944,-2.1008,-2.0871,-2.0717,-2.0679,-2.0299,-2.0097,-2.0214,0.0,0.0,0.0,0.0,0.0,0.0,0.0,0.0,0.0,0.0,0.0,0.0,0.0,0.0,0.0,0.0,0.0,0.0,0.0,0.0,0.0,0.0,0.0,0.0,0.0,0.0,0.0,0.0,0.0,0.0,0.0,0.0,0.0,0.0,0.0,0.0,0.0,0.0,0.0,0.0,0.0,0.0,0.0,0.0,0.0,0.0,0.0,0.0,0.0,0.0,0.0,0.0,0.0,0.0,0.0,0.0,0.0,0.0,0.0,0.0,0.0,0.0,0.0,0.0,0.0,0.0,0.0,0.0,0.0,0.0,0.0,0.0,0.0,0.0,0.0,0.0,0.0,0.0,0.0,0.0,0.0,0.0,0.0,0.0,0.0,0.0,0.0,0.0,0.0,0.0,0.0,0.0,0.0,0.0,0.0,0.0,0.0,0.0,0.0,0.0,0.0,0.0,-2.0296,-2.1114,-2.1678,-2.1877,-2.1437,-2.114,-2.1284,-2.0609,-2.034,0.0,0.0,0.0,0.0,0.0,0.0,0.0,0.0,0.0,0.0,0.0,0.0,0.0,0.0,0.0,0.0,0.0,0.0,0.0,0.0,0.0,0.0,0.0,0.0,0.0,0.0,0.0,0.0,0.0,0.0,0.0,0.0,0.0,0.0,0.0,0.0,0.0,0.0,0.0,0.0,0.0,0.0,0.0,0.0,0.0,0.0,0.0,0.0,0.0,0.0,0.0,0.0,0.0,0.0,0.0,0.0,0.0,0.0,0.0,0.0,0.0,0.0,0.0,0.0,0.0,0.0,0.0,0.0,0.0,0.0,0.0,0.0,0.0,0.0,0.0,0.0,0.0,0.0,0.0,0.0,0.0,0.0,0.0,0.0,0.0,0.0,0.0,0.0,0.0,0.0,0.0,0.0,0.0,0.0,0.0,0.0,0.0,0.0,0.0,0.0,0.0,0.0,0.0,-2.0742,-2.1739,-2.2262,-2.1873,-2.175,-2.1464,-2.076,-2.0707,-2.0532,-2.0039,0.0,0.0,0.0,0.0,0.0,0.0,0.0,0.0,0.0,0.0,0.0,0.0,0.0,0.0,0.0,0.0,0.0,0.0,0.0,0.0,0.0,0.0,0.0,0.0,0.0,0.0,0.0,0.0,0.0,0.0,0.0,0.0,0.0,0.0,0.0,0.0,0.0,0.0,0.0,0.0,0.0,0.0,0.0,0.0,0.0,0.0,0.0,0.0,0.0,0.0,0.0,0.0,0.0,0.0,0.0,0.0,0.0,0.0,0.0,0.0,0.0,0.0,0.0,0.0,0.0,0.0,0.0,0.0,0.0,0.0,0.0,0.0,0.0,0.0,0.0,0.0,0.0,0.0,0.0,0.0,0.0,0.0,0.0,0.0,0.0,0.0,0.0,0.0,0.0,0.0,0.0,0.0,0.0,0.0,0.0,0.0,0.0,0.0,0.0,0.0,0.0,0.0,-2.1126,-2.1981,-2.2402,-2.2055,-2.1749,-2.1312,-2.0623,-2.0627,-2.0361,-1.9812,0.0,0.0,0.0,0.0,0.0,0.0,0.0,0.0,0.0,0.0,0.0,0.0,0.0,0.0,0.0,0.0,0.0,0.0,0.0,0.0,0.0,0.0,0.0,0.0,0.0,0.0,0.0,0.0,0.0,0.0,0.0,0.0,0.0,0.0,0.0,0.0,0.0,0.0,0.0,0.0,0.0,0.0,0.0,0.0,0.0,0.0,0.0,0.0,0.0,0.0,0.0,0.0,0.0,0.0,0.0,0.0,0.0,0.0,0.0,0.0,0.0,0.0,0.0,0.0,0.0,0.0,0.0,0.0,0.0,0.0,0.0,0.0,0.0,0.0,0.0,0.0,0.0,0.0,0.0,0.0,0.0,0.0,0.0,0.0,0.0,0.0,0.0,0.0,0.0,0.0,0.0,0.0,0.0,0.0,0.0,0.0,0.0,0.0,0.0,0.0,0.0,0.0,-2.1398,-2.1895,-2.2209,-2.2229,-2.1445,-2.096,-2.0885,-2.0514,-2.0122,-1.9911,0.0,0.0,0.0,0.0,0.0,0.0,0.0,0.0,0.0,0.0,0.0,0.0,0.0,0.0,0.0,0.0,0.0,0.0,0.0,0.0,0.0,0.0,0.0,0.0,0.0,0.0,0.0,0.0,0.0,0.0,0.0,0.0,0.0,0.0,0.0,0.0,0.0,0.0,0.0,0.0,0.0,0.0,0.0,0.0,0.0,0.0,0.0,0.0,0.0,0.0,0.0,0.0,0.0,0.0,0.0,0.0,0.0,0.0,0.0,0.0,-1.5417,-1.5551,0.0,0.0,0.0,0.0,0.0,0.0,0.0,0.0,0.0,0.0,0.0,0.0,0.0,0.0,0.0,0.0,0.0,0.0,0.0,0.0,0.0,0.0,0.0,0.0,0.0,0.0,0.0,0.0,0.0,0.0,0.0,0.0,0.0,0.0,0.0,0.0,0.0,0.0,0.0,0.0,-2.0952,-2.1496,-2.1771,-2.1555,-2.1406,-2.1159,-2.0686,-2.0638,-2.059,-2.0516,-2.162,0.0,0.0,0.0,0.0,0.0,0.0,0.0,0.0,0.0,0.0,0.0,0.0,0.0,0.0,0.0,0.0,0.0,0.0,0.0,0.0,0.0,0.0,0.0,0.0,0.0,0.0,0.0,0.0,0.0,0.0,0.0,0.0,0.0,0.0,0.0,0.0,0.0,0.0,0.0,0.0,0.0,0.0,0.0,0.0,0.0,0.0,0.0,0.0,0.0,0.0,0.0,0.0,0.0,0.0,0.0,0.0,0.0,0.0,0.0,-1.6168,-1.6211,0.0,0.0,0.0,0.0,0.0,0.0,0.0,0.0,0.0,0.0,0.0,0.0,0.0,0.0,0.0,0.0,0.0,0.0,0.0,0.0,0.0,0.0,0.0,0.0,0.0,0.0,0.0,0.0,0.0,0.0,0.0,0.0,0.0,0.0,0.0,0.0,0.0,0.0,0.0,0.0,-2.1412,-2.1609,-2.1613,-2.1407,-2.1208,-2.0848,-2.0285,-2.1165,-2.1867,-2.2066,-2.2797,0.0,0.0,0.0,0.0,0.0,0.0,0.0,0.0,0.0,0.0,0.0,0.0,0.0,0.0,0.0,0.0,0.0,0.0,0.0,0.0,0.0,0.0,0.0,0.0,0.0,0.0,0.0,0.0,0.0,0.0,0.0,0.0,0.0,0.0,0.0,0.0,0.0,0.0,0.0,0.0,0.0,0.0,0.0,0.0,0.0,0.0,0.0,0.0,0.0,0.0,0.0,0.0,0.0,-1.7881,-1.7599,-1.7378,-1.7378,-1.7321,-1.7255,-1.6871,-1.6783,-1.6867,-1.7047,0.0,0.0,0.0,0.0,0.0,0.0,0.0,0.0,0.0,0.0,0.0,0.0,0.0,0.0,0.0,0.0,0.0,0.0,0.0,0.0,0.0,0.0,-2.1886,-2.1987,-2.2339,-2.2498,-2.2103,0.0,0.0,0.0,0.0,0.0,0.0,0.0,0.0,0.0,0.0,0.0,-2.2085,-2.1931,-2.173,-2.1557,-2.1006,-2.0473,-2.0112,-2.1792,-2.312,-2.3568,-2.36,-2.3641,0.0,0.0,0.0,0.0,0.0,0.0,0.0,0.0,0.0,0.0,0.0,0.0,0.0,0.0,0.0,0.0,0.0,0.0,0.0,0.0,0.0,0.0,0.0,0.0,0.0,0.0,0.0,0.0,0.0,0.0,0.0,0.0,-1.267,-1.2512,0.0,0.0,0.0,0.0,0.0,0.0,0.0,0.0,0.0,0.0,0.0,0.0,0.0,-1.8016,-1.8745,-1.8971,-1.9062,-1.9121,-1.9062,-1.8838,-1.8397,-1.8397,-1.8546,-1.8755,-1.8824,0.0,-1.8448,-1.8462,0.0,0.0,0.0,0.0,0.0,0.0,0.0,0.0,0.0,0.0,0.0,0.0,0.0,0.0,0.0,0.0,0.0,0.0,0.0,0.0,0.0,0.0,-2.3533,-2.3993,-2.4567,-2.5023,-2.4964,-2.3869,-2.2812,-2.2578,-2.2444,-2.2214,0.0,0.0,0.0,0.0,0.0,0.0,-2.2264,-2.2153,-2.193,-2.1704,-2.1096,-2.0822,-2.1175,-2.2261,-2.3113,-2.357,-2.3598,-2.3721,-2.3943,-2.3794,0.0,0.0,0.0,0.0,0.0,0.0,0.0,0.0,0.0,0.0,0.0,0.0,0.0,0.0,0.0,0.0,0.0,0.0,0.0,0.0,0.0,0.0,0.0,0.0,0.0,0.0,0.0,0.0,0.0,-1.3296,-1.3446,-1.3365,-1.3354,-1.3293,0.0,0.0,0.0,0.0,0.0,0.0,0.0,0.0,0.0,-1.8043,-1.8437,-1.8951,-1.949,-1.9564,-1.9766,-2.0,-1.9756,-1.9541,-1.9346,-1.9174,-1.928,-1.9514,-2.0267,-2.0524,-2.0554,-2.0076,-2.0234,-2.0611,0.0,0.0,0.0,0.0,-2.2662,-2.3567,-2.3826,-2.4253,-2.4674,-2.4958,0.0,0.0,0.0,0.0,0.0,0.0,0.0,-2.3703,-2.4366,-2.4626,-2.4681,-2.4953,-2.5351,-2.5848,-2.6331,-2.6072,-2.553,-2.4912,-2.4577,-2.4155,-2.3589,-2.3318,0.0,0.0,0.0,-2.3423,-2.3778,-2.3356,-2.272,-2.2072,-2.1731,-2.1863,-2.2568,-2.3054,-2.3377,-2.3598,-2.3713,-2.3867,-2.4059,-2.4112,-2.407,0.0,0.0,0.0,0.0,0.0,0.0,0.0,0.0,0.0,0.0,0.0,0.0,0.0,0.0,0.0,0.0,0.0,0.0,0.0,0.0,0.0,0.0,0.0,0.0,0.0,0.0,0.0,0.0,-1.3812,-1.4126,-1.4187,-1.4301,-1.4197,0.0,0.0,0.0,0.0,0.0,0.0,-1.6608,-1.7281,-1.8043,-1.8908,-1.9296,-1.9648,-2.0078,-2.0164,-2.033,-2.0644,-2.0397,-2.0256,-2.0137,-2.0032,-2.0173,-2.0411,-2.1344,-2.2067,-2.2495,-2.1707,-2.1723,-2.2224,-2.2354,-2.2842,-2.3592,-2.3779,-2.4402,-2.519,-2.5512,-2.5957,-2.6583,-2.6938,-2.6891,-2.6745,-2.6602,0.0,0.0,0.0,0.0,-2.5203,-2.5799,-2.5854,-2.5728,-2.5728,-2.6046,-2.6594,-2.7409,-2.7891,-2.79,-2.6999,-2.6512,-2.5999,-2.5405,-2.4924,0.0,-2.4888,-2.4685,-2.4638,-2.5076,-2.4747,-2.3918,-2.2517,-2.25,-2.2832,-2.3526,-2.3687,-2.3729,-2.3699,-2.3857,-2.407,-2.4197,-2.4359,-2.43,-2.3983,0.0,0.0,0.0,0.0,0.0,0.0,0.0,0.0,0.0,0.0,0.0,0.0,0.0,0.0,0.0,0.0,0.0,0.0,0.0,0.0,0.0,0.0,0.0,0.0,0.0,0.0,0.0,0.0,0.0,-1.4351,-1.4263,0.0,0.0,0.0,0.0,-1.5756,-1.6808,-1.7629,-1.8045,-1.8405,-1.8908,-1.9601,-1.9817,-2.0088,-2.0527,-2.0779,-2.0886,-2.0906,-2.1262,-2.1257,-2.0849,-2.105,-2.1324,-2.1763,-2.2125,-2.2978,-2.4036,-2.3285,-2.3222,-2.3607,-2.3649,-2.3911,-2.4316,-2.4641,-2.5317,-2.6192,-2.675,-2.7247,-2.7672,-2.8166,-2.8243,-2.8211,-2.8211,-2.8111,0.0,0.0,-2.7723,-2.736,-2.7389,-2.701,-2.6616,-2.6616,-2.7108,-2.7813,-2.8465,-2.9088,-2.9215,-2.8288,-2.8077,-2.7856,-2.728,0.0,-2.6539,-2.6848,-2.6475,-2.5979,-2.5532,-2.6088,-2.558,-2.3115,-2.3238,-2.3569,-2.3596,-2.4006,-2.4152,-2.39,-2.4128,-2.4337,-2.4457,-2.467,-2.4918,-2.5291,-2.5182,0.0,0.0,0.0,0.0,0.0,0.0,0.0,0.0,0.0,0.0,0.0,0.0,0.0,0.0,0.0,0.0,0.0,0.0,0.0,0.0,0.0,0.0,0.0,0.0,0.0,0.0,0.0,0.0,-1.5608,-1.5739,0.0,-1.6349,-1.6628,-1.6858,-1.7142,-1.7788,-1.8378,-1.8788,-1.9108,-1.9601,-2.0034,-2.0352,-2.0584,-2.0819,-2.1128,-2.1359,-2.1502,-2.1731,-2.1876,-2.1859,-2.2232,-2.2529,-2.2823,-2.3374,-2.4054,-2.4719,-2.4826,-2.4895,-2.4941,-2.5107,-2.5376,-2.569,-2.6105,-2.6631,-2.7288,-2.7811,-2.8452,-2.9018,-2.974,-2.9956,-2.9827,-2.9479,-2.9218,-2.9045,-2.8753,-2.8533,-2.8312,-2.8013,-2.7803,-2.7577,-2.7099,-2.7254,-2.7659,-2.8184,-2.8899,-2.9415,-2.9421,-2.9588,-2.9525,-2.8868,-2.8641,-2.8325,-2.7686,-2.7559,-2.7378,-2.6747,-2.6996,-2.6909,-2.6033,-2.6396,-2.5895,-2.4,-2.4696,-2.4882,-2.4097,-2.44,-2.4686,-2.4735,-2.5153,-2.5476,-2.5733,-2.5791,-2.5864,0.0,0.0,0.0,0.0,0.0,0.0,0.0,0.0,0.0,0.0,0.0,0.0,0.0,0.0,0.0,0.0,0.0,0.0,0.0,0.0,0.0,0.0,0.0,0.0,0.0,-1.5851,-1.6423,-1.6973,-1.7108,-1.7367,-1.7859,-1.8004,-1.8227,-1.8527,-1.8892,-1.925,-1.9602,-1.9851,-2.0139,-2.0498,-2.0829,-2.1061,-2.1205,-2.1655,-2.2025,-2.2176,-2.2617,-2.2916,-2.2979,-2.3423,-2.3644,-2.3863,-2.4432,-2.4933,-2.5312,-2.5886,-2.6094,-2.6094,-2.6233,-2.6508,-2.6837,-2.7297,-2.7762,-2.8235,-2.8944,-2.9588,-3.0144,-3.0747,-3.0999,-3.0984,-3.0557,-3.0352,-3.0176,-2.9864,-2.9584,-2.9315,-2.8803,-2.8477,-2.8151,-2.7484,-2.7386,-2.7616,-2.8165,-2.8708,-2.9273,-3.0093,-3.0499,-3.0616,-3.0178,-2.9915,-2.949,-2.8729,-2.8483,-2.8174,-2.7467,-2.753,-2.7576,-2.7601,-2.8107,-2.7628,-2.5757,-2.6055,-2.5846,-2.4729,-2.512,-2.529,-2.5192,-2.561,-2.5937,-2.6063,-2.6474,-2.674,-2.673,0.0,0.0,0.0,0.0,0.0,0.0,0.0,0.0,0.0,0.0,0.0,0.0,0.0,0.0,0.0,0.0,0.0,0.0,0.0,0.0,0.0,0.0,0.0,-1.7304,-1.7116,-1.737,-1.8101,-1.8202,-1.8286,-1.8536,-1.8892,-1.9278,-1.9668,-2.012,-2.042,-2.0566,-2.0566,-2.0654,-2.0906,-2.1138,-2.1436,-2.1807,-2.2402,-2.2852,-2.3075,-2.3863,-2.4227,-2.4227,-2.4576,-2.4862,-2.5016,-2.5229,-2.5535,-2.598,-2.6289,-2.6688,-2.704,-2.704,-2.7242,-2.7564,-2.8065,-2.8505,-2.8925,-2.9936,-3.0555,-3.097,-3.119,-3.1379,-3.1452,-3.1467,-3.1482,-3.1482,-3.1482,-3.1046,-3.0387,-2.9744,-2.9101,-2.8457,-2.7739,-2.7625,-2.7754,-2.8427,-2.8592,-2.8966,-3.0208,-3.0787,-3.1117,-3.1132,-3.0585,-3.0122,-2.9913,-2.9167,0.0,-2.7675,-2.762,-2.7633,-2.7622,-2.8122,-2.8545,-2.8803,-2.8034,-2.7064,-2.5905,-2.631,-2.6322,-2.5798,-2.6112,-2.6327,-2.6485,-2.7328,-2.7942,-2.8412,0.0,0.0,0.0,0.0,0.0,0.0,0.0,0.0,0.0,0.0,0.0,0.0,0.0,0.0,0.0,0.0,0.0,0.0,0.0,0.0,0.0,-1.8929,-1.8539,-1.7862,-1.8033,-1.8394,-1.8939,-1.9005,-1.9203,-1.9736,-1.9947,-2.0091,-2.0313,-2.043,-2.0566,-2.0566,-2.0566,-2.0654,-2.0906,-2.1359,-2.1807,-2.2252,-2.315,-2.3728,-2.3986,-2.4504,-2.4874,-2.5016,-2.5229,-2.5382,-2.5453,-2.5931,-2.6151,-2.6289,-2.685,-2.7255,-2.7577,-2.7577,-2.7525,-2.74,-2.8097,-2.8424,-2.8711,-2.9231,-2.9587,-2.9885,-3.0514,-3.072,-3.0881,-3.1317,-3.1482,-3.1482,-3.1482,-3.1405,-3.0986,-2.9864,-2.9445,-2.9011,-2.791,-2.7625,-2.7619,-2.7814,-2.8336,-2.8839,-2.92,-3.0301,-3.1237,-3.1334,-3.1332,-3.1069,-3.0217,-2.9667,-2.8897,-2.7754,-2.7951,-2.8174,-2.8179,-2.8621,-2.8936,-2.9023,-2.8494,-2.7806,-2.6993,-2.7437,-2.7673,-2.7498,-2.7894,-2.8169,-2.8277,-2.8443,-2.8572,0.0,0.0,0.0,0.0,0.0,0.0,0.0,0.0,0.0,0.0,0.0,0.0,0.0,0.0,0.0,0.0,0.0,0.0,0.0,0.0,0.0,0.0,-2.0247,-1.9912,-1.9624,-1.9436,-1.9483,-1.9937,-1.9899,-1.9995,-2.0391,-2.042,-2.0489,-2.0566,-2.0566,-2.0644,-2.0731,-2.0731,-2.0964,-2.1359,-2.1883,-2.2478,-2.315,-2.3948,-2.4515,-2.4933,-2.5312,-2.5535,-2.5676,-2.5898,-2.6037,-2.6094,-2.6496,-2.6701,-2.6905,-2.7443,-2.7775,-2.7809,0.0,0.0,0.0,0.0,-2.867,-2.8946,-2.9112,-2.9277,-2.9516,-2.9998,-3.0298,-3.0582,-3.0986,-3.13,-3.1482,-3.1482,-3.1482,-3.1225,-2.9978,-2.9702,-2.9357,-2.8142,-2.7825,-2.7875,-2.794,-2.8293,-2.8693,-2.9002,-2.9843,0.0,-3.15,-3.181,-3.1698,-3.1074,-3.0643,-2.9858,-2.8431,-2.8512,-2.8826,-2.9234,-2.9374,-2.9434,-2.9489,-2.9235,0.0,0.0,0.0,-2.8733,-2.8548,-2.8774,0.0,0.0,0.0,0.0,0.0,0.0,0.0,0.0,-3.0969,-3.1446,0.0,0.0,0.0,0.0,0.0,0.0,0.0,0.0,0.0,0.0,0.0,0.0,0.0,0.0,0.0,0.0,-2.1576,-2.1577,-2.1843,-2.102,-2.0512,-2.0777,-2.0653,-2.0498,-2.0498,-2.0537,-2.0644,-2.0644,-2.0644,-2.0731,-2.0984,-2.0984,0.0,0.0,0.0,-2.3298,-2.4261,-2.4814,-2.5241,-2.5676,-2.605,-2.6201,-2.627,-2.6396,-2.6589,-2.6782,-2.6973,-2.731,-2.7656,-2.809,-2.8135,-2.7858,-2.7646,-2.7939,-2.8531,-2.8595,-2.8822,-2.9109,-2.9109,0.0,0.0,-2.9499,-2.9888,-3.0368,-3.0518,-3.0983,-3.1492,-3.1567,-3.1537,-3.1249,-3.0126,-2.9803,-2.9531,-2.8492,-2.8235,-2.8284,-2.8396,-2.8444,-2.8647,-2.9301,-2.957,-3.0071,-3.1455,-3.1843,-3.2006,-3.2033,-3.1785,-3.1031,-2.9404,-2.9227,-2.9601,-3.0457,-3.0202,0.0,-3.0134,-3.0098,-2.9894,-2.9469,-2.9709,-2.966,-2.9262,-2.9228,-2.955,-3.0226,-3.0226,-3.0509,-3.1015,-3.184,-3.2144,-3.2,-3.325,-3.3487,0.0,0.0,0.0,0.0,0.0,0.0,0.0,0.0,0.0,0.0,0.0,0.0,0.0,0.0,0.0,-2.3296,-2.3323,-2.3153,-2.288,-2.2186,-2.1345,-2.0472,-2.019,-2.0039,-2.0039,-2.0361,-2.0654,-2.0819,-2.0829,-2.0974,-2.1359,-2.1502,-2.1959,-2.2553,-2.315,-2.3801,-2.4576,-2.5158,-2.5688,-2.6062,-2.6327,0.0,-2.6465,-2.6589,-2.6782,-2.6973,-2.7443,-2.7842,-2.8117,-2.8283,-2.8036,-2.7653,-2.747,-2.7765,-2.8148,-2.7786,-2.7758,-2.7912,-2.7912,-2.7949,-2.809,-2.8748,-2.9056,-2.9358,-3.0684,-3.118,0.0,-3.2023,-3.1864,-3.1213,-3.0492,-2.9915,-2.94,-2.8632,-2.8511,-2.8606,-2.8654,-2.8811,-2.8998,-2.9155,-2.9909,-3.0605,-3.0845,-3.1227,-3.1643,-3.2249,-3.2257,-3.1635,-2.9948,-3.0027,-3.044,-3.0974,-3.0836,-3.0655,-3.0606,-3.0567,-3.0543,-3.041,-3.0637,-3.0746,-3.0768,-3.0768,-3.0835,-3.097,-3.0987,-3.1055,-3.1151,-3.2486,-3.3144,-3.3094,-3.3812,-3.3996,0.0,0.0,0.0,0.0,0.0,0.0,0.0,0.0,0.0,0.0,0.0,-2.3521,-2.3358,0.0,-2.3485,-2.3838,-2.3478,-2.3138,-2.311,-2.2179,-2.1285,-2.0659,-2.0325,-2.0259,-2.0491,-2.0712,-2.103,-2.1339,-2.1436,-2.1655,-2.2101,-2.2327,-2.2767,-2.3559,-2.3936,-2.4515,-2.5312,-2.5688,-2.605,-2.6339,-2.6465,-2.6521,-2.6589,-2.6782,-2.704,-2.7443,-2.7987,-2.8333,-2.8394,-2.8203,-2.8022,-2.7905,-2.7545,-2.7548,-2.7728,-2.7556,-2.7524,-2.7625,-2.7675,-2.7675,-2.7786,-2.8334,-2.8753,-2.9185,-3.0063,-3.0612,-3.1056,-3.1449,-3.131,-3.0959,-3.0413,-3.0011,-2.972,-2.9232,-2.9196,-2.9287,-2.9438,-2.9544,-2.9677,-2.9689,-3.0124,-3.0598,-3.1127,-3.0855,-3.1135,-3.2602,-3.2043,-3.1221,-3.0639,-3.0733,-3.0941,-3.1158,-3.1066,-3.0891,-3.0825,-3.0824,-3.0855,-3.0952,-3.1015,-3.1151,-3.119,-3.119,-3.119,-3.119,-3.119,-3.119,-3.119,-3.2307,-3.3034,-3.3423,-3.4037,-3.4488,0.0,0.0,0.0,0.0,0.0,0.0,0.0,-2.4973,-2.5228,-2.5053,-2.5097,-2.5001,-2.4259,-2.4112,-2.4123,-2.4064,-2.3462,-2.3066,-2.3179,-2.2212,-2.1341,-2.1094,-2.0656,-2.0544,-2.1011,-2.1125,-2.1449,-2.1993,-2.2176,-2.2478,-2.299,-2.3139,-2.3632,-2.4564,-2.4779,-2.5229,-2.598,-2.6119,-2.6327,-2.6521,-2.6602,-2.6726,-2.685,-2.7108,-2.7443,-2.7973,-2.8515,-2.8677,-2.8507,-2.81,-2.8036,-2.8137,-2.7646,-2.7503,-2.7503,-2.7575,-2.7625,-2.7625,-2.774,-2.784,-2.789,-2.822,-2.8719,-2.928,-2.9635,-3.0219,-3.0754,-3.093,-3.0917,-3.073,-3.0386,-3.0227,-3.0128,-2.9939,-2.9924,-2.9984,-3.0231,-3.0274,-3.0316,-3.0335,-3.0311,-3.0534,-3.1314,-3.0742,-3.0908,-3.3141,-3.1862,-3.0764,-3.1148,-3.1213,-3.1204,-3.1217,-3.1093,-3.1043,-3.0952,-3.1032,-3.1095,-3.119,-3.119,-3.119,-3.119,-3.119,-3.119,-3.119,-3.119,-3.119,-3.119,-3.1918,-3.2594,-3.322,-3.4083,-3.4895,-2.4191,-2.4567,-2.5097,-2.5205,-2.5938,-2.6416,0.0,-2.6193,-2.6682,-2.613,-2.617,-2.6144,-2.5563,-2.5442,-2.523,-2.468,-2.457,-2.4313,-2.3573,-2.2991,-2.2403,-2.1684,-2.0775,-2.0413,-2.0949,-2.1352,-2.1944,-2.2809,-2.2852,-2.3213,-2.3998,-2.4143,-2.4564,-2.5158,-2.5382,-2.5676,-2.6131,-2.6302,-2.6496,-2.6658,-2.7066,-2.7201,-2.7268,-2.7709,-2.8118,-2.856,-2.8998,-2.88,-2.8169,-2.8222,-2.8033,-2.7679,-2.772,-2.774,-2.774,-2.7625,-2.7625,-2.7625,-2.774,-2.7905,-2.8054,-2.8527,-2.8763,-2.9187,-3.0302,-3.0728,-3.0967,-3.1783,-3.1599,-3.114,-3.1104,-3.0702,-3.0281,-3.0225,-3.0326,-3.0426,-3.0468,-3.0568,-3.0617,-3.0493,-3.0707,-3.0828,-3.067,-3.0858,-3.1742,-3.3694,-3.2352,-3.116,-3.1183,-3.1196,-3.1185,-3.1185,-3.1168,-3.1151,-3.1151,-3.119,-3.119,-3.119,-3.119,-3.119,-3.119,-3.119,-3.119,-3.119,-3.119,-3.119,-3.119,-3.1918,-3.2324,-3.2442,-3.3846,-3.4895,-2.5484,-2.5592,-2.5764,-2.6442,-2.6962,-2.7238,-2.6969,-2.7217,-2.7504,-2.7413,-2.7134,-2.6736,-2.6136,-2.559,-2.5025,-2.4426,-2.4045,-2.3642,-2.322,-2.2811,-2.2476,-2.2011,-2.1533,-2.1271,-2.1497,-2.2045,-2.2677,-2.3327,-2.391,-2.436,-2.4802,-2.5016,-2.5312,-2.5828,-2.591,-2.6119,-2.6465,-2.6633,-2.6905,-2.7188,-2.7456,-2.7723,-2.8039,-2.8287,-2.8675,-2.8984,-2.8713,-2.8462,-2.8201,-2.7973,-2.7763,-2.7625,-2.774,-2.784,-2.7905,-2.794,-2.7925,-2.7989,-2.822,-2.8414,-2.859,-2.9074,-2.9348,-2.9665,-3.031,-3.0539,-3.0707,-3.1106,-3.1018,-3.083,-3.0872,-3.0725,-3.0535,-3.0658,-3.0757,-3.0814,-3.0895,-3.0935,-3.0975,-3.0925,-3.1038,-3.1078,-3.0937,-3.1083,-3.1461,-3.2297,-3.1732,-3.1219,-3.1219,-3.1224,-3.119,-3.119,-3.119,-3.119,-3.119,-3.119,-3.119,-3.119,-3.119,-3.123,-3.1252,-3.1252,-3.1312,-3.1445,-3.1445,-3.1483,-3.1538,-3.179,-3.211,-3.2571,-3.3539,-3.4372,-2.6184,-2.6222,-2.6242,-2.7088,-2.7558,-2.7784,-2.7707,-2.775,-2.7756,-2.7891,-2.75,-2.6988,-2.6303,-2.5699,-2.5048,-2.4292,-2.3675,-2.3271,-2.2969,-2.2726,-2.2543,-2.2371,-2.2185,-2.2139,-2.2208,-2.2709,-2.3279,-2.3862,-2.4719,-2.5312,-2.5535,-2.5688,-2.591,-2.627,-2.627,-2.6396,-2.6714,-2.6985,-2.7323,-2.7656,-2.8039,-2.8417,-2.8789,-2.8941,-2.8993,-2.8915,-2.8374,-2.8127,-2.8062,-2.7769,-2.7675,-2.7675,-2.7925,-2.8073,-2.822,-2.8494,-2.8446,-2.8301,-2.8685,-2.8904,-2.909,-2.9589,-2.9897,-3.014,-3.0393,-3.0535,-3.0651,-3.0692,-3.0692,-3.0733,-3.0814,-3.0814,-3.0855,-3.1015,-3.1072,-3.1072,-3.119,-3.119,-3.119,-3.119,-3.119,-3.119,-3.119,-3.119,-3.119,-3.119,-3.119,-3.119,-3.119,-3.123,-3.123,-3.123,-3.1269,-3.1269,-3.1269,-3.1269,-3.1269,-3.1308,-3.1308,-3.1368,-3.1428,-3.1449,-3.1524,-3.1691,-3.1711,-3.1765,-3.1839,-3.1765,-3.2107,-3.2827,-3.3459,-3.4148,-2.5796,-2.6135,-2.6453,-2.6744,-2.7512,-2.8015,-2.7364,-2.7408,-2.7474,-2.6926,-2.698,-2.6859,-2.6073,-2.5988,-2.5673,-2.4509,-2.4041,-2.37,-2.3198,-2.3078,-2.2969,-2.2739,-2.269,-2.2775,-2.2931,-2.3251,-2.3764,-2.4414,-2.5163,-2.5758,-2.6131,-2.6201,-2.627,-2.6465,-2.6465,-2.6589,-2.6714,-2.7188,-2.7656,-2.7973,-2.8853,-2.9373,-2.9594,-2.9559,-2.907,-2.813,-2.8246,-2.8018,-2.7655,-2.774,-2.779,-2.784,-2.8286,-2.8559,-2.8732,-2.9348,-2.912,-2.8559,-2.8935,-2.9198,-2.9396,-2.9973,-3.0241,-3.0393,-3.0838,-3.0975,-3.1015,-3.1151,-3.119,-3.119,-3.119,-3.119,-3.119,-3.119,-3.119,-3.119,-3.119,-3.119,-3.119,-3.119,-3.119,-3.119,-3.119,-3.119,-3.119,-3.119,-3.119,-3.119,-3.119,-3.1252,-3.1295,-3.1295,-3.1406,-3.1479,-3.1479,-3.1479,-3.15,-3.1579,-3.1579,-3.1671,-3.18,-3.1839,-3.1894,-3.1894,-3.1932,-3.2003,-3.2003,-3.2003,-3.2348,-3.3107,-3.3852,-3.4535,-2.6037,-2.6088,-2.6098,-2.6508,-2.6545,-2.6615,-2.7135,-2.6957,-2.6836,-2.7421,-2.7091,-2.6627,-2.6467,-2.5857,-2.5238,-2.4811,-2.4274,-2.3772,-2.333,-2.3198,-2.3017,-2.2848,-2.317,-2.3343,-2.335,-2.3786,-2.4244,-2.4847,-2.5728,-2.6258,-2.6396,-2.6396,-2.6396,-2.6533,-2.6589,-2.6794,-2.7066,-2.7709,-2.8099,-2.8201,-2.87,-2.8972,-2.9074,-2.8832,-2.8523,-2.8201,-2.798,-2.7769,-2.7625,-2.774,-2.784,-2.8005,-2.8431,-2.8795,-2.9028,-2.9661,-2.975,-2.9677,-2.9821,-2.9968,-3.0172,-3.0526,-3.0733,-3.0797,-3.1055,-3.1151,-3.1151,-3.119,-3.119,-3.119,-3.119,-3.119,-3.119,-3.119,-3.119,-3.119,-3.119,-3.119,-3.119,-3.119,-3.119,-3.119,-3.119,-3.119,-3.119,-3.119,-3.119,-3.119,-3.119,-3.1274,-3.1351,-3.1406,-3.1521,-3.1596,-3.1688,-3.1688,-3.1726,-3.1785,-3.1785,-3.1894,-3.2126,-3.2144,-3.2266,-3.2468,-3.2502,-3.2619,-3.2734,-3.2619,-3.2942,-3.3722,-3.423,-3.4888,-2.5893,-2.5972,-2.5989,-2.6226,-2.6093,-2.6128,-2.701,-2.6709,-2.6472,-2.7247,-2.6937,-2.6541,-2.6441,-2.5859,-2.5317,-2.5065,-2.4434,-2.3865,-2.3463,-2.321,-2.3078,-2.2909,-2.3393,-2.374,-2.3759,-2.4329,-2.4851,-2.5197,-2.6002,-2.6533,-2.6533,-2.6521,-2.6589,-2.6589,-2.6794,-2.6963,-2.717,-2.7798,-2.8249,-2.8488,-2.884,-2.8925,-2.8744,-2.853,-2.8256,-2.8055,-2.7754,-2.7675,-2.7675,-2.7974,-2.8122,-2.8317,-2.8889,-2.9257,-2.9544,-3.0113,-3.0384,-3.0468,-3.0452,-3.0493,-3.0609,-3.0871,-3.0975,-3.1015,-3.1151,-3.119,-3.119,-3.119,-3.119,-3.119,-3.119,-3.119,-3.119,-3.119,-3.119,-3.119,-3.119,-3.119,-3.119,-3.1196,-3.1179,-3.1201,-3.1189,-3.1334,-3.144,-3.1475,-3.144,-3.1385,-3.1252,-3.1351,-3.1466,-3.1634,-3.1746,-3.1893,-3.2037,-3.2037,-3.2091,-3.2214,-3.2214,-3.2335,-3.2588,-3.2603,-3.2734,-3.2939,-3.2988,-3.3068,-3.3196,-3.3068,-3.3544,-3.4569,-3.4833,-3.5509,-2.5435,-2.5785,-2.6113,-2.5915,-2.6129,-2.6523,-2.6892,-2.6597,-2.6328,-2.6488,-2.6598,-2.6511,-2.6104,-2.6016,-2.5821,-2.5162,-2.4637,-2.4073,-2.3522,-2.321,-2.3017,-2.2909,-2.3393,-2.3813,-2.4239,-2.4967,-2.5411,-2.5411,-2.607,-2.6521,-2.6483,-2.6607,-2.6663,-2.6637,-2.7043,-2.7117,-2.6878,-2.7547,-2.8222,-2.8861,-2.9094,-2.897,-2.8547,-2.8547,-2.8188,-2.7625,-2.774,-2.784,-2.789,-2.8334,-2.8606,-2.8779,-2.9528,-3.0,-3.0274,-3.0733,-3.0952,-3.0975,-3.0773,-3.0733,-3.0773,-3.0935,-3.1015,-3.1015,-3.1151,-3.119,-3.119,-3.119,-3.119,-3.119,-3.119,-3.123,-3.123,-3.123,-3.123,-3.123,-3.1213,-3.1213,-3.1179,-3.1189,-3.1244,-3.1287,-3.1247,-3.1588,-3.1871,-3.1994,-3.1888,-3.1709,-3.1372,-3.1504,-3.1691,-3.1894,-3.2091,-3.2284,-3.2489,-3.2523,-3.2606,-3.2795,-3.2813,-3.2925,-3.3117,-3.319,-3.322,-3.322,-3.3345,-3.3422,-3.3422,-3.3422,-3.4178,-3.562,-3.562,-3.6402,-2.5551,-2.5605,-2.564,-2.5418,-2.5304,-2.5485,-2.6536,-2.6302,-2.6055,-2.6802,-2.6503,-2.6211,-2.6495,-2.5861,-2.5465,-2.5791,-2.4964,-2.4189,-2.3819,-2.3283,-2.2969,-2.2909,-2.3145,-2.3558,-2.4239,-2.4725,-2.5099,-2.5289,-2.607,-2.6264,-2.5837,-2.6025,-2.5914,-2.5431,-2.6,-2.643,-2.6583,-2.7321,-2.7919,-2.8468,-2.8152,-2.7993,-2.7829,-2.7829,-2.779,-2.774,-2.7905,-2.8054,-2.8299,-2.8637,-2.8951,-2.9198,-2.987,-3.0156,-3.0309,-3.0797,-3.0975,-3.1015,-3.1072,-3.1072,-3.1072,-3.1151,-3.1151,-3.1151,-3.119,-3.119,-3.123,-3.1274,-3.1274,-3.1312,-3.1385,-3.144,-3.144,-3.144,-3.1393,-3.1329,-3.1223,-3.1192,-3.1179,-3.1199,-3.1903,-3.2433,-3.228,-3.2193,-3.2124,-3.2001,-3.1966,-3.1894,-3.1709,-3.1856,-3.202,-3.2179,-3.2404,-3.2573,-3.2787,-3.2787,-3.2866,-3.3006,-3.3006,-3.3147,-3.3375,-3.3404,-3.3473,-3.3587,-3.3587,-3.3661,-3.3698,-3.3661,-3.4436,-3.5976,-3.5859,-3.6667,-2.5634,-2.558,-2.5503,-2.5367,-2.5138,-2.527,-2.663,-2.6389,-2.619,-2.7116,-2.6673,-2.6245,-2.6635,-2.591,-2.5345,-2.5802,-2.5063,-2.4247,-2.376,-2.3163,-2.2739,-2.2616,-2.2819,-2.3128,-2.3506,-2.4026,-2.4408,-2.4651,-2.5505,-2.5782,-2.5285,-2.5521,-2.5498,-2.5243,-2.5861,-2.6418,-2.6803,-2.7154,-2.7554,-2.7906,-2.7703,-2.7625,-2.7625,-2.7675,-2.774,-2.789,-2.8122,-2.8365,-2.8653,-2.909,-2.9454,-2.9754,-3.03,-3.0551,-3.0658,-3.0975,-3.1112,-3.1112,-3.119,-3.123,-3.1252,-3.123,-3.119,-3.119,-3.119,-3.119,-3.123,-3.1274,-3.1295,-3.1351,-3.1483,-3.1538,-3.1576,-3.1634,-3.1568,-3.1485,-3.147,-3.1315,-3.1319,-3.1652,-3.2564,-3.3228,-3.2998,-3.2838,-3.2679,-3.2504,-3.2486,-3.247,-3.2386,-3.2301,-3.2335,-3.2588,-3.2719,-3.293,-3.3135,-3.3165,-3.3208,-3.3339,-3.3339,-3.3444,-3.3615,-3.3633,-3.3671,-3.3753,-3.3753,-3.378,-3.3807,-3.378,-3.4596,-3.619,-3.609,-3.6936,-2.5701,-2.5651,-2.5576,-2.5517,-2.5318,-2.5473,-2.6862,-2.6672,-2.6477,-2.7366,-2.6935,-2.6445,-2.6677,-2.594,-2.538,-2.5572,-2.4894,-2.4118,-2.345,-2.2921,-2.2432,-2.2123,-2.2242,-2.2398,-2.235,-2.2904,-2.3364,-2.3616,-2.445,-2.4868,-2.4668,-2.4938,-2.5216,-2.5376,-2.6054,-2.6648,-2.714,-2.7055,-2.7196,-2.7452,-2.7524,-2.7625,-2.7625,-2.779,-2.789,-2.8103,-2.8431,-2.8764,-2.909,-2.9617,-3.0027,-3.0316,-3.0733,-3.0952,-3.1015,-3.1151,-3.119,-3.119,-3.119,-3.1252,-3.1295,-3.1213,-3.123,-3.123,-3.123,-3.123,-3.1269,-3.1351,-3.1389,-3.1449,-3.1617,-3.1691,-3.1765,-3.1913,-3.181,-3.1689,-3.1777,-3.1603,-3.1673,-3.2422,-3.3229,-3.3701,-3.3454,-3.3355,-3.3255,-3.3165,-3.3147,-3.3147,-3.3147,-3.2852,-3.2705,-3.3024,-3.3117,-3.3238,-3.3491,-3.3491,-3.3577,-3.3698,-3.3698,-3.3726,-3.3807,-3.3807,-3.3807,-3.3807,-3.3807,-3.3807,-3.3807,-3.3807,-3.4651,-3.6303,-3.6303,-3.7165,-2.5703,-2.5657,-2.5571,-2.5529,-2.5343,-2.552,-2.682,-2.6634,-2.6435,-2.7198,-2.6706,-2.6262,-2.6635,-2.5742,-2.5055,-2.5544,-2.4584,-2.359,-2.309,-2.2347,-2.1788,-2.1588,-2.1076,-2.1034,-2.1529,-2.1598,-2.1909,-2.2598,-2.3083,-2.3506,-2.3878,-2.418,-2.458,-2.4927,-2.5644,-2.6256,-2.6789,-2.7137,-2.7386,-2.7575,-2.7575,-2.7675,-2.779,-2.7905,-2.8137,-2.8431,-2.8842,-2.9257,-2.9661,-3.0054,-3.0368,-3.0651,-3.0895,-3.0975,-3.1015,-3.1151,-3.119,-3.119,-3.119,-3.1252,-3.1295,-3.1312,-3.1368,-3.144,-3.144,-3.15,-3.1559,-3.1671,-3.1819,-3.1984,-3.2073,-3.2214,-3.2318,-3.2177,-3.2155,-3.2092,-3.183,-3.2222,-3.2787,-3.3422,-3.3604,-3.3599,-3.3497,-3.3424,-3.3382,-3.3364,-3.3364,-3.3364,-3.3404,-3.3238,-3.3147,-3.3304,-3.3375,-3.3462,-3.3577,-3.3577,-3.3633,-3.3698,-3.3698,-3.3726,-3.3807,-3.3807,-3.3807,-3.3807,-3.3807,-3.3807,-3.3807,-3.3807,-3.4651,-3.6303,-3.6303,-3.7165,-2.5641,-2.5619,-2.5579,-2.5512,-2.532,-2.5359,-2.6227,-2.6204,-2.6086,-2.6387,-2.6051,-2.568,-2.5663,-2.4867,-2.4207,-2.4272,-2.3625,-2.2847,-2.2199,-2.1565,-2.0985,-2.0537,-2.0042,-1.9811,-2.0036,-2.0268,-2.0665,-2.1285,-2.2004,-2.2648,-2.3232,-2.3831,-2.4419,-2.5018,-2.5674,-2.6272,-2.687,-2.7248,-2.7488,-2.7625,-2.7675,-2.779,-2.7905,-2.8171,-2.8431,-2.8842,-2.9257,-2.9705,-3.0097,-3.0452,-3.0716,-3.0855,-3.1032,-3.1134,-3.1157,-3.1235,-3.1308,-3.1363,-3.1291,-3.1351,-3.1466,-3.1466,-3.1559,-3.1651,-3.1709,-3.1748,-3.1858,-3.1965,-3.2073,-3.2179,-3.237,-3.2472,-3.2537,-3.2559,-3.2577,-3.2642,-3.2816,-3.3118,-3.3454,-3.3731,-3.3764,-3.3694,-3.364,-3.3642,-3.3605,-3.3605,-3.3605,-3.3633,-3.3643,-3.3569,-3.3512,-3.3549,-3.3577,-3.3633,-3.3698,-3.3698,-3.3726,-3.3753,-3.3753,-3.378,-3.3807,-3.3807,-3.3807,-3.3807,-3.3807,-3.3807,-3.3807,-3.3807,-3.4431,-3.5642,-3.6083,-3.6927,-2.5603,-2.5585,-2.5557,-2.5495,-2.5264,-2.5146,-2.5574,-2.5649,-2.5596,-2.5497,-2.5215,-2.4838,-2.4417,-2.3595,-2.2948,-2.2639,-2.2206,-2.1637,-2.0962,-2.0386,-1.9868,-1.9299,-1.8977,-1.8664,-1.8607,-1.9008,-1.9594,-2.0226,-2.1376,-2.2334,-2.2969,-2.3721,-2.4421,-2.5118,-2.5784,-2.6447,-2.7003,-2.7299,-2.7488,-2.7625,-2.774,-2.789,-2.8103,-2.8446,-2.8842,-2.9257,-2.9705,-3.0097,-3.0435,-3.0773,-3.0992,-3.1055,-3.1173,-3.1291,-3.1351,-3.1334,-3.1445,-3.1538,-3.1428,-3.1542,-3.1691,-3.1728,-3.1819,-3.1893,-3.1984,-3.2091,-3.2196,-3.2283,-3.237,-3.2472,-3.2654,-3.2752,-3.2813,-3.2985,-3.3063,-3.3205,-3.3691,-3.3785,-3.3806,-3.3806,-3.3817,-3.3799,-3.3799,-3.3798,-3.3807,-3.3807,-3.3807,-3.3807,-3.3807,-3.3807,-3.378,-3.3726,-3.3726,-3.3753,-3.3807,-3.3807,-3.3807,-3.3807,-3.3807,-3.3807,-3.3807,-3.3807,-3.3807,-3.3807,-3.3807,-3.3807,-3.3807,-3.3807,-3.4211,-3.5009,-3.5899,-3.6725,-2.5593,-2.5551,-2.5485,-2.5421,-2.5122,-2.4898,-2.519,-2.5147,-2.5005,-2.4763,-2.4338,-2.3852,-2.3245,-2.2055,-2.1107,-2.1055,-2.0114,-1.938,-1.9259,-1.8736,-1.8335,-1.8162,-1.7823,-1.7619,-1.7774,-1.8192,-1.8798,-1.977,-2.1388,-2.2665,-2.3343,-2.3852,-2.4363,-2.5005,-2.5865,-2.6525,-2.7003,-2.7386,-2.7575,-2.7625,-2.774,-2.8005,-2.8348,-2.8685,-2.9166,-2.975,-3.0081,-3.0493,-3.0855,-3.0935,-3.1072,-3.119,-3.1274,-3.1368,-3.1517,-3.1559,-3.1671,-3.1763,-3.1763,-3.1819,-3.1894,-3.2108,-3.2144,-3.2179,-3.2249,-3.2486,-3.2731,-3.2731,-3.2908,-3.3129,-3.3129,-3.3232,-3.3325,-3.3368,-3.3533,-3.3735,-3.3789,-3.3798,-3.3798,-3.3798,-3.378,-3.3807,-3.3807,-3.3807,-3.3807,-3.3807,-3.3807,-3.3807,-3.3807,-3.3807,-3.3807,-3.3807,-3.3807,-3.3788,-3.3807,-3.3807,-3.3807,-3.3807,-3.3807,-3.3807,-3.3807,-3.3807,-3.3807,-3.3807,-3.3807,-3.3807,-3.3807,-3.3807,-3.4211,-3.5009,-3.5899,-3.6725,-2.5434,-2.5395,-2.5331,-2.5212,-2.4872,-2.447,-2.4142,-2.419,-2.4087,-2.314,-2.2869,-2.2415,-2.1296,-2.0147,-1.9214,-1.889,-1.827,-1.7861,-1.7726,-1.7603,-1.732,-1.6673,-1.6643,-1.6705,-1.6821,-1.7491,-1.8643,-2.042,-2.1245,-2.1994,-2.2812,-2.3379,-2.3843,-2.4135,-2.4911,-2.5474,-2.5903,-2.6247,-2.6636,-2.7139,-2.7334,-2.7885,-2.87,-2.9136,-2.9617,-3.014,-3.0493,-3.0757,-3.0992,-3.1072,-3.1151,-3.119,-3.1274,-3.1466,-3.1688,-3.1785,-3.2002,-3.2214,-3.2126,-3.2161,-3.2266,-3.2353,-3.2489,-3.2639,-3.2687,-3.288,-3.3117,-3.3147,-3.3238,-3.3345,-3.3357,-3.3437,-3.3505,-3.3405,-3.3616,-3.3798,-3.3807,-3.3807,-3.3807,-3.3807,-3.3807,-3.3807,-3.3807,-3.3807,-3.3807,-3.3807,-3.3807,-3.3807,-3.3807,-3.3807,-3.3807,-3.3807,-3.3807,-3.3807,-3.3807,-3.3807,-3.3807,-3.3807,-3.3807,-3.3807,-3.3807,-3.3807,-3.3807,-3.3807,-3.3807,-3.3807,-3.3807,-3.3807,-3.4211,-3.5009,-3.5899,-3.6725,-2.5188,-2.5113,-2.5018,-2.4766,-2.4358,-2.3836,-2.3147,-2.311,-2.2831,-2.1684,-2.1248,-2.0669,-1.9162,-1.8046,-1.7134,-1.6504,-1.6169,-1.5904,-1.5797,-1.588,-1.5738,-1.5129,-1.5414,-1.5721,-1.585,-1.7139,-1.8649,-2.0475,-2.0915,-2.1354,-2.1933,-2.2577,-2.3111,-2.3616,-2.4262,-2.482,-2.5191,-2.5458,-2.5886,-2.6509,-2.6793,-2.7535,-2.8682,-2.9179,-2.9772,-3.0452,-3.0773,-3.0992,-3.1072,-3.1151,-3.123,-3.1252,-3.1351,-3.1617,-3.1965,-3.2127,-3.2386,-3.2657,-3.2555,-3.2606,-3.269,-3.2705,-3.2866,-3.3073,-3.3147,-3.3286,-3.3393,-3.3481,-3.3491,-3.352,-3.3577,-3.3606,-3.3652,-3.3534,-3.3661,-3.3807,-3.3807,-3.3807,-3.3807,-3.3807,-3.3807,-3.3807,-3.3807,-3.3807,-3.3807,-3.3807,-3.3807,-3.3807,-3.3807,-3.3807,-3.3807,-3.3807,-3.3807,-3.3807,-3.3807,-3.3807,-3.3807,-3.3807,-3.3807,-3.3807,-3.3807,-3.3807,-3.3807,-3.3807,-3.3807,-3.3807,-3.3807,-3.3807,-3.4211,-3.5009,-3.5899,-3.6853,-2.4816,-2.4648,-2.4436,-2.4097,-2.3569,-2.297,-2.2434,-2.1903,-2.1307,-2.0481,-1.9615,-1.8589,-1.7115,-1.5851,-1.4782,-1.4048,-1.3483,-1.3248,-1.3522,-1.3374,-1.3306,-1.3532,-1.4074,-1.4548,-1.4864,-1.7051,-1.8726,-1.9389,-2.0473,-2.0969,-2.0648,-2.1368,-2.2358,-2.3575,-2.4262,-2.482,-2.5191,-2.5458,-2.5661,-2.5816,-2.6168,-2.6958,-2.8151,-2.864,-2.9551,-3.0692,-3.0895,-3.1055,-3.119,-3.119,-3.1252,-3.1334,-3.1504,-3.1821,-3.2214,-3.2506,-3.2752,-3.3006,-3.3086,-3.3086,-3.3117,-3.316,-3.3268,-3.3422,-3.3549,-3.3605,-3.3605,-3.3671,-3.3753,-3.3807,-3.3807,-3.3807,-3.3807,-3.3807,-3.3807,-3.3807,-3.3807,-3.3807,-3.3807,-3.3807,-3.3807,-3.3807,-3.3807,-3.3807,-3.3807,-3.3807,-3.3807,-3.3807,-3.3807,-3.3807,-3.3807,-3.3807,-3.3807,-3.3807,-3.3807,-3.3807,-3.3807,-3.3807,-3.3807,-3.3807,-3.3807,-3.3807,-3.3807,-3.3807,-3.3807,-3.3807,-3.3807,-3.3807,-3.4211,-3.5009,-3.5899,-3.7165,-2.3768,-2.3462,-2.3102,-2.2664,-2.1936,-2.1167,-2.0578,-1.9889,-1.9189,-1.8423,-1.742,-1.6287,-1.4984,-1.3787,-1.2811,-1.2394,-1.215,-1.2044,-1.2043,-1.2425,-1.252,-1.2139,-1.3273,-1.4496,-1.5551,-1.7276,-1.8527,-1.9167,-1.9886,-2.0399,-2.0611,-2.1029,-2.165,-2.2602,-2.3173,-2.3652,-2.403,-2.4253,-2.47,-2.5407,-2.5772,-2.663,-2.7879,-2.8805,-2.9573,-3.0197,-3.0836,-3.1173,-3.1274,-3.1274,-3.1351,-3.1542,-3.1728,-3.2055,-3.2438,-3.277,-3.3055,-3.3286,-3.3345,-3.3375,-3.3375,-3.3404,-3.3433,-3.3491,-3.3633,-3.3671,-3.3671,-3.3753,-3.378,-3.3807,-3.3807,-3.3807,-3.3807,-3.3807,-3.3807,-3.3807,-3.3807,-3.3807,-3.3807,-3.3807,-3.3807,-3.3807,-3.3807,-3.3807,-3.3807,-3.3807,-3.3807,-3.3807,-3.3807,-3.3807,-3.3807,-3.3807,-3.3807,-3.3807,-3.3807,-3.3807,-3.3807,-3.3807,-3.3807,-3.3807,-3.3807,-3.3807,-3.3807,-3.3807,-3.3807,-3.3807,-3.3807,-3.3807,-3.4523,-3.5917,-3.6725,-3.7679,-2.2014,-2.1797,-2.1273,-2.0727,-1.9861,-1.8956,-1.8391,-1.7555,-1.6726,-1.609,-1.5031,-1.3829,-1.2748,-1.1589,-1.0721,-1.0236,-1.0149,-1.0094,-1.0021,-1.0622,-1.1075,-1.1313,-1.2594,-1.4083,-1.5534,-1.6853,-1.7935,-1.8574,-1.9205,-1.974,-2.0285,-2.0692,-2.1334,-2.2296,-2.2709,-2.3127,-2.3538,-2.3754,-2.4222,-2.4921,-2.5352,-2.619,-2.7396,-2.8234,-2.9082,-2.9921,-3.0548,-3.1036,0.0,-3.1466,-3.16,-3.1875,-3.2055,-3.237,-3.2737,-3.3073,-3.3298,-3.352,-3.3605,-3.3587,-3.3587,-3.3587,-3.3587,-3.3633,-3.3726,-3.3726,-3.3753,-3.3807,-3.3807,-3.3807,-3.3807,-3.3807,-3.3807,-3.3807,-3.3807,-3.3807,-3.3807,-3.3807,-3.3807,-3.3807,-3.3807,-3.3807,-3.3807,-3.3807,-3.3807,-3.3807,-3.3807,-3.3807,-3.3807,-3.3807,-3.3807,-3.3807,-3.3807,-3.3807,-3.3807,-3.3807,-3.3807,-3.3807,-3.3807,-3.3807,-3.3807,-3.3807,-3.3807,-3.3807,-3.3807,-3.3807,-3.3807,-3.41,-3.4798,-3.5844,-3.6964,-3.7753,0.0,-1.9551,-1.8942,-1.8281,-1.7304,-1.6363,-1.5813,-1.4925,0.0,-1.3645,-1.2494,-1.1312,-1.0335,-0.9432,-0.8539,-0.7717,-0.7685,-0.7705,-0.7628,-0.8143,-0.9128,-1.0829,-1.1928,-1.3135,-1.4909,-1.6043,-1.6905,-1.7657,-1.8361,-1.9065,-1.9772,-2.0446,-2.1321,-2.2466,-2.2754,-2.3113,-2.3595,-2.3882,-2.4193,-2.4539,-2.495,-2.5715,-2.6787,-2.723,-2.8289,-2.9859,-3.0099,-3.0687,-3.1517,-3.1726,-3.1984,-3.2249,-3.2456,-3.2787,-3.3165,-3.3334,-3.352,-3.3698,-3.378,-3.3807,-3.3807,-3.3807,-3.3807,-3.3807,-3.3807,-3.3807,-3.3807,-3.3807,-3.3807,-3.3807,-3.3807,-3.3807,-3.3807,-3.3807,-3.3807,-3.3807,-3.3807,-3.3807,-3.3807,-3.3807,-3.3807,-3.3807,-3.3807,-3.3807,-3.3807,-3.3807,-3.3807,-3.3807,-3.3807,-3.3807,-3.3807,-3.3807,-3.3807,-3.3807,-3.3807,-3.3807,-3.3807,-3.3807,-3.3807,-3.3807,-3.3807,-3.3807,-3.3807,-3.3807,-3.3807,-3.3807,-3.3807,-3.4559,-3.4935,-3.5027,-3.6597,-3.7379,-1.4513,0.0,-1.6248,-1.5453,-1.4471,-1.3542,0.0,-1.214,-1.1304,-1.0909,-0.9907,-0.8796,-0.7925,-0.7229,-0.6595,-0.6145,-0.6391,-0.6551,-0.6341,-0.6991,-0.8011,-0.9551,-1.079,-1.2025,-1.352,-1.5138,-1.6262,-1.6789,-1.7919,-1.8943,-1.9592,-2.0396,-2.1321,-2.2466,-2.2754,-2.3157,-2.3739,-2.4051,-2.4385,-2.4751,-2.5285,-2.5835,-2.6363,-2.7253,-2.8205,-2.9262,-2.9932,-3.0745,-3.1596,-3.1858,-3.2162,-3.2521,-3.2784,-3.3073,-3.3364,-3.3491,-3.3633,-3.3698,-3.378,-3.3807,-3.3807,-3.3807,-3.3807,-3.3807,-3.3807,-3.3807,-3.3807,-3.3807,-3.3807,-3.3807,-3.3807,-3.3807,-3.3807,-3.3807,-3.3807,-3.3807,-3.3807,-3.3807,-3.3807,-3.3807,-3.3807,-3.3807,-3.3807,-3.3807,-3.3807,-3.3807,-3.3807,-3.3807,-3.3807,-3.3807,-3.3807,-3.3807,-3.3807,-3.3807,-3.3807,-3.3807,-3.3807,-3.3807,-3.3807,-3.3807,-3.3807,-3.3807,-3.3807,-3.3807,-3.3807,-3.3807,-3.3807,-3.399,-3.4412,-3.5009,-3.5394,-3.5954,-1.1436,-1.2423,-1.3527,-1.2793,-1.1926,-1.108,-1.05,-0.9697,-0.892,-0.8398,0.0,-0.6552,-0.592,-0.5176,-0.4597,-0.4417,-0.4628,-0.5017,-0.55,-0.6221,-0.7119,-0.8435,-0.9734,-1.1081,-1.2484,-1.4072,-1.5305,-1.6297,-1.7312,-1.8368,-1.9527,-2.0232,-2.121,-2.2466,-2.2754,-2.3246,-2.3952,-2.4219,-2.463,-2.5091,-2.5567,-2.5974,-2.6312,-2.694,-2.7634,-2.8484,-2.9391,-3.0343,-3.1265,-3.1952,-3.2488,-3.2848,-3.3086,-3.3345,-3.3549,-3.3633,-3.3671,-3.3753,-3.3807,-3.3807,-3.3807,-3.3807,-3.3807,-3.3807,-3.3807,-3.3807,-3.3807,-3.3807,-3.3807,-3.3807,-3.3807,-3.3807,-3.3807,-3.3807,-3.3807,-3.3807,-3.3807,-3.3807,-3.3807,-3.3807,-3.3807,-3.3807,-3.3807,-3.3807,-3.3807,-3.3807,-3.3807,-3.3807,-3.3807,-3.3807,-3.3807,-3.3807,-3.3807,-3.3807,-3.3807,-3.3807,-3.3807,-3.3807,-3.3807,-3.3807,-3.3807,-3.3807,-3.3807,-3.3807,-3.3807,-3.3807,-3.3807,-3.3807,-3.4027,-3.4468,-3.4825,-3.5247,-0.9234,-0.9901,-1.0616,-1.0314,-0.9638,-0.897,-0.831,0.0,0.0,0.0,0.0,-0.4607,-0.4042,-0.3371,-0.2875,-0.2797,-0.3066,-0.3712,-0.4916,-0.5618,-0.6379,-0.7542,-0.8787,-1.0237,-1.1668,-1.292,-1.432,-1.5908,-1.6634,-1.7754,-1.9463,-2.0131,-2.1099,-2.2466,-2.2799,-2.3334,-2.412,-2.44,-2.4806,-2.5416,-2.577,-2.6118,-2.6453,-2.6589,-2.7079,-2.7928,-2.8766,-2.9799,-3.089,-3.1948,-3.2681,-3.3147,-3.3364,-3.3549,-3.3726,-3.3726,-3.3753,-3.3807,-3.3807,-3.3807,-3.3807,-3.3807,-3.3807,-3.3807,-3.3807,-3.3807,-3.3807,-3.3807,-3.3807,-3.3807,-3.3807,-3.3807,-3.3807,-3.3807,-3.3807,-3.3807,-3.3807,-3.3807,-3.3807,-3.3807,-3.3807,-3.3807,-3.3807,-3.3807,-3.3807,-3.3807,-3.3807,-3.3807,-3.3807,-3.3807,-3.3807,-3.3807,-3.3807,-3.3807,-3.3807,-3.3807,-3.3807,-3.3807,-3.3807,-3.3807,-3.3807,-3.3807,-3.3807,-3.3807,-3.3807,-3.3807,-3.3807,-3.3807,-3.3807,-3.3825,-3.4504,-3.4807,-0.7043,-0.6726,-0.6958,-0.8105,-0.7865,-0.7151,-0.648,-0.5794,0.0,0.0,0.0,-0.3076,-0.2443,-0.2143,-0.1972,-0.2019,-0.2823,-0.37,-0.4408,-0.5101,-0.5849,-0.6845,-0.8001,-0.9344,-1.0837,-1.2201,-1.3709,-1.5223,-1.6353,-1.7699,-1.9359,-2.0232,-2.1272,-2.2466,-2.2979,-2.3566,-2.4261,-2.4467,-2.491,-2.5567,-2.599,-2.633,-2.6657,-2.6809,-2.7317,-2.8134,-2.8423,-2.9453,-3.0992,-3.1515,-3.2309,-3.322,-3.3473,-3.3661,-3.378,-3.378,-3.3807,-3.3807,-3.3807,-3.3807,-3.3807,-3.3807,-3.3807,-3.3807,-3.3807,-3.3807,-3.3807,-3.3807,-3.3807,-3.3807,-3.3807,-3.3807,-3.3807,-3.3807,-3.3807,-3.3807,-3.3807,-3.3807,-3.3807,-3.3807,-3.3807,-3.3807,-3.3807,-3.3807,-3.3807,-3.3807,-3.3807,-3.3807,-3.3807,-3.3807,-3.3807,-3.3807,-3.3807,-3.3807,-3.3807,-3.3807,-3.3807,-3.3807,-3.3807,-3.3807,-3.3807,-3.3807,-3.3807,-3.3807,-3.3807,-3.3807,-3.3807,-3.3807,-3.3807,-3.3807,-3.3935,-3.399,-0.5657,-0.5199,-0.5027,-0.5788,-0.5956,-0.5886,-0.5379,-0.4804,-0.4056,0.0,-0.2528,-0.1945,-0.148,-0.1277,-0.1297,-0.1953,-0.2978,-0.3822,-0.4385,-0.5165,-0.5892,-0.6587,-0.7883,-0.9158,-1.0419,-1.1918,-1.3473,-1.5031,-1.6017,-1.7306,-1.8929,-1.9536,-2.0541,-2.2087,-2.2615,-2.3393,-2.4467,-2.4751,-2.5185,-2.577,-2.6099,-2.6452,-2.6792,-2.6876,-2.7162,-2.7652,-2.8228,-2.9253,-3.0645,-3.1386,-3.2367,-3.3386,-3.3587,-3.3726,-3.3807,-3.3807,-3.3807,-3.3807,-3.3807,-3.3807,-3.3807,-3.3807,-3.3807,-3.3807,-3.3807,-3.3807,-3.3807,-3.3807,-3.3807,-3.3807,-3.3807,-3.3807,-3.3807,-3.3807,-3.3807,-3.3807,-3.3807,-3.3807,-3.3807,-3.3807,-3.3807,-3.3807,-3.3807,-3.3807,-3.3807,-3.3807,-3.3807,-3.3807,-3.3807,-3.3807,-3.3807,-3.3807,-3.3807,-3.3807,-3.3807,-3.3807,-3.3807,-3.3807,-3.3807,-3.3807,-3.3807,-3.3807,-3.3807,-3.3807,-3.3807,-3.3807,-3.3807,-3.3807,-3.3807,-3.3807,-3.3807,-3.3807,-0.4395,-0.3925,-0.3576,-0.3626,-0.4189,-0.4708,-0.4472,-0.3849,-0.3054,-0.2402,-0.1684,-0.111,-0.083,-0.0837,-0.1228,-0.2267,-0.3276,-0.409,-0.454,-0.5371,-0.6122,-0.6567,-0.7841,-0.9128,-1.0288,-1.1888,-1.3434,-1.4859,-1.5815,-1.7017,-1.8462,-1.8908,-1.9915,-2.1571,-2.2256,-2.3208,-2.438,-2.4973,-2.5476,-2.5934,-2.6189,-2.6538,-2.6942,-2.7007,-2.712,-2.731,-2.8056,-2.9004,-3.0135,-3.1172,-3.2227,-3.3265,-3.357,-3.3753,-3.3807,-3.3807,-3.3807,-3.3807,-3.3807,-3.3807,-3.3807,-3.3807,-3.3807,-3.3807,-3.3807,-3.3807,-3.3807,-3.3807,-3.3807,-3.3807,-3.3807,-3.3807,-3.3807,-3.3807,-3.3807,-3.3807,-3.3807,-3.3807,-3.3807,-3.3807,-3.3807,-3.3807,-3.3807,-3.3807,-3.3807,-3.3807,-3.3807,-3.3807,-3.3807,-3.3807,-3.3807,-3.3807,-3.3807,-3.3807,-3.3807,-3.3807,-3.3807,-3.3807,-3.3807,-3.3807,-3.3807,-3.3807,-3.3807,-3.3807,-3.3807,-3.3807,-3.3807,-3.3807,-3.3807,-3.3807,-3.3807,-3.3807,-0.2961,-0.24,-0.2015,-0.1922,-0.2727,-0.3587,-0.3395,-0.2616,-0.1891,-0.1531,-0.0966,-0.0529,-0.0378,-0.1002,-0.1955,-0.3132,-0.3764,-0.4385,-0.4977,-0.5636,-0.6287,-0.6749,-0.7915,-0.9262,-1.0647,-1.2135,-1.3459,-1.4524,-1.5944,-1.7145,-1.8109,-1.9021,-2.0014,-2.1019,-2.2293,-2.3247,-2.3856,-2.5062,-2.5775,-2.599,-2.6243,-2.6624,-2.7103,-2.7279,-2.7509,-2.776,-2.7964,-2.8642,-2.9699,-3.0594,-3.1574,-3.2557,-3.3396,-3.3753,-3.3807,-3.3807,-3.3807,-3.3807,-3.3807,-3.3807,-3.3807,-3.3807,-3.3807,-3.3807,-3.3807,-3.3807,-3.3807,-3.3807,-3.3807,-3.3807,-3.3807,-3.3807,-3.3807,-3.3807,-3.3807,-3.3807,-3.3807,-3.3807,-3.3807,-3.3807,-3.3807,-3.3807,-3.3807,-3.3807,-3.3807,-3.3807,-3.3807,-3.3807,-3.3807,-3.3807,-3.3807,-3.3807,-3.3807,-3.3807,-3.3807,-3.3807,-3.3807,-3.3807,-3.3807,-3.3807,-3.3807,-3.3807,-3.3807,-3.3807,-3.3807,-3.3807,-3.3807,-3.3807,-3.3807,-3.3807,-3.3807,-3.3807,-0.219,-0.1686,-0.1347,-0.1349,-0.159,-0.1972,-0.2172,-0.1821,-0.1384,-0.102,-0.0595,-0.0454,-0.0606,-0.1204,-0.202,-0.3216,-0.4006,-0.4692,-0.5263,-0.5996,-0.6631,-0.7189,-0.8538,-0.9761,-1.0829,-1.2358,-1.3762,-1.4782,-1.5799,-1.6787,-1.7718,-1.8412,-1.9305,-2.0577,-2.14,-2.2583,-2.4169,-2.481,-2.5565,-2.6399,-2.6556,-2.6858,-2.7293,-2.7404,-2.763,-2.7922,-2.8025,-2.8665,-2.9692,-3.0115,-3.0846,-3.178,-3.2682,-3.3028,-3.3109,-3.3623,-3.3807,-3.3807,-3.3807,-3.3807,-3.3807,-3.3807,-3.3807,-3.3807,-3.3807,-3.3807,-3.3807,-3.3807,-3.3807,-3.3807,-3.3807,-3.3807,-3.3807,-3.3807,-3.3807,-3.3807,-3.3807,-3.3807,-3.3807,-3.3807,-3.3807,-3.3807,-3.3807,-3.3807,-3.3807,-3.3807,-3.3807,-3.3807,-3.3807,-3.3807,-3.3807,-3.3807,-3.3807,-3.3807,-3.3807,-3.3807,-3.3807,-3.3807,-3.3807,-3.3807,-3.3807,-3.3807,-3.3807,-3.3807,-3.3807,-3.3807,-3.3807,-3.3807,-3.3807,-3.3807,-3.3807,-3.3807,-0.1484,-0.1079,-0.0779,-0.0735,-0.0683,-0.0696,-0.0992,-0.1009,-0.0875,-0.0583,-0.0369,-0.0374,-0.0898,-0.1399,-0.2108,-0.3415,-0.4257,-0.4924,-0.5599,-0.6291,-0.6949,-0.7606,-0.8867,-1.0076,-1.1001,-1.2539,-1.3858,-1.479,-1.5735,-1.6681,-1.7532,-1.8099,-1.8945,-2.0221,-2.0935,-2.2252,-2.4194,-2.4755,-2.5613,-2.6792,-2.6989,-2.7213,-2.7465,-2.763,-2.7864,-2.8164,-2.8246,-2.8738,-2.9471,-2.9835,-3.0501,-3.1407,-3.1983,-3.2394,-3.2687,-3.322,-3.3587,-3.3807,-3.3807,-3.3807,-3.3807,-3.3807,-3.3807,-3.3807,-3.3807,-3.3807,-3.3807,-3.3807,-3.3807,-3.3807,-3.3807,-3.3807,-3.3807,-3.3807,-3.3807,-3.3807,-3.3807,-3.3807,-3.3807,-3.3807,-3.3807,-3.3807,-3.3807,-3.3807,-3.3807,-3.3807,-3.3807,-3.3807,-3.3807,-3.3807,-3.3807,-3.3807,-3.3815,-3.3815,-3.3815,-3.3842,-3.3842,-3.3815,-3.3815,-3.3815,-3.3807,-3.3807,-3.3807,-3.3807,-3.3807,-3.3807,-3.3807,-3.3807,-3.3807,-3.3807,-3.3807,-3.3807,-0.0826,-0.0452,-0.0195,0.0,0.0,0.0,0.0,-0.014,-0.0291,-0.0291,-0.0146,-0.0218,-0.102,-0.1455,-0.225,-0.3844,-0.4404,-0.5026,-0.6,-0.6534,-0.7204,-0.7917,-0.8902,-0.9959,-1.1108,-1.256,-1.3686,-1.4461,-1.5915,-1.7024,-1.7571,-1.8369,-1.9161,-1.997,-2.1113,-2.238,-2.3769,-2.4913,-2.6061,-2.7213,-2.7535,-2.7689,-2.7617,-2.8007,-2.8309,-2.8492,-2.8644,-2.8785,-2.896,-2.9747,-3.0601,-3.1366,-3.1384,-3.188,-3.2596,-3.2614,-3.3109,-3.3807,-3.3807,-3.3807,-3.3807,-3.3807,-3.3807,-3.3807,-3.3807,-3.3807,-3.3807,-3.3807,-3.3807,-3.3807,-3.3807,-3.3807,-3.3807,-3.3807,-3.3807,-3.3807,-3.3807,-3.3807,-3.3807,-3.3807,-3.3807,-3.3807,-3.3807,-3.3807,-3.3807,-3.3807,-3.3807,-3.3807,-3.3807,-3.3807,-3.3807,-3.3807,-3.3842,-3.3895,-3.3895,-3.3947,-3.3972,-3.3895,-3.3895,-3.3868,-3.3788,-3.3807,-3.3807,-3.3807,-3.3807,-3.3807,-3.3807,-3.3807,-3.3807,-3.3807,-3.3807,-3.3807,-0.0639,-0.0328,-0.0067,0.0,0.0,0.0,0.0,-0.0068,-0.0069,-0.0071,-0.014,-0.0416,-0.099,-0.1604,-0.2475,-0.3712,-0.4371,-0.5158,-0.6163,-0.6783,-0.7409,-0.8269,-0.9352,-1.0359,-1.136,-1.2699,-1.3912,-1.492,-1.6161,-1.7248,-1.8027,-1.8855,-1.9624,-2.0326,-2.0936,-2.194,-2.3283,-2.4377,-2.5523,-2.6643,-2.7449,-2.7886,-2.8035,-2.8246,-2.8458,-2.8644,-2.8669,-2.8785,-2.8923,-2.9208,-2.947,-2.9769,-3.0338,-3.1054,-3.1825,-3.2394,-3.3109,-3.3807,-3.3807,-3.3807,-3.3807,-3.3807,-3.3807,-3.3807,-3.3807,-3.3807,-3.3807,-3.3807,-3.3807,-3.3807,-3.3807,-3.3807,-3.3807,-3.3807,-3.3807,-3.3807,-3.3807,-3.3807,-3.3807,-3.3807,-3.3807,-3.3807,-3.3807,-3.3807,-3.3807,-3.3807,-3.3807,-3.3807,-3.3807,-3.3807,-3.3807,-3.3807,-3.3842,-3.3895,-3.3895,-3.3947,-3.3998,-3.3972,-3.3972,-3.3921,-3.3788,-3.3807,-3.3807,-3.3807,-3.3807,-3.3807,-3.3807,-3.3807,-3.3807,-3.3807,-3.3807,-3.3807,-0.0716,-0.0333,0.0,0.0,0.0067,0.0135,0.0202,0.0067,0.0,-0.0068,-0.0201,-0.0531,-0.1133,-0.1709,-0.2541,-0.3687,-0.4483,-0.5356,-0.6465,-0.7126,-0.7858,-0.8836,-0.9821,-1.0751,-1.1814,-1.3042,-1.4318,-1.5452,-1.6627,-1.772,-1.8636,-1.9398,-2.0124,-2.0812,-2.1228,-2.2079,-2.3384,-2.4477,-2.5568,-2.6682,-2.7709,-2.8291,-2.8492,-2.851,-2.8594,-2.8767,-2.881,-2.8858,-2.8952,-2.8975,-2.8994,-2.9049,-2.9549,-3.021,-3.1017,-3.1825,-3.2632,-3.3366,-3.3697,-3.3807,-3.3807,-3.3807,-3.3807,-3.3807,-3.3807,-3.3807,-3.3807,-3.3807,-3.3807,-3.3807,-3.3807,-3.3807,-3.3807,-3.3807,-3.3807,-3.3807,-3.3807,-3.3807,-3.3807,-3.3807,-3.3807,-3.3807,-3.3807,-3.3807,-3.3807,-3.3807,-3.3807,-3.3807,-3.3807,-3.3807,-3.3807,-3.3807,-3.3868,-3.3947,-3.3947,-3.4023,-3.4074,-3.4049,-3.4049,-3.3998,-3.3868,-3.3868,-3.3868,-3.3868,-3.3868,-3.3868,-3.3842,-3.3868,-3.3868,-3.3842,-3.3895,-3.3921,-0.0933,-0.0404,0.0,0.0,0.0202,0.0404,0.0538,0.0336,0.0067,-0.013,-0.0322,-0.0637,-0.1301,-0.1848,-0.2549,-0.3697,-0.4668,-0.5605,-0.672,-0.7545,-0.846,-0.9538,-1.0264,-1.1121,-1.2337,-1.3621,-1.4869,-1.6108,-1.73,-1.8391,-1.9295,-2.0024,-2.0682,-2.1323,-2.1807,-2.2615,-2.3715,-2.4866,-2.5974,-2.7036,-2.8048,-2.8664,-2.8929,-2.8785,-2.881,-2.8929,-2.8975,-2.9017,-2.8994,-2.8994,-2.8994,-2.8994,-2.8994,-2.9494,-3.0283,-3.1017,-3.1843,-3.2706,-3.344,-3.3733,-3.3807,-3.3807,-3.3807,-3.3807,-3.3807,-3.3807,-3.3807,-3.3807,-3.3807,-3.3807,-3.3807,-3.3807,-3.3807,-3.3807,-3.3807,-3.3807,-3.3807,-3.3807,-3.3807,-3.3807,-3.3807,-3.3807,-3.3807,-3.3807,-3.3807,-3.3807,-3.3807,-3.3807,-3.3807,-3.3807,-3.3807,-3.3807,-3.3994,-3.409,-3.3998,-3.4173,-3.4222,-3.4099,-3.4099,-3.4074,-3.4023,-3.3998,-3.3998,-3.3998,-3.3998,-3.3972,-3.3895,-3.3972,-3.3972,-3.3921,-3.4049,-3.4099,-0.1,-0.0539,-0.0135,0.0135,0.0606,0.0936,0.0916,0.0845,0.0649,0.0065,-0.038,-0.0871,-0.1542,-0.234,-0.3085,-0.3784,-0.4713,-0.5647,-0.6537,-0.7526,-0.8487,-0.9426,-1.053,-1.1688,-1.2832,-1.4122,-1.5428,-1.6789,-1.7892,-1.8896,-1.9783,-2.0569,-2.1274,-2.1836,-2.2347,-2.2859,-2.3312,-2.4408,-2.5458,-2.6481,-2.7432,-2.8301,-2.9044,-2.8975,-2.8975,-2.9044,-2.9067,-2.9062,-2.8994,-2.8994,-2.8994,-2.8994,-2.8994,-2.9494,-3.0228,-3.0393,-3.1366,-3.2632,-3.2816,-3.3275,-3.3807,-3.3807,-3.3807,-3.3807,-3.3807,-3.3807,-3.3807,-3.3807,-3.3807,-3.3807,-3.3807,-3.3807,-3.3807,-3.3807,-3.3807,-3.3807,-3.3807,-3.3807,-3.3807,-3.3807,-3.3807,-3.3807,-3.3807,-3.3807,-3.3807,-3.3807,-3.3807,-3.3807,-3.3807,-3.3807,-3.3807,-3.3807,-3.4494,-3.4676,-3.3976,-3.4626,-3.4789,-3.4136,-3.4099,-3.4124,-3.4148,-3.4049,-3.3998,-3.3998,-3.3998,-3.3998,-3.3972,-3.3998,-3.4023,-3.4049,-3.4099,-3.4124,-0.1339,-0.0807,-0.0269,0.0404,0.0866,0.1181,0.1292,0.1323,0.111,0.0371,-0.0305,-0.1021,-0.1713,-0.2591,-0.3431,-0.4076,-0.504,-0.6075,-0.6992,-0.8074,-0.9141,-1.0191,-1.135,-1.2563,-1.3773,-1.5015,-1.6298,-1.7626,-1.8646,-1.9585,-2.0418,-2.118,-2.1803,-2.2258,-2.2815,-2.3218,-2.3473,-2.4574,-2.5406,-2.5972,-2.7324,-2.8384,-2.9203,-2.9134,-2.9108,-2.9089,-2.9089,-2.9044,-2.8994,-2.8994,-2.8994,-2.8994,-2.8994,-2.925,-2.9677,-3.0063,-3.0742,-3.1513,-3.1898,-3.2794,-3.3792,-3.3792,-3.3802,-3.3787,-3.3787,-3.3797,-3.3807,-3.3807,-3.3807,-3.3807,-3.3807,-3.3807,-3.3807,-3.3807,-3.3807,-3.3807,-3.3807,-3.3807,-3.3807,-3.3807,-3.3834,-3.386,-3.386,-3.3895,-3.3947,-3.3998,-3.3998,-3.3998,-3.3998,-3.3998,-3.4146,-3.457,-3.5066,-3.5351,-3.5251,-3.571,-3.581,-3.534,-3.4958,-3.476,-3.4779,-3.4346,-3.4099,-3.4099,-3.4099,-3.4074,-3.4049,-3.4074,-3.4124,-3.4148,-3.4221,-3.4269,-0.188,-0.1076,-0.0269,0.0538,0.0987,0.1351,0.16,0.1653,0.1409,0.0701,-0.0175,-0.1042,-0.1857,-0.2796,-0.3666,-0.4397,-0.5449,-0.6525,-0.756,-0.8701,-0.9911,-1.1137,-1.2295,-1.3548,-1.4903,-1.6096,-1.7287,-1.8482,-1.9434,-2.028,-2.1086,-2.1761,-2.2286,-2.2695,-2.3189,-2.3588,-2.3858,-2.4854,-2.5431,-2.5652,-2.727,-2.8425,-2.915,-2.9084,-2.9071,-2.913,-2.913,-2.9067,-2.8994,-2.8994,-2.8994,-2.8994,-2.8994,-2.8994,-2.9067,-2.9751,-3.0081,-3.0301,-3.0962,-3.2145,-3.3377,-3.3377,-3.3209,-3.3088,-3.3618,-3.3813,-3.3807,-3.3807,-3.3807,-3.3807,-3.3807,-3.3807,-3.3788,-3.3815,-3.3834,-3.3815,-3.3788,-3.3807,-3.3834,-3.3834,-3.3895,-3.3947,-3.3972,-3.4074,-3.4173,-3.4221,-3.4221,-3.4221,-3.4221,-3.4375,-3.4729,-3.5436,-3.5839,-3.6211,-3.6682,-3.6894,-3.6905,-3.6671,-3.6073,-3.5646,-3.5465,-3.481,-3.4394,-3.4245,-3.4197,-3.4148,-3.4099,-3.4148,-3.4197,-3.4221,-3.434,-3.445,-0.2338,-0.121,-0.0202,0.0403,0.0987,0.1471,0.1683,0.1688,0.1516,0.0795,0.0056,-0.0789,-0.1961,-0.2961,-0.3802,-0.4549,-0.5644,-0.6683,-0.7578,-0.8976,-1.0344,-1.1601,-1.3024,-1.4448,-1.5792,-1.6957,-1.8118,-1.9288,-2.0058,-2.083,-2.1565,-2.2186,-2.2695,-2.3117,-2.3522,-2.3878,-2.4135,-2.4467,-2.5051,-2.5879,-2.6868,-2.775,-2.8521,-2.8465,-2.8699,-2.9178,-2.9178,-2.913,-2.8994,-2.8994,-2.8994,-2.8994,-2.8994,-2.8994,-2.8994,-2.9104,-2.9604,-3.0228,-3.032,-3.0968,-3.1728,-3.1728,-3.0775,-3.0166,-3.2952,-3.3813,-3.3807,-3.3807,-3.3807,-3.3807,-3.3807,-3.3807,-3.3815,-3.3868,-3.3895,-3.3868,-3.3815,-3.386,-3.3895,-3.3895,-3.4023,-3.4173,-3.4245,-3.4316,-3.4363,-3.4363,-3.4363,-3.4363,-3.4363,-3.4983,-3.5469,-3.5581,-3.6889,-3.7505,-3.6932,-3.7455,-3.7541,-3.6901,-3.6727,-3.6329,-3.5683,-3.5557,-3.5147,-3.4381,-3.4197,-3.4124,-3.4099,-3.4124,-3.4173,-3.4293,-3.4363,-3.445,-0.2599,-0.1613,-0.0739,-0.0202,0.0526,0.1086,0.1364,0.1563,0.1455,0.0677,0.0112,-0.0616,-0.179,-0.2905,-0.3959,-0.4787,-0.6091,-0.7422,-0.8561,-1.0105,-1.1612,-1.2916,-1.4288,-1.5616,-1.6818,-1.7892,-1.8896,-1.9993,-2.0733,-2.1486,-2.2224,-2.2729,-2.3165,-2.3566,-2.3923,-2.4192,-2.4425,-2.462,-2.5205,-2.6138,-2.6502,-2.7081,-2.7796,-2.8164,-2.8687,-2.9262,-2.9218,-2.9112,-2.8994,-2.8994,-2.8994,-2.8994,-2.8994,-2.8994,-2.8994,-2.8994,-2.9237,-2.9549,-2.9549,-2.9769,-3.0063,-3.0063,-3.021,-3.0782,-3.3091,-3.3784,-3.3807,-3.3807,-3.3807,-3.3807,-3.3807,-3.3807,-3.3834,-3.3868,-3.3895,-3.3921,-3.3947,-3.3998,-3.4049,-3.4197,-3.434,-3.4454,-3.4628,-3.467,-3.4693,-3.4714,-3.515,-3.5472,-3.5472,-3.619,-3.6892,-3.7343,-3.8061,-3.8531,-3.8577,-3.8893,-3.8855,-3.8377,-3.7976,-3.7338,-3.6461,-3.6062,-3.5446,-3.4536,-3.434,-3.4269,-3.4269,-3.4269,-3.4316,-3.4409,-3.4473,-3.4539,-0.2969,-0.2203,-0.1545,-0.1007,-0.0263,0.0448,0.0751,0.1028,0.111,0.0456,-0.0056,-0.0616,-0.1567,-0.2847,-0.4125,-0.5109,-0.6671,-0.8258,-0.9724,-1.1419,-1.304,-1.4473,-1.5731,-1.6876,-1.7958,-1.8881,-1.9773,-2.0718,-2.1439,-2.2141,-2.2848,-2.323,-2.361,-2.3998,-2.4229,-2.4439,-2.4654,-2.4861,-2.533,-2.6015,-2.6028,-2.6388,-2.707,-2.7587,-2.8278,-2.905,-2.9169,-2.9112,-2.8994,-2.8994,-2.8994,-2.8994,-2.8994,-2.8994,-2.8994,-2.8994,-2.8994,-2.8994,-2.8994,-2.8994,-2.8994,-2.8994,-2.98,-3.1164,-3.3192,-3.3615,-3.3458,-3.3715,-3.3807,-3.3807,-3.3807,-3.3807,-3.3815,-3.3895,-3.3921,-3.3972,-3.4124,-3.4173,-3.4269,-3.452,-3.4647,-3.4751,-3.4908,-3.4963,-3.5058,-3.5339,-3.5945,-3.6422,-3.6631,-3.7431,-3.8194,-3.8785,-3.9033,-3.9394,-3.9941,-3.9958,-3.9873,-3.9675,-3.9176,-3.8345,-3.7197,-3.6661,-3.585,-3.471,-3.4588,-3.452,-3.4427,-3.4427,-3.4473,-3.4539,-3.4623,-3.4687,-0.3604,-0.3023,-0.2485,-0.1946,-0.1182,-0.0515,-0.0321,0.0061,0.0353,0.0059,-0.0344,-0.0841,-0.151,-0.2792,-0.4236,-0.5555,-0.7261,-0.903,-1.0764,-1.2694,-1.4473,-1.5985,-1.7236,-1.8317,-1.9214,-2.0035,-2.0799,-2.148,-2.2107,-2.2721,-2.3346,-2.361,-2.3919,-2.4266,-2.4407,-2.4586,-2.479,-2.5044,-2.5214,-2.5258,-2.5256,-2.5638,-2.6365,-2.6252,-2.7008,-2.839,-2.8934,-2.9112,-2.8994,-2.8994,-2.8994,-2.8994,-2.8994,-2.8994,-2.8994,-2.8994,-2.8994,-2.8994,-2.8994,-2.8994,-2.8994,-2.8994,-2.9057,-2.9716,-3.2853,-3.3091,-3.2488,-3.3513,-3.3807,-3.3807,-3.3807,-3.3807,-3.3815,-3.3972,-3.3998,-3.4049,-3.4245,-3.4386,-3.4542,-3.4733,-3.4889,-3.5001,-3.507,-3.5141,-3.546,-3.6298,-3.6451,-3.6757,-3.7538,-3.8398,-3.8953,-3.8991,-3.968,-4.0139,-4.0196,-4.0139,-4.0081,-4.0061,-3.9984,-3.9183,-3.7528,-3.7452,-3.6653,-3.5018,-3.4962,-3.4793,-3.4495,-3.4495,-3.4561,-3.4687,-3.4768,-3.483,-0.4703,-0.4204,-0.3783,-0.3322,-0.2621,-0.1839,-0.1484,-0.0886,-0.0497,-0.0669,-0.0945,-0.1444,-0.2308,-0.3229,-0.4284,-0.5842,-0.7979,-1.0248,-1.2501,-1.4606,-1.6484,-1.7974,-1.9114,-2.002,-2.0687,-2.1319,-2.1944,-2.2513,-2.2957,-2.3406,-2.3883,-2.4098,-2.4301,-2.4564,-2.47,-2.4836,-2.5049,-2.5187,-2.5261,-2.5252,-2.5212,-2.5329,-2.5539,-2.5925,-2.6327,-2.6763,-2.7917,-2.8658,-2.9062,-2.9017,-2.8994,-2.8994,-2.8994,-2.8994,-2.8994,-2.8994,-2.8994,-2.8994,-2.8994,-2.8994,-2.8994,-2.8994,-2.936,-3.0094,-3.1753,-3.2353,-3.2643,-3.355,-3.3807,-3.3807,-3.3807,-3.3807,-3.3815,-3.3921,-3.4023,-3.4173,-3.4316,-3.4542,-3.4752,-3.4945,-3.5073,-3.5157,-3.527,-3.532,-3.545,-3.5806,-3.6765,-3.7567,-3.7855,-3.9103,-3.9967,-3.9967,-4.0236,-4.0392,-4.0396,-4.0379,-4.0325,-4.0233,-4.0252,-3.9488,-3.7769,-3.7729,-3.6946,-3.5229,-3.5174,-3.507,-3.4813,-3.4813,-3.4851,-3.4889,-3.4963,-3.5019,-0.5742,-0.5297,-0.4935,-0.4662,-0.3963,-0.3289,-0.2935,-0.2326,-0.1852,-0.2067,-0.225,-0.2732,-0.3797,-0.4866,-0.5908,-0.6887,-0.9372,-1.2087,-1.4721,-1.6859,-1.873,-2.0249,-2.0994,-2.1597,-2.2091,-2.2531,-2.2993,-2.3394,-2.3676,-2.3986,-2.432,-2.4425,-2.4575,-2.4779,-2.4921,-2.5063,-2.5201,-2.5241,-2.5271,-2.5261,-2.5201,-2.5134,-2.5088,-2.5475,-2.5725,-2.5881,-2.6804,-2.7777,-2.8721,-2.8929,-2.8994,-2.8994,-2.8994,-2.8994,-2.8994,-2.8994,-2.8994,-2.8994,-2.8994,-2.9017,-2.904,-2.904,-2.9412,-3.006,-3.1146,-3.1845,-3.2532,-3.36,-3.3921,-3.3921,-3.3921,-3.3921,-3.3947,-3.3972,-3.4099,-3.4269,-3.4386,-3.4647,-3.485,-3.5057,-3.5179,-3.5258,-3.5383,-3.5412,-3.5638,-3.6243,-3.7296,-3.82,-3.8777,-3.9796,-4.0489,-4.0489,-4.0489,-4.0508,-4.0495,-4.0515,-4.0463,-4.0358,-4.0161,-3.9394,-3.7923,-3.7632,-3.6826,-3.5411,-3.5373,-3.5308,-3.5171,-3.5105,-3.5088,-3.5105,-3.5157,-3.5174,0.0,0.0,0.0,-0.588,-0.5301,-0.4836,-0.4844,-0.4316,-0.3847,-0.4041,-0.4309,-0.481,-0.5827,-0.7766,-0.9147,-0.8892,-1.1525,-1.4559,-1.734,-1.9328,-2.1112,-2.2694,-2.293,-2.3074,-2.3487,-2.3732,-2.3951,-2.4149,-2.4276,-2.4418,-2.4588,-2.4623,-2.4731,-2.4993,-2.5132,-2.5203,-2.5187,-2.5201,-2.5201,-2.5187,-2.5134,-2.5068,-2.4981,-2.4861,-2.5179,-2.5858,-2.5671,-2.6445,-2.7893,-2.8654,-2.8975,-2.8994,-2.8994,-2.8994,-2.8994,-2.8994,-2.8994,-2.8994,-2.8994,-2.904,-2.9089,-2.9089,-2.9152,-2.9533,-3.1117,-3.1663,-3.2061,-3.3654,-3.4148,-3.4197,-3.4197,-3.4197,-3.4197,-3.4124,-3.4197,-3.434,-3.4473,-3.4666,-3.4849,-3.5057,-3.5196,-3.5308,-3.5398,-3.546,-3.6065,-3.768,-3.7969,-3.8584,-4.0219,-4.0469,-4.0489,-4.0489,-4.0489,-4.0489,-4.0489,-4.0469,-4.045,-4.045,-3.97,-3.8873,-3.8007,-3.7161,-3.6334,-3.5526,-3.5493,-3.5493,-3.5493,-3.5289,-3.5242,-3.5312,-3.5312,-3.5339,-0.8416,0.0,0.0,0.0,0.0,0.0,-0.6417,-0.6229,-0.6149,-0.6205,-0.6777,-0.7686,-0.8899,-1.0877,-1.287,-1.4616,-1.5719,-1.727,-2.0031,-2.2134,-2.383,-2.5112,-2.5641,-2.6021,-2.6255,-2.5825,-2.5577,-2.5691,-2.5197,-2.4892,-2.4891,-2.4888,-2.494,-2.507,-2.5163,-2.5203,-2.5187,-2.5198,-2.5145,-2.5063,-2.5038,-2.4934,-2.4779,-2.4685,-2.4703,-2.483,-2.5319,-2.5779,-2.6272,-2.7589,-2.8484,-2.8994,-2.8994,-2.8994,-2.8994,-2.8994,-2.8994,-2.8994,-2.8994,-2.904,-2.9089,-2.9089,-2.9584,-3.0339,-3.1422,-3.2191,-3.2947,-3.3995,-3.4316,-3.434,-3.434,-3.4316,-3.4269,-3.4245,-3.4316,-3.4404,-3.4473,-3.4666,-3.4849,-3.5057,-3.5196,-3.5308,-3.5398,-3.546,-3.5661,-3.6122,-3.7219,-3.8161,-3.8623,-3.9738,-4.0489,-4.0489,-4.0489,-4.0489,-4.0489,-3.9969,-3.9623,-3.9623,-3.8834,-3.7969,-3.7103,-3.6834,-3.6334,-3.5526,-3.5493,-3.5493,-3.5493,-3.5446,-3.5432,-3.5432,-3.5432,-3.5446,-0.9946,-0.9603,-0.9203,-0.8978,0.0,0.0,-0.8286,-0.8454,-0.8669,-0.8889,-0.9832,-1.11,-1.2495,-1.4463,-1.6631,-1.9006,-2.0161,-2.1277,-2.2833,-2.4494,-2.596,-2.7035,-2.7324,-2.7496,-2.7713,-2.7276,-2.7008,-2.705,-2.6256,-2.558,-2.5122,-2.5063,-2.5044,-2.5057,-2.5132,-2.5137,-2.5118,-2.513,-2.505,-2.4915,-2.4879,-2.4779,-2.461,-2.4545,-2.4478,-2.4429,-2.4801,-2.515,-2.5573,-2.6452,-2.7475,-2.8539,-2.8865,-2.8994,-2.8994,-2.8994,-2.8994,-2.8994,-2.8994,-2.9044,-2.9134,-2.9134,-2.9798,-3.0745,-3.1607,-3.2537,-3.3446,-3.4339,-3.4609,-3.4651,-3.4628,-3.4586,-3.4542,-3.448,-3.4502,-3.4545,-3.4607,-3.473,-3.4888,-3.5039,-3.5179,-3.5293,-3.535,-3.5446,-3.5738,-3.6449,-3.7373,-3.8257,-3.895,-3.9892,-4.0489,-4.0489,-4.0489,-4.0354,-4.0027,-3.9565,-3.9142,-3.8777,-3.795,-3.7238,-3.6719,-3.6392,-3.5988,-3.5512,-3.5493,-3.5493,-3.5493,-3.5493,-3.5493,-3.5493,-3.5493,-3.5493,-1.1422,-1.1107,-1.0842,-1.0714,-1.0558,0.0,-1.0436,-1.0879,-1.1432,-1.186,-1.3252,-1.4867,-1.6265,-1.8207,-2.0292,-2.2308,-2.4322,-2.5564,-2.5497,-2.6532,-2.7635,-2.8595,-2.8427,-2.8294,-2.8478,-2.8365,-2.8251,-2.8262,-2.7304,-2.6301,-2.5403,-2.5184,-2.5075,-2.498,-2.5051,-2.5051,-2.498,-2.4987,-2.4915,-2.4775,-2.4704,-2.4594,-2.4461,-2.4393,-2.4376,-2.4376,-2.4247,-2.4633,-2.537,-2.5404,-2.6358,-2.786,-2.8594,-2.892,-2.8994,-2.8994,-2.8994,-2.8994,-2.8994,-2.9067,-2.9178,-2.92,-2.9938,-3.0961,-3.1773,-3.276,-3.3805,-3.4584,-3.4908,-3.4999,-3.4945,-3.4908,-3.4889,-3.4773,-3.4734,-3.4754,-3.4812,-3.4889,-3.4964,-3.502,-3.5126,-3.5242,-3.53,-3.5412,-3.6007,-3.7507,-3.7873,-3.8546,-4.0027,-4.0373,-4.0489,-4.0489,-4.0412,-4.0065,-3.9354,-3.9123,-3.8681,-3.7892,-3.7046,-3.6584,-3.6584,-3.5892,-3.5493,-3.5493,-3.5493,-3.5493,-3.5493,-3.5493,-3.5493,-3.5493,-3.5493,-3.5493,-1.3566,-1.3424,-1.3204,-1.3095,-1.3277,0.0,-1.3354,-1.3976,-1.4744,-1.5256,-1.6546,-1.8043,-1.9359,-2.1109,-2.286,-2.4537,-2.5966,-2.6961,-2.7317,-2.8334,-2.9266,-2.9953,-3.0095,-3.0204,-3.0366,-2.9732,-2.9288,-2.9227,-2.7715,-2.6649,-2.6333,-2.5543,-2.5044,-2.4912,-2.4926,-2.4912,-2.4837,-2.4837,-2.476,-2.4639,-2.4578,-2.4444,-2.4266,-2.4248,-2.4247,-2.4228,-2.4209,-2.4301,-2.4503,-2.5146,-2.6358,-2.7824,-2.797,-2.8429,-2.8994,-2.8994,-2.8994,-2.8994,-2.8994,-2.9044,-2.9112,-2.9178,-3.0287,-3.1663,-3.1981,-3.3193,-3.454,-3.487,-3.5037,-3.5088,-3.507,-3.5053,-3.5053,-3.5035,-3.5016,-3.5035,-3.5053,-3.5088,-3.516,-3.5229,-3.5261,-3.5273,-3.53,-3.5412,-3.5622,-3.5949,-3.7142,-3.8123,-3.845,-3.9662,-4.0489,-4.0489,-3.9912,-3.9469,-3.9296,-3.8007,-3.7142,-3.6969,-3.6199,-3.5738,-3.5738,-3.557,-3.5493,-3.5493,-3.5493,-3.5493,-3.5493,-3.5493,-3.5493,-3.5493,-3.5493,-3.5493,-1.5125,-1.5015,-1.4844,-1.4725,-1.4988,0.0,0.0,-1.6053,-1.7064,-1.7705,-1.9107,-2.0497,-2.1349,-2.2718,-2.4144,-2.5462,-2.6476,-2.7495,-2.8526,-2.9608,-3.0662,-3.1621,-3.1895,-3.188,-3.1582,-3.1113,-3.0464,-2.9569,-2.8626,-2.7648,-2.665,-2.6055,-2.5469,-2.4832,-2.4764,-2.4685,-2.4556,-2.4556,-2.4491,-2.4408,-2.4338,-2.4211,-2.4057,-2.4057,-2.4037,-2.4054,-2.4054,-2.4094,-2.4169,-2.4572,-2.5472,-2.6667,-2.7475,-2.8282,-2.8994,-2.8994,-2.8994,-2.8994,-2.8994,-2.904,-2.9108,-2.9134,-3.0331,-3.1782,-3.1955,-3.3287,-3.4791,-3.4945,-3.5072,-3.5157,-3.5174,-3.5207,-3.5203,-3.5203,-3.5203,-3.5203,-3.5203,-3.5239,-3.5254,-3.5289,-3.5339,-3.5354,-3.535,-3.5427,-3.5641,-3.6045,-3.6815,-3.768,-3.8546,-3.9373,-4.0046,-4.045,-3.9777,-3.9123,-3.8681,-3.745,-3.6526,-3.6142,-3.5718,-3.5493,-3.5493,-3.5493,-3.5493,-3.5493,-3.5493,-3.5493,-3.5493,-3.5493,-3.5493,-3.5493,-3.5493,-3.5493,-1.6472,-1.6461,-1.6367,-1.6363,-1.6579,-1.6841,0.0,0.0,0.0,-1.9786,-2.1222,-2.2438,-2.2675,-2.3674,-2.4724,-2.5586,-2.6507,-2.7669,-2.9189,-3.0387,-3.1546,-3.2709,-3.3121,-3.3074,-3.248,-3.2383,-3.1695,-3.0099,-2.9738,-2.8833,-2.7113,-2.6553,-2.583,-2.4837,-2.4601,-2.4388,-2.4211,-2.4229,-2.4192,-2.4116,-2.4058,-2.3959,-2.3837,-2.3837,-2.3837,-2.3837,-2.3876,-2.3917,-2.4036,-2.4054,-2.4589,-2.5529,-2.6998,-2.8062,-2.8796,-2.8938,-2.8994,-2.8994,-2.8994,-2.904,-2.9067,-2.9108,-3.0286,-3.1751,-3.2032,-3.3339,-3.4772,-3.4889,-3.5056,-3.5176,-3.5226,-3.5273,-3.53,-3.5315,-3.5315,-3.5315,-3.535,-3.533,-3.533,-3.533,-3.5379,-3.5412,-3.5412,-3.546,-3.5718,-3.6372,-3.6603,-3.7219,-3.8623,-3.895,-3.9296,-3.995,-3.9277,-3.8507,-3.7815,-3.6969,-3.6199,-3.5532,-3.5493,-3.5493,-3.5493,-3.5493,-3.5493,-3.5493,-3.5493,-3.5493,-3.5493,-3.5493,-3.5493,-3.5493,-3.5493,-3.5493,-1.7995,-1.8267,-1.8513,-1.872,-1.9,-1.9275,-1.9687,0.0,-2.1158,-2.182,0.0,-2.3648,-2.3499,0.0,0.0,-2.5021,-2.6277,-2.778,-2.919,-3.0423,-3.1391,-3.1881,-3.2745,-3.3298,-3.3261,-3.3255,-3.282,-3.1793,-3.0834,-2.9764,-2.8523,-2.6798,-2.5646,-2.5168,-2.4448,-2.3983,-2.3878,-2.3919,-2.3899,-2.3837,-2.3777,-2.3714,-2.3631,-2.3631,-2.3631,-2.3649,-2.3692,-2.3774,-2.3837,-2.3896,-2.4452,-2.5415,-2.6353,-2.7236,-2.8026,-2.8741,-2.8994,-2.8994,-2.8994,-2.9017,-2.9017,-2.9085,-3.0286,-3.1862,-3.2637,-3.3654,-3.4561,-3.4708,-3.4869,-3.5056,-3.5107,-3.5209,-3.5308,-3.5364,-3.5398,-3.5412,-3.546,-3.5493,-3.5493,-3.5493,-3.5474,-3.546,-3.5412,-3.546,-3.5532,-3.5622,-3.6238,-3.6776,-3.6969,-3.768,-3.818,-3.8277,-3.7507,-3.6969,-3.6873,-3.6103,-3.5603,-3.5526,-3.5493,-3.5493,-3.5493,-3.5493,-3.5493,-3.5493,-3.5493,-3.5493,-3.5493,-3.5493,-3.5493,-3.5493,-3.5493,-3.5493,-1.8922,-1.9186,-1.9384,-1.9773,-2.008,-2.0434,-2.0993,-2.1704,-2.2377,-2.301,0.0,0.0,0.0,0.0,0.0,0.0,-2.5496,-2.6299,-2.7577,-2.9213,-3.0803,-3.2268,-3.3297,-3.392,-3.4027,-3.3518,-3.2967,-3.2444,-3.1292,-3.0067,-2.8819,-2.7359,-2.5954,-2.4598,-2.4206,-2.3732,-2.3183,-2.3189,-2.3212,-2.3277,-2.3236,-2.3248,-2.3259,-2.3259,-2.3259,-2.3307,-2.333,-2.3463,-2.3642,-2.3685,-2.4013,-2.452,-2.5442,-2.6603,-2.7897,-2.8705,-2.8994,-2.8994,-2.8994,-2.8994,-2.909,-2.9572,-3.0249,-3.1136,-3.2434,-3.3184,-3.3697,-3.4297,-3.4564,-3.4732,-3.4889,-3.5037,-3.5143,-3.5258,-3.5304,-3.5354,-3.5432,-3.5446,-3.546,-3.5493,-3.5493,-3.5493,-3.546,-3.5474,-3.5493,-3.5493,-3.5795,-3.618,-3.6642,-3.7026,-3.745,-3.795,-3.7219,-3.6699,-3.6699,-3.5968,-3.5493,-3.5493,-3.5493,-3.5493,-3.5493,-3.5493,-3.5493,-3.5493,-3.5493,-3.5493,-3.5493,-3.5493,-3.5493,-3.5493,-3.5493,-3.5493,-1.9708,-1.9914,-2.0105,-2.0683,-2.1028,-2.1396,-2.1969,-2.2663,-2.329,-2.3752,-2.4583,0.0,0.0,0.0,-2.4842,-2.4826,0.0,-2.5321,-2.6057,-2.7678,-2.9618,-3.1834,-3.3117,-3.3868,-3.3973,-3.3427,-3.2837,-3.2338,-3.1446,-3.0239,-2.8646,-2.7446,-2.5985,-2.4201,-2.3715,-2.3202,-2.2613,-2.2446,-2.2468,-2.2643,-2.2669,-2.273,-2.2782,-2.2782,-2.2807,-2.2859,-2.291,-2.3042,-2.3242,-2.3394,-2.3553,-2.3804,-2.4744,-2.6078,-2.7504,-2.8352,-2.8815,-2.8994,-2.8994,-2.8994,-2.9085,-2.9696,-3.005,-3.052,-3.1918,-3.2582,-3.3037,-3.3974,-3.4316,-3.4454,-3.467,-3.4792,-3.4927,-3.5072,-3.5176,-3.5245,-3.5339,-3.535,-3.5379,-3.546,-3.5493,-3.5493,-3.5493,-3.5493,-3.5493,-3.5493,-3.5493,-3.5718,-3.6315,-3.6372,-3.6622,-3.7257,-3.6757,-3.6372,-3.6372,-3.5853,-3.5493,-3.5493,-3.5493,-3.5493,-3.5493,-3.5493,-3.5493,-3.5493,-3.5493,-3.5493,-3.5493,-3.5493,-3.5493,-3.5493,-3.5493,-3.5493,-2.0409,-2.0746,-2.114,-2.1793,-2.2123,-2.2449,-2.2799,-2.3334,-2.3882,-2.4219,-2.4974,-2.5415,-2.4895,-2.533,-2.5333,-2.4035,-2.4918,0.0,0.0,-2.6059,-2.7587,-2.9749,-3.1569,-3.2654,-3.2654,-3.2985,-3.2656,-3.1341,-3.1283,-3.0308,-2.806,-2.6723,-2.5495,-2.4335,-2.2947,-2.2281,-2.2313,-2.1784,-2.1694,-2.201,-2.2096,-2.2164,-2.222,-2.222,-2.222,-2.2248,-2.2385,-2.2502,-2.2643,-2.2985,-2.3236,-2.3526,-2.4586,-2.5597,-2.6553,-2.7486,-2.8338,-2.8994,-2.8994,-2.8994,-2.8994,-2.9012,-2.9567,-3.0356,-3.1182,-3.2022,-3.2889,-3.3776,-3.4099,-3.4245,-3.4473,-3.4561,-3.4668,-3.4851,-3.4964,-3.5056,-3.5176,-3.5254,-3.5315,-3.5379,-3.546,-3.5493,-3.5493,-3.5493,-3.5493,-3.5493,-3.5493,-3.5512,-3.5545,-3.5545,-3.5565,-3.5584,-3.5565,-3.5545,-3.5545,-3.5512,-3.5493,-3.5493,-3.5493,-3.5493,-3.5493,-3.5493,-3.5493,-3.5493,-3.5493,-3.5493,-3.5493,-3.5493,-3.5493,-3.5493,-3.5493,-3.5493,-2.0351,-2.0341,-2.0461,-2.1603,-2.1941,-2.2233,-2.3084,-2.3653,-2.4078,-2.4426,-2.5185,-2.5762,-2.5733,-2.5732,-2.5661,-2.5365,-2.5321,-2.5191,0.0,-2.5145,-2.6017,-2.7358,-2.9232,-3.0806,-3.177,-3.1672,-3.1292,-3.07,-2.956,-2.8294,-2.6899,-2.5599,-2.4178,-2.2692,-2.1865,-2.1301,-2.0926,-2.0612,-2.0668,-2.1102,-2.1244,-2.1446,-2.1658,-2.1658,-2.1735,-2.1869,-2.1928,-2.2039,-2.222,-2.2483,-2.2773,-2.3133,-2.3702,-2.4581,-2.5651,-2.7181,-2.8278,-2.8994,-2.8994,-2.8994,-2.8994,-2.8994,-2.9177,-2.9567,-3.0356,-3.1189,-3.2022,-3.2907,-3.3566,-3.4049,-3.4197,-3.4293,-3.4386,-3.4586,-3.471,-3.4849,-3.5038,-3.5124,-3.5207,-3.5324,-3.5383,-3.5427,-3.5427,-3.546,-3.5493,-3.5493,-3.5493,-3.5493,-3.5493,-3.5493,-3.5493,-3.5493,-3.5493,-3.5493,-3.5493,-3.5493,-3.5493,-3.5493,-3.5493,-3.5493,-3.5493,-3.5493,-3.5493,-3.5493,-3.5493,-3.5493,-3.5493,-3.5493,-3.5493,-3.5493,-3.5493,-3.5493,-2.0124,-2.0155,-2.0255,-2.1327,-2.1641,-2.1986,-2.2975,-2.3534,-2.3953,-2.4486,-2.5301,-2.5954,-2.617,-2.6168,-2.6092,-2.6025,-2.5695,-2.5216,0.0,-2.4581,-2.4908,-2.5463,-2.7295,-2.8839,-2.9687,-2.962,-2.9413,-2.9073,-2.7814,-2.66,-2.5526,-2.4247,-2.2871,-2.1416,-2.0508,-1.995,-1.9652,-1.9339,-1.9411,-1.9893,-2.0265,-2.0599,-2.0862,-2.0975,-2.1135,-2.123,-2.134,-2.1462,-2.1688,-2.1919,-2.2303,-2.2695,-2.3042,-2.3851,-2.5026,-2.6609,-2.7954,-2.8952,-2.8994,-2.8994,-2.8994,-2.8994,-2.8994,-2.914,-2.9971,-3.0558,-3.1225,-3.2353,-3.3033,-3.3545,-3.3924,-3.4074,-3.4148,-3.4316,-3.4473,-3.4604,-3.4791,-3.4908,-3.5035,-3.516,-3.5242,-3.532,-3.5354,-3.5403,-3.5451,-3.5493,-3.5493,-3.5493,-3.5493,-3.5493,-3.5493,-3.5493,-3.5493,-3.5493,-3.5493,-3.5493,-3.5493,-3.5493,-3.5493,-3.5493,-3.5493,-3.5493,-3.5493,-3.5493,-3.5493,-3.5493,-3.5493,-3.5493,-3.5493,-3.5493,-3.5493,-3.5493]}]]